     2              OBSERVATION DATA    GPS                 RINEX VERSION / TYPE
srx-v1.3-(5/19/93) SEISMO 23-OCT-1996                       PGM / RUN BY / DATE
                                                            COMMENT
sig: 9 8 7 6 5 4 1 0                                        COMMENT
sig: 9 8 7 6 5 4 1 0                                        COMMENT
sig: 9 8 7 6 5 4 1 0                                        COMMENT
Original Marker Name: TWST                                  COMMENT
Campaign Name: jpl 1993-1997                                COMMENT
4-Character Station Name: TWST                              COMMENT
6-Character Antenna Code: DMRCHT                            COMMENT
Vertical Measurement Point: BPA                             COMMENT
Vertical Offset to Rinex Ref. Point: 0.0000                 COMMENT
Radial Measurement Point: RRP                               COMMENT
Radial Offset to Rinex Ref. Point: 0.0000                   COMMENT
Antenna Height from Field Measurement: 0.0814 m             COMMENT
Additional Antenna Identification Info.:                    COMMENT
Turborogue and Ashtech Choke Ring                           COMMENT
Original XYZ: -2553793.7485 -4587825.2076 3609927.5520      COMMENT
New XYZ position is based on association with SCEC monument COMMENT
E1E9K8C3+0011. Position of that monument is believed to be  COMMENT
valid to within 1 m horizontally; vertical accuracy         COMMENT
should be no worse than 3-times this value.                 COMMENT
                                                            COMMENT
Revised Rinex header created by UCSD GPS archive for        COMMENT
GSAC on 14-Apr-1999 (1999:104) 02:37:24 GMT                 COMMENT
For assistance contact dagnew@ucsd.edu or hjohnson@ucsd.edu COMMENT
                                                            COMMENT
TWISTED ROCK                                                MARKER NAME
TWST                                                        MARKER NUMBER
AD JET PROPULSION LABORATORY                                OBSERVER / AGENCY
S/N UNKNOWN TURBOROGUE SNR-8000 95.03.08                    REC # / TYPE / VERS
S/N UNKNOWN DORNE-MARGOL. TYPE T                            ANT # / TYPE
 -2555397.0000 -4591098.0000  3606024.0000                  APPROX POSITION XYZ
        0.0814        0.0000        0.0000                  ANTENNA: DELTA H/E/N
     1     1     0                                          WAVELENGTH FACT L1/2
     5    L1    L2    P1    P2    C1                        # / TYPES OF OBSERV
    30                                                      INTERVAL
  1996    10    13     0    13   30.000000                  TIME OF FIRST OBS
  1996    10    13    23    59   30.000000                  TIME OF LAST OBS
    26                                                      # OF SATELLITES
                                                            END OF HEADER
 96 10 13 00 13 30.0000000  0  2 04 29
        -0.53358        -0.56154         0.00051  24590661.42454  24590657.67858
        -0.39659         0.26757         0.00051  20758814.77657  20758813.58859
 96 10 13 00 14 00.0000000  0  3 04 29 14
    -15268.00148    -11897.28545         0.00041  24587755.53145  24587752.32248
      5391.16149      4201.48447         0.00041  20759840.45347  20759839.23049
        -1.09559        -0.92557         0.00051  20197219.31757  20197216.91359
 96 10 13 00 14 30.0000000  0  5 22 29 14 04 25
        -0.52959        -0.02356         0.00051  21120021.33856  21120019.19459
     11171.52949      8705.67347         0.00041  20760940.66547  20760939.26049
     28052.36049     21858.90448         0.00041  20202557.81748  20202555.37949
    -29818.75748    -23235.46744         0.00041  24584988.18144  24584982.44248
        -1.11458         0.03655         0.00051  24135398.54855  24135395.90458
 96 10 13 00 15 00.0000000  0  6 22 18 04 29 14 25
      -979.99849      -763.23946         0.00041  21119835.26646  21119832.85549
        -0.24858        -0.35156         0.00051  22559715.35856  22559711.78958
    -45056.51948    -35109.05044         0.00041  24582087.03544  24582082.92848
     15951.39849     12430.25747         0.00041  20761850.33347  20761848.69949
     55472.77549     43225.45448         0.00041  20207775.77948  20207773.33949
    103854.80648     80926.73944         0.00041  24155159.53444  24155158.68648
 96 10 13 00 15 30.0000000  0  6 22 18 29 14 04 25
     -7857.24949     -6122.12246         0.00041  21118526.86146  21118524.38149
    -65996.24948    -51425.76946         0.00041  22547156.29246  22547153.14248
     14428.39349     11243.49747         0.00041  20761560.46447  20761559.09449
     76975.34649     59980.69648         0.00041  20211867.55748  20211865.17649
    -66271.45348    -51640.18044         0.00041  24578049.69644  24578046.50048
    201252.53748    156821.06144         0.00041  24173693.19044  24173692.63248
 96 10 13 00 16 00.0000000  0  7 22 18 29 14 04 25 15
    -17561.06149    -13683.52346         0.00041  21116680.06146  21116677.93549
   -135314.32548   -105439.82846         0.00041  22533963.87346  22533961.99248
      9679.49649      7543.05847         0.00041  20760656.76047  20760655.31649
     95645.84649     74529.13447         0.00041  20215420.46447  20215417.95049
    -90372.81748    -70420.46944         0.00041  24573465.21044  24573460.95848
    295270.53348    230081.82944         0.00041  24191588.00044  24191584.18148
        -0.15158         0.80754         0.00051  24510027.76954  24510027.76958
 96 10 13 00 16 30.0000000  0  7 22 18 29 14 04 25 15
    -29270.01849    -22807.36846         0.00041  21114451.77146  21114449.58449
   -207117.02048   -161389.96246         0.00041  22520300.63946  22520298.89948
      2536.47049      1977.07047         0.00041  20759297.46047  20759296.21649
    112309.05649     87513.45047         0.00041  20218591.50347  20218588.84349
   -116542.79948    -90812.66144         0.00041  24568482.01244  24568479.97148
    386742.59848    301358.75844         0.00041  24208994.24844  24208990.56448
    100932.36648     78649.44844         0.00041  24529234.77444  24529234.77448
 96 10 13 00 17 00.0000000  0  7 22 18 29 14 04 25 15
    -50590.22549    -39420.50046         0.00041  21110394.72746  21110392.66249
   -289034.12148   -225221.46046         0.00041  22504713.31346  22504710.24448
    -14619.85149    -11391.48047         0.00041  20756032.71647  20756031.39449
    119329.27849     92983.75147         0.00041  20219927.42147  20219924.84249
   -152401.18148   -118754.28344         0.00041  24561659.72444  24561656.56648
    468052.88048    364717.42544         0.00041  24224466.45644  24224463.46048
    191582.94648    149285.41244         0.00041  24546486.01344  24546486.01348
 96 10 13 00 17 30.0000000  0  7 22 18 29 14 04 25 15
    -76610.04849    -59695.66746         0.00041  21105443.16446  21105441.07149
   -376176.48548   -293124.54746         0.00041  22488130.68146  22488127.03448
    -36886.15849    -28741.84347         0.00041  20751795.39747  20751794.16249
    121577.95149     94735.96447         0.00041  20220355.17747  20220352.71149
   -193044.49848   -150424.43044         0.00041  24553925.07344  24553922.86548
    544066.30248    423948.67344         0.00041  24238929.39144  24238927.85848
    276839.21348    215718.86744         0.00041  24562708.97444  24562708.97448
 96 10 13 00 18 00.0000000  0  7 22 18 29 14 04 25 15
   -100865.47949    -78595.98446         0.00041  21100827.35546  21100825.15549
   -462080.86848   -360062.97946         0.00041  22471783.97546  22471781.04348
    -57799.95349    -45038.30647         0.00041  20747815.91747  20747814.42749
    125497.72349     97790.33547         0.00041  20221101.16947  20221098.59049
   -232048.69248   -180817.32844         0.00041  24546504.43844  24546500.25548
    621221.60148    484069.72944         0.00041  24253610.99144  24253609.89648
    363146.52647    282971.31944         0.00041  24579132.05844  24579132.05847
 96 10 13 00 18 30.0000000  0  8 22 18 19 29 14 04 25 15
   -119197.46649    -92880.63246         0.00041  21097338.70646  21097337.17749
   -542598.87648   -422804.28946         0.00041  22456460.70446  22456458.87048
         0.09158         1.26654         0.00051  24146157.90554  24146153.33958
    -73200.65849    -57038.85247         0.00041  20744885.03447  20744883.69049
    135238.01149    105380.16547         0.00041  20222954.34647  20222951.94349
   -265291.92848   -206721.09245         0.00041  24540177.86345  24540174.60548
    703672.13148    548316.87344         0.00041  24269301.29244  24269299.46848
    454649.97847    354272.71044         0.00041  24596544.91944  24596544.91947
 96 10 13 00 19 00.0000000  0  8 22 18 19 29 14 04 25 15
   -134420.74049   -104742.90346         0.00041  21094442.06446  21094439.81949
   -620559.88348   -483553.10346         0.00041  22441625.93646  22441622.62948
    -94530.34048    -73658.71244         0.00041  24128170.85444  24128164.19248
    -85901.72149    -66935.77847         0.00041  20742468.08847  20742466.86249
    147996.51849    115321.85347         0.00041  20225382.34147  20225379.94349
   -295585.65548   -230326.58345         0.00041  24534413.71745  24534409.98648
    788587.38848    614484.56444         0.00041  24285460.41744  24285459.10748
    548524.59047    427421.75944         0.00041  24614408.74644  24614408.74647
 96 10 13 00 19 30.0000000  0  8 22 18 19 29 14 04 25 15
   -145958.88249   -113733.64946         0.00041  21092246.54646  21092244.33149
   -695375.72248   -541851.11246         0.00041  22427389.33146  22427386.40748
   -185860.94148   -144825.35344         0.00041  24110793.42544  24110783.99348
    -95322.74949    -74276.83447         0.00041  20740675.41947  20740674.11549
    164382.49049    128090.13647         0.00041  20228500.70447  20228498.14049
   -322339.79148   -251173.98144         0.00041  24529320.15244  24529318.06148
    876559.44248    683034.26444         0.00041  24302199.57044  24302199.50248
    645358.33847    502876.62744         0.00041  24632836.09644  24632836.09647
 96 10 13 00 20 00.0000000  0  8 22 18 19 29 14 04 25 15
   -154860.84949   -120670.23146         0.00041  21090552.88646  21090550.51349
   -768098.56348   -598518.23646         0.00041  22413550.15146  22413547.60148
   -275006.22648   -214289.11544         0.00041  24093830.35544  24093820.92348
   -102525.23049    -79889.15147         0.00041  20739304.96947  20739303.62149
    183372.80749    142887.78047         0.00041  20232114.44047  20232111.99849
   -346597.02548   -270075.76244         0.00041  24524706.07344  24524701.66548
    966568.65748    753171.29044         0.00041  24319327.57944  24319327.57948
    744114.02748    579829.11244         0.00041  24651629.28844  24651629.28848
 96 10 13 00 20 30.0000000  0  8 22 18 19 29 14 04 25 15
   -163098.17249   -127088.90846         0.00041  21088984.93446  21088983.13749
   -840726.04648   -655111.05246         0.00041  22399729.06946  22399725.92048
   -363918.11248   -283571.01344         0.00041  24076905.70044  24076901.94548
   -109486.79749    -85313.73947         0.00041  20737980.18447  20737978.73149
    202993.55449    158176.67147         0.00041  20235848.09147  20235845.70949
   -370297.34448   -288543.50945         0.00041  24520195.01345  24520192.32348
   1056645.33748    823360.00344         0.00041  24336469.09144  24336469.09148
    842819.45347    656742.43144         0.00041  24670410.90644  24670410.90647
 96 10 13 00 21 00.0000000  0  8 22 18 19 29 14 04 25 15
   -170498.02649   -132855.00646         0.00041  21087576.94746  21087574.94549
   -913075.58648   -711487.29046         0.00041  22385961.51546  22385958.29248
   -452407.86248   -352523.96344         0.00041  24060067.37844  24060063.26648
   -116037.67049    -90418.31347         0.00041  20736733.57747  20736732.23949
    223400.09449    174077.87347         0.00041  20239731.21047  20239728.75949
   -393248.71148   -306427.68545         0.00041  24515828.84145  24515825.69548
   1146948.68648    893726.24944         0.00041  24353653.15144  24353653.15148
    941640.78647    733746.06744         0.00041  24689217.11144  24689217.11147
 96 10 13 00 21 30.0000000  0  8 18 22 19 29 14 04 25 15
   -985102.89848   -767612.44446         0.00041  22372255.37046  22372253.30448
   -177029.20149   -137944.25146         0.00041  21086334.07346  21086332.07749
   -540432.07648   -421114.18344         0.00041  24043315.00944  24043312.79848
   -122157.56049    -95187.05447         0.00041  20735569.01947  20735567.51149
    244604.01749    190600.40847         0.00041  20243766.31047  20243763.85049
   -415422.17248   -323705.70944         0.00041  24511608.79644  24511605.57448
   1237511.17447    964294.42244         0.00041  24370887.06644  24370887.06647
   1040612.80647    810867.12244         0.00041  24708050.61544  24708050.61547
 96 10 13 00 22 00.0000000  0  8 22 18 19 29 14 04 25 15
   -182648.59149   -142322.93946         0.00041  21085264.47246  21085262.34449
  -1056759.83848   -823448.98146         0.00041  22358619.45646  22358616.26448
   -627958.89148   -489316.79644         0.00041  24026661.53244  24026656.43348
   -127790.49349    -99576.34847         0.00041  20734497.11547  20734495.54549
    266640.66749    207771.81747         0.00041  20247959.69147  20247957.27249
   -436775.00848   -340344.30145         0.00041  24507545.12545  24507542.20948
   1328364.49147   1035089.21444         0.00041  24388176.36744  24388176.36747
   1139770.67247    888132.99144         0.00041  24726920.41644  24726920.41647
 96 10 13 00 22 30.0000000  0  8 22 18 19 29 14 04 25 15
   -187476.22249   -146084.71746         0.00041  21084345.93746  21084343.93949
  -1128149.00248   -879076.85546         0.00041  22345033.82746  22345031.78348
   -715131.62148   -557243.51544         0.00041  24010072.33144  24010068.26848
   -133043.33149   -103669.46347         0.00041  20733497.50247  20733496.05949
    289382.33049    225492.58447         0.00041  20252287.19647  20252284.87549
   -457436.73448   -356444.33944         0.00041  24503613.42544  24503610.50348
   1419374.43247   1106006.05144         0.00041  24405494.20844  24405494.20847
   1238982.99247    965441.29244         0.00041  24745797.83944  24745797.83947
 96 10 13 00 23 00.0000000  0  7 22 18 19 29 14 04 15
   -191548.08549   -149257.58046         0.00041  21083571.16346  21083569.17649
  -1199279.47848   -934503.19746         0.00041  22331498.36146  22331496.53348
   -801980.54448   -624917.93344         0.00041  23993547.16444  23993540.67148
   -137948.74049   -107491.85647         0.00041  20732563.99247  20732562.59249
    312813.63849    243750.74047         0.00041  20256746.18847  20256743.74749
   -477454.23348   -372042.39445         0.00041  24499804.98445  24499801.98348
   1338218.27648   1042767.48844         0.00041  24764685.77344  24764685.77348
 96 10 13 00 23 30.0000000  0  7 22 18 19 29 14 04 15
   -194953.22849   -151910.92346         0.00041  21082923.26446  21082921.18749
  -1270244.47748   -989800.57846         0.00041  22317995.79046  22317991.96048
   -888589.77248   -692405.57644         0.00041  23977063.60844  23977059.80248
   -142590.34549   -111108.68647         0.00041  20731680.82447  20731679.47649
    336876.75749    262501.22247         0.00041  20261325.10847  20261322.76049
   -496925.49948   -387214.79644         0.00041  24496098.10644  24496095.71548
   1437394.25847   1120047.47444         0.00041  24783556.10944  24783556.10947
 96 10 13 00 24 00.0000000  0  7 22 18 19 29 14 04 15
   -197495.84949   -153892.17346         0.00041  21082439.13746  21082437.21849
  -1340860.05548  -1044825.65346         0.00041  22304557.85946  22304554.65248
   -974783.55648   -759569.46544         0.00041  23960662.69844  23960657.84748
   -146766.45949   -114362.80747         0.00041  20730885.93447  20730884.64849
    361769.16949    281897.90547         0.00041  20266061.97847  20266059.63849
   -515663.14848   -401815.56744         0.00041  24492533.99544  24492529.69848
   1536695.91847   1197425.39144         0.00041  24802453.10144  24802453.10147
 96 10 13 00 24 30.0000000  0  7 22 18 19 29 14 04 15
   -199436.96749   -155404.71746         0.00041  21082069.94246  21082068.00249
  -1411401.61548  -1099793.07146         0.00041  22291133.60646  22291131.25648
  -1060829.60448   -826618.25845         0.00041  23944288.98745  23944283.78148
   -150762.27449   -117476.42847         0.00041  20730125.38647  20730124.13349
    387218.17049    301728.29647         0.00041  20270904.86547  20270902.52049
   -533940.22448   -416057.44744         0.00041  24489053.62644  24489051.65148
   1635852.07947   1274689.93144         0.00041  24821320.36644  24821320.36647
 96 10 13 00 25 00.0000000  0  7 22 18 19 29 14 04 15
   -200868.25549   -156519.98646         0.00041  21081797.52346  21081795.54549
  -1481959.00448  -1154772.83646         0.00041  22277706.69046  22277703.99748
  -1146792.99448   -893602.66045         0.00041  23927929.84545  23927925.41548
   -154661.61949   -120514.86847         0.00041  20729383.53547  20729382.18149
    413139.92549    321927.06447         0.00041  20275837.70247  20275835.19549
   -551831.76348   -429998.90944         0.00041  24485650.80444  24485648.56848
   1734778.52047   1351775.47044         0.00041  24840146.00844  24840146.00847
 96 10 13 00 25 30.0000000  0  7 22 18 19 29 14 04 15
   -201727.00849   -157189.12546         0.00041  21081634.02946  21081632.21649
  -1552472.54548  -1209718.41446         0.00041  22264288.85446  22264285.85548
  -1232628.95848   -960487.74845         0.00041  23911594.98745  23911591.45648
   -158397.94749   -123426.28147         0.00041  20728672.60747  20728671.17849
    439572.47249    342523.84747         0.00041  20280867.70547  20280865.18949
   -569258.89148   -443578.51344         0.00041  24482332.76144  24482331.35148
   1833530.63847   1428725.17244         0.00041  24858937.77544  24858937.77547
 96 10 13 00 26 00.0000000  0  7 22 18 19 29 14 04 15
   -201862.38649   -157294.59346         0.00041  21081608.30546  21081606.42149
  -1622793.53548  -1264513.96346         0.00041  22250907.07946  22250903.99248
  -1318205.50448  -1027170.70845         0.00041  23895310.83445  23895307.23448
   -161834.25749   -126103.92047         0.00041  20728018.66147  20728017.42849
    466638.41549    363614.18447         0.00041  20286018.27247  20286015.57949
   -586053.72648   -456665.35744         0.00041  24479137.53844  24479135.10948
   1932246.79747   1505646.85544         0.00041  24877724.47744  24877724.47747
 96 10 13 00 26 30.0000000  0  7 22 18 19 29 14 04 15
   -201281.14649   -156841.67246         0.00041  21081718.90746  21081716.81849
  -1692910.72948  -1319150.71146         0.00041  22237563.70046  22237560.79648
  -1403504.40248  -1093637.28545         0.00041  23879079.57645  23879075.11048
   -164971.61949   -128548.61847         0.00041  20727421.71147  20727420.36749
    494341.65449    385201.11647         0.00041  20291290.02247  20291287.36249
   -602200.68948   -469247.42844         0.00041  24476066.86544  24476062.68748
   2030926.23247   1582539.92144         0.00041  24896502.02544  24896502.02547
 96 10 13 00 27 00.0000000  0  7 22 18 19 29 14 04 15
   -200030.07549   -155866.80046         0.00041  21081957.02846  21081954.95049
  -1762854.14548  -1373652.04446         0.00041  22224254.52846  22224251.63748
  -1488576.30548  -1159927.00245         0.00041  23862889.65145  23862885.75448
   -167837.42449   -130781.71347         0.00041  20726876.24147  20726875.10749
    522638.25649    407250.41047         0.00041  20296674.58147  20296672.08549
   -617736.31648   -481353.12245         0.00041  24473109.29045  24473106.47048
   2129524.42347   1659369.68044         0.00041  24915263.96244  24915263.96247
 96 10 13 00 27 30.0000000  0  7 22 18 19 29 14 04 15
   -198146.29149   -154398.90946         0.00041  21082315.52646  21082313.37949
  -1832673.29848  -1428056.55146         0.00041  22210968.33446  22210965.25448
  -1573488.79248  -1226092.48145         0.00041  23846732.68345  23846728.19348
   -170475.68349   -132837.49647         0.00041  20726374.33747  20726373.02449
    551483.88849    429727.52047         0.00041  20302163.54247  20302161.22749
   -632713.68248   -493023.82745         0.00041  24470258.90945  24470257.13748
   2227990.35547   1736096.38044         0.00041  24934001.57944  24934001.57947
 96 10 13 00 28 00.0000000  0  7 22 18 19 29 14 04 15
   -195631.42549   -152439.26246         0.00041  21082793.76446  21082791.95549
  -1902375.56648  -1482369.97746         0.00041  22197704.24846  22197701.21848
  -1658224.83448  -1292120.48145         0.00041  23830607.35445  23830602.96948
   -172887.11249   -134716.52547         0.00041  20725915.28147  20725914.06549
    580901.99349    452650.71147         0.00041  20307761.55147  20307759.36949
   -647162.38848   -504282.54944         0.00041  24467509.87244  24467506.61448
   2326321.35747   1812717.94044         0.00041  24952713.24144  24952713.24147
 96 10 13 00 28 30.0000000  0  7 22 18 19 29 14 04 15
   -192516.53549   -150012.06346         0.00041  21083386.61946  21083384.72049
  -1971984.60248  -1536610.75946         0.00041  22184458.13546  22184455.27548
  -1742792.69448  -1358017.42745         0.00041  23814514.92945  23814510.21448
   -175083.32249   -136427.84647         0.00041  20725497.46847  20725496.29649
    610884.68749    476013.84147         0.00041  20313467.10247  20313464.91949
   -661137.02048   -515171.87644         0.00041  24464851.00144  24464847.78548
   2424494.23547   1889216.28744         0.00041  24971395.13444  24971395.13447
 96 10 13 00 29 00.0000000  0  7 22 18 19 29 14 04 15
   -188834.98849   -147143.31846         0.00041  21084087.02146  21084085.41649
  -2041553.01149  -1590819.88346         0.00041  22171219.95146  22171217.15849
  -1827239.73748  -1423820.23245         0.00041  23798445.70845  23798440.83648
   -177102.80649   -138001.46247         0.00041  20725113.09947  20725111.86249
    641386.46149    499781.45047         0.00041  20319271.41147  20319269.20949
   -674687.83948   -525730.94544         0.00041  24462272.90644  24462268.65748
   2522468.34147   1965559.74744         0.00041  24990039.09344  24990039.09347
 96 10 13 00 29 30.0000000  0  7 22 18 19 29 14 04 15
   -186537.42149   -145352.99646         0.00041  21084524.50246  21084522.48249
  -2113055.77248  -1646536.29946         0.00041  22157612.41146  22157610.18248
  -1913509.59648  -1491043.40545         0.00041  23782027.30245  23782023.46048
   -180912.24749   -140969.84947         0.00041  20724388.37847  20724386.99949
    670448.35849    522427.07947         0.00041  20324801.76147  20324799.31649
   -689780.29948   -537491.30944         0.00041  24459398.87444  24459396.82648
   2618281.72747   2040219.52844         0.00041  25008272.32044  25008272.32047
 96 10 13 00 30 00.0000000  0  7 22 18 19 29 14 04 15
   -188926.41349   -147214.53346         0.00041  21084070.06246  21084068.03549
  -2189797.93848  -1706335.37046         0.00041  22143008.51846  22143006.13648
  -2004883.05448  -1562243.41745         0.00041  23764640.79445  23764635.75648
   -189811.05549   -147903.98047         0.00041  20722694.85747  20722693.54449
    694762.56449    541373.20747         0.00041  20329428.69447  20329426.14849
   -709715.32148   -553025.15044         0.00041  24455607.65744  24455603.17948
   2708630.82947   2110621.42544         0.00041  25025464.30444  25025464.30447
 96 10 13 00 30 30.0000000  0  7 18 22 19 29 14 04 15
  -2269427.98448  -1768384.73246         0.00041  22127856.38946  22127853.35248
   -193656.37849   -150900.20846         0.00041  21083169.82146  21083167.89749
  -2099015.02448  -1635592.94445         0.00041  23746726.56945  23746722.38748
   -201444.59149   -156969.06147         0.00041  20720481.22347  20720479.66449
    716657.09049    558433.87147         0.00041  20333595.19147  20333592.67049
   -732122.57548   -570485.33044         0.00041  24451342.31244  24451339.52348
   2795858.29347   2178590.87844         0.00041  25042063.11444  25042063.11447
 96 10 13 00 31 00.0000000  0  6 18 22 19 04 29 14
  -2351406.72949  -1832264.24546         0.00041  22112255.87146  22112253.48449
   -200191.19849   -155992.26246         0.00041  21081925.91446  21081924.07249
  -2195378.76948  -1710681.49345         0.00041  23728388.40945  23728385.67748
   -756441.17148   -589434.90444         0.00041  24446714.80044  24446711.55248
   -215275.01849   -167746.00847         0.00041  20717849.25947  20717847.86249
    736664.82349    574024.30547         0.00041  20337402.47747  20337400.20149
 96 10 13 00 31 30.0000000  0  6 18 22 19 04 29 14
  -2432952.45249  -1895806.34446         0.00041  22096738.40846  22096736.22349
   -205765.41149   -160335.78846         0.00041  21080865.35546  21080863.41549
  -2291197.51848  -1785345.37845         0.00041  23710157.35345  23710152.09648
   -779895.74148   -607711.17844         0.00041  24442252.29744  24442248.23448
   -228527.06749   -178072.27247         0.00041  20715327.53847  20715326.03949
    757573.98749    590317.15547         0.00041  20341381.28947  20341378.92149
 96 10 13 00 32 00.0000000  0  6 18 22 19 29 14 04
  -2514158.13749  -1959083.48246         0.00041  22081285.33046  22081282.74049
   -210501.77549   -164026.45046         0.00041  21079964.25146  21079962.23749
  -2386581.44948  -1859670.44545         0.00041  23692004.38645  23692001.07148
   -241312.57549   -188035.00547         0.00041  20712894.39947  20712893.11849
    779276.00549    607227.81247         0.00041  20345511.14247  20345508.84949
   -802599.02148   -625402.05845         0.00041  24437932.35945  24437928.46748
 96 10 13 00 32 30.0000000  0  7 18 22 19 29 14 04 15
  -2594498.33049  -2021686.20146         0.00041  22065997.38346  22065994.65449
   -213888.10949   -166665.13546         0.00041  21079319.68146  21079318.05549
  -2481029.30748  -1933266.10545         0.00041  23674032.56345  23674028.33948
   -253139.87949   -197251.08747         0.00041  20710643.81247  20710642.40249
    802283.09549    625155.40547         0.00041  20349889.25047  20349886.85949
   -824042.09948   -642110.94444         0.00041  24433850.73644  24433847.77248
        -0.47557        -0.37054         0.00051  25106733.16754  25106733.16757
 96 10 13 00 33 00.0000000  0  7 18 22 19 29 14 04 15
  -2673883.17949  -2083544.50546         0.00041  22050890.58846  22050888.44449
   -215823.97449   -168173.59046         0.00041  21078951.38546  21078949.44249
  -2574449.47348  -2006060.96845         0.00041  23656255.76045  23656251.66448
   -263928.64849   -205657.92147         0.00041  20708590.71847  20708589.52749
    826685.02949    644169.89647         0.00041  20354532.78647  20354530.35049
   -844156.43448   -657784.42645         0.00041  24430025.46745  24430020.39748
     86151.15547     67130.77044         0.00041  25123126.55844  25123126.55847
 96 10 13 00 33 30.0000000  0  7 18 22 19 29 14 04 15
  -2750577.02149  -2143305.91246         0.00041  22036296.22446  22036293.68149
   -214563.26549   -167191.20846         0.00041  21079191.33646  21079189.03849
  -2665103.78448  -2076700.63745         0.00041  23639003.66245  23639000.23148
   -271954.56349   -211911.87947         0.00041  20707063.37947  20707062.07449
    854197.93749    665608.52247         0.00041  20359768.43547  20359765.72749
   -861228.46148   -671087.29945         0.00041  24426777.60145  24426771.76748
    174705.51448    136134.16744         0.00041  25139979.05744  25139979.05748
 96 10 13 00 34 00.0000000  0  6 18 22 19 04 29 14
  -2818676.32449  -2196370.28846         0.00041  22023337.37846  22023335.13049
   -204195.06849   -159112.08846         0.00041  21081164.28646  21081162.13849
  -2747099.87948  -2140593.62545         0.00041  23623400.14945  23623396.93048
   -869355.85648   -677420.37445         0.00041  24425229.52245  24425225.70748
   -271318.10849   -211415.93547         0.00041  20707184.41847  20707183.27749
    890707.92649    694057.86247         0.00041  20366716.11347  20366713.47649
 96 10 13 00 34 30.0000000  0  6 18 22 19 04 29 14
  -2882743.24349  -2246292.53546         0.00041  22011145.60246  22011143.16349
   -189276.47249   -147487.19346         0.00041  21084003.27446  21084001.18149
  -2825015.49048  -2201307.02745         0.00041  23608573.94645  23608570.16348
   -873083.57348   -680325.08445         0.00041  24424517.99045  24424515.85048
   -266567.46349   -207714.13047         0.00041  20708088.56547  20708087.16549
    931657.47949    725966.60047         0.00041  20374508.48247  20374505.88849
 96 10 13 00 35 00.0000000  0  6 18 22 19 04 29 14
  -2936484.94049  -2288169.16346         0.00041  22000918.96946  22000916.79649
   -163514.43949   -127412.87646         0.00041  21088905.56246  21088903.39449
  -2892560.63548  -2253939.55745         0.00041  23595720.48645  23595716.24048
   -866100.49448   -674883.75845         0.00041  24425848.45845  24425845.20348
   -251378.41549   -195878.50747         0.00041  20710978.99447  20710977.68149
    983344.70749    766242.36047         0.00041  20384344.02547  20384341.68449
 96 10 13 00 35 30.0000000  0  6 18 22 19 04 29 14
  -2986739.52149  -2327328.55646         0.00041  21991356.06246  21991353.65049
   -133763.03049   -104229.94746         0.00041  21094567.15346  21094565.18549
  -2956578.18548  -2303823.31245         0.00041  23583537.60445  23583533.96648
   -855218.41548   -666404.24545         0.00041  24427918.08645  24427916.05748
   -232593.71149   -181241.07147         0.00041  20714553.61847  20714552.42949
   1038933.45949    809558.26347         0.00041  20394922.25747  20394919.97749
 96 10 13 00 36 00.0000000  0  6 18 22 19 04 29 14
  -3040558.07649  -2369265.06546         0.00041  21981115.20446  21981112.25649
   -107086.32549    -83442.88946         0.00041  21099643.28346  21099641.48349
  -3024108.91848  -2356444.61445         0.00041  23570687.15045  23570683.54148
   -847472.96948   -660368.83745         0.00041  24429391.76245  24429389.67248
   -217256.72049   -169290.16347         0.00041  20717472.05647  20717470.75449
   1091386.96749    850431.11647         0.00041  20404903.90547  20404901.58149
 96 10 13 00 36 30.0000000  0  6 18 22 19 04 29 14
  -3097822.75949  -2413886.87646         0.00041  21970217.69346  21970214.94749
    -83380.06049    -64970.46246         0.00041  21104154.40546  21104152.72849
  -3095012.88448  -2411694.39045         0.00041  23557194.39845  23557190.82148
   -842760.58748   -656696.85745         0.00041  24430289.18345  24430286.35748
   -205242.24749   -159928.22947         0.00041  20719758.29047  20719757.12749
   1140816.83949    888947.88647         0.00041  20414310.35647  20414307.79349
 96 10 13 00 37 00.0000000  0  6 18 22 19 04 29 14
  -3157894.77249  -2460696.21546         0.00041  21958786.42046  21958783.81749
    -62000.73449    -48311.23346         0.00041  21108222.61146  21108220.96249
  -3168616.81648  -2469048.05145         0.00041  23543187.57745  23543183.27448
   -840453.05448   -654898.83345         0.00041  24430727.05245  24430725.46048
   -195914.49649   -152659.84447         0.00041  20721533.24747  20721532.00149
   1187862.93049    925607.16747         0.00041  20423262.91647  20423260.19349
 96 10 13 00 37 30.0000000  0  6 18 22 19 04 29 14
  -3220033.22949  -2509115.76846         0.00041  21946961.78146  21946958.73049
    -42216.00349    -32894.54546         0.00041  21111987.32746  21111985.79749
  -3244176.32748  -2527925.54445         0.00041  23528809.49645  23528805.92448
   -839838.48748   -654419.91144         0.00041  24430845.27744  24430842.42148
   -188548.96049   -146920.46347         0.00041  20722934.83947  20722933.62449
   1233260.45549    960981.85847         0.00041  20431901.79747  20431898.96849
 96 10 13 00 38 00.0000000  0  6 18 22 19 04 29 14
  -3283551.47349  -2558610.47846         0.00041  21934873.73046  21934871.66849
    -23327.23449    -18176.01546         0.00041  21115582.06346  21115580.04849
  -3321013.36548  -2587798.49645         0.00041  23514188.98745  23514184.54248
   -840255.52948   -654744.88844         0.00041  24430766.52844  24430763.49148
   -182445.00549   -142164.12447         0.00041  20724096.38347  20724095.37449
   1277707.88049    995616.21747         0.00041  20440359.83447  20440357.15649
 96 10 13 00 38 30.0000000  0  6 18 22 19 04 29 14
  -3348075.02449  -2608888.55046         0.00041  21922596.00846  21922593.20849
     -4935.87649     -3845.07446         0.00041  21119081.94046  21119079.98549
  -3398755.90748  -2648377.06945         0.00041  23499394.57045  23499390.52548
   -841320.93848   -655575.06844         0.00041  24430564.11244  24430560.49448
   -177221.45849   -138093.82147         0.00041  20725090.26947  20725089.08949
   1321598.25349   1029816.50747         0.00041  20448711.93147  20448709.24949
 96 10 13 00 39 00.0000000  0  6 18 22 19 04 29 14
  -3413283.26249  -2659700.13946         0.00041  21910187.12446  21910184.71449
     13304.61149     10368.30546         0.00041  21122552.98446  21122551.08149
  -3477100.82648  -2709425.00345         0.00041  23484486.03545  23484481.55648
   -842689.16048   -656641.23644         0.00041  24430303.35444  24430300.21048
   -172559.82049   -134461.37147         0.00041  20725977.40747  20725976.47349
   1365271.51349   1063847.61147         0.00041  20457022.71147  20457020.12449
 96 10 13 00 39 30.0000000  0  6 18 22 19 04 29 14
  -3479122.60549  -2711003.49646         0.00041  21897658.94446  21897655.74549
     31457.57449     24513.48046         0.00041  21126007.21846  21126005.26949
  -3556004.44648  -2770908.30245         0.00041  23469469.88745  23469466.56148
   -844293.70048   -657891.54344         0.00041  24429996.02444  24429995.11548
   -168400.06849   -131219.99347         0.00041  20726769.10647  20726768.06349
   1408789.84249   1097757.98747         0.00041  20465304.00247  20465301.41349
 96 10 13 00 40 00.0000000  0  6 18 22 19 04 29 14
  -3545229.99949  -2762515.72146         0.00041  21885078.96546  21885075.88549
     49896.08549     38881.16546         0.00041  21129516.19746  21129514.06949
  -3635086.78748  -2832530.84045         0.00041  23454421.39745  23454417.51448
   -845750.06548   -659026.34744         0.00041  24429720.55044  24429717.52448
   -164374.50249   -128083.18347         0.00041  20727535.21847  20727533.93249
   1452517.89549   1131831.78747         0.00041  20473625.01147  20473622.53549
 96 10 13 00 40 30.0000000  0  6 18 22 19 04 29 14
  -3611490.03549  -2814146.89646         0.00041  21872470.19746  21872467.49449
     68709.13149     53540.69746         0.00041  21133095.93846  21133094.15949
  -3714230.82648  -2894201.46145         0.00041  23439360.73445  23439357.55948
   -846947.15048   -659958.81844         0.00041  24429489.79744  24429489.79748
   -160388.24049   -124977.00247         0.00041  20728293.75447  20728292.64249
   1496535.78049   1166131.42547         0.00041  20482001.36947  20481998.99949
 96 10 13 00 41 00.0000000  0  6 18 22 19 04 29 14
  -3677804.98349  -2865820.86546         0.00041  21859850.54046  21859847.96149
     87953.54849     68536.35546         0.00041  21136758.49046  21136756.32349
  -3793347.06048  -2955850.40445         0.00041  23424304.22945  23424301.16448
   -847813.03548   -660633.92644         0.00041  24429327.67244  24429324.67648
   -156351.32449   -121831.35447         0.00041  20729061.80447  20729060.66149
   1540903.53049   1200703.68847         0.00041  20490444.18447  20490441.86049
 96 10 13 00 41 30.0000000  0  6 18 22 19 04 29 14
  -3744201.59249  -2917558.45846         0.00041  21847215.25446  21847213.06749
    107567.42649     83819.91046         0.00041  21140490.39546  21140488.48049
  -3872455.59948  -3017493.37245         0.00041  23409252.15645  23409247.51148
   -848397.02648   -661088.99144         0.00041  24429218.44744  24429213.86048
   -152288.78449   -118665.73847         0.00041  20729834.93347  20729833.74649
   1585571.49949   1235509.89447         0.00041  20498944.24747  20498941.76349
 96 10 13 00 42 00.0000000  0  6 18 19 22 04 29 14
  -3810514.15149  -2969230.55246         0.00041  21834597.09746  21834594.17949
  -3951404.39848  -3079011.86345         0.00041  23394227.60645  23394224.87348
    127700.59249     99508.10846         0.00041  21144321.58846  21144319.75349
   -848539.70448   -661200.19644         0.00041  24429190.81144  24429187.04848
   -148032.55849   -115349.19647         0.00041  20730644.93147  20730643.80749
   1630686.76149   1270664.64847         0.00041  20507529.29547  20507526.83549
 96 10 13 00 42 30.0000000  0  6 18 19 22 04 29 14
  -3876713.18649  -3020814.18346         0.00041  21821999.58846  21821997.09149
  -4030169.84948  -3140387.47345         0.00041  23379239.55845  23379235.40748
    148384.41949    115625.38446         0.00041  21148257.84746  21148255.60349
   -848204.77548   -660939.27244         0.00041  24429253.39744  24429250.22348
   -143543.97849   -111851.58747         0.00041  20731498.94547  20731497.97249
   1676295.05049   1306203.57947         0.00041  20516208.31747  20516205.89649
 96 10 13 00 43 00.0000000  0  6 18 19 22 04 29 14
  -3942794.70649  -3072306.25346         0.00041  21809424.09546  21809421.67449
  -4108724.87248  -3201599.13545         0.00041  23364290.29245  23364286.83348
    169658.56349    132202.64646         0.00041  21152306.14546  21152303.87849
   -847355.67448   -660277.66944         0.00041  24429413.47044  24429412.10648
   -138794.14849   -108150.40647         0.00041  20732402.92747  20732401.83249
   1722435.73649   1342157.36647         0.00041  20524988.48747  20524986.03849
 96 10 13 00 43 30.0000000  0  6 18 19 22 04 29 14
  -4008784.25749  -3123726.65046         0.00041  21796867.70146  21796864.68849
  -4187095.88848  -3262667.39945         0.00041  23349377.06745  23349373.74048
    191538.16049    149251.69746         0.00041  21156469.49746  21156467.63049
   -846006.13948   -659226.05345         0.00041  24429672.70045  24429669.51448
   -133804.86649   -104262.64147         0.00041  20733352.44847  20733351.30849
   1769102.38049   1378520.98247         0.00041  20533869.07147  20533866.49149
 96 10 13 00 44 00.0000000  0  6 18 19 22 04 29 14
  -4074746.69149  -3175125.92646         0.00041  21784314.67246  21784312.38849
  -4265359.82348  -3323652.23046         0.00041  23334484.65346  23334480.91848
    213977.89349    166737.21646         0.00041  21160739.71846  21160737.59949
   -844222.58548   -657836.27645         0.00041  24430008.53545  24430008.13748
   -128656.67149   -100251.05747         0.00041  20734332.01547  20734330.82149
   1816241.63449   1415252.86747         0.00041  20542839.44347  20542836.54049
 96 10 13 00 44 30.0000000  0  6 18 19 22 04 29 14
  -4140647.13949  -3226476.89246         0.00041  21771774.75846  21771771.80049
  -4343476.79248  -3384522.52646         0.00041  23319618.16046  23319615.65148
    237001.11549    184677.40146         0.00041  21165120.69146  21165118.64349
   -841986.98948   -656094.23845         0.00041  24430436.19245  24430433.92848
   -123331.35449    -96101.45647         0.00041  20735345.44147  20735344.20249
   1863882.14149   1452375.33547         0.00041  20551905.15247  20551902.37249
 96 10 13 00 45 00.0000000  0  6 18 19 22 04 29 14
  -4206473.66749  -3277770.26546         0.00041  21759247.45946  21759245.27849
  -4421451.96548  -3445282.33445         0.00041  23304780.37345  23304777.21648
    260608.99549    203073.16146         0.00041  21169613.16546  21169611.38749
   -839313.99848   -654011.33345         0.00041  24430942.97545  24430942.16648
   -117823.61749    -91809.69747         0.00041  20736393.60347  20736392.34349
   1911999.66649   1489869.50747         0.00041  20561061.73447  20561058.83049
 96 10 13 00 45 30.0000000  0  6 18 19 22 04 29 14
  -4272184.79449  -3328973.71846         0.00041  21746743.63946  21746740.90349
  -4499285.67248  -3505931.92245         0.00041  23289969.07645  23289965.52848
    284803.28449    221925.86846         0.00041  21174217.49946  21174215.43549
   -836204.94048   -651587.26744         0.00041  24431534.21544  24431533.29948
   -112119.80949    -87365.16847         0.00041  20737478.87947  20737477.58049
   1960611.06049   1527748.50847         0.00041  20570312.16147  20570309.31649
 96 10 13 00 46 00.0000000  0  6 19 18 22 04 29 14
  -4576982.25048  -3566474.64745         0.00041  23275183.30745  23275180.08948
  -4337781.52249  -3380088.02146         0.00041  21734260.99246  21734257.96249
    309536.41749    241198.45046         0.00041  21178923.96146  21178922.09949
   -832670.53548   -648829.61645         0.00041  24432207.22445  24432206.51848
   -106234.65149    -82779.33547         0.00041  20738598.76647  20738597.65349
   2009699.81849   1565999.47847         0.00041  20579653.29747  20579650.65149
 96 10 13 00 46 30.0000000  0  6 18 19 22 04 29 14
  -4403248.00249  -3431100.84446         0.00041  21721802.97046  21721800.41649
  -4654514.69148  -3626889.48545         0.00041  23260430.23845  23260426.48448
    334817.41349    260897.94646         0.00041  21183734.71546  21183732.81449
   -828691.07548   -645722.18245         0.00041  24432964.83345  24432963.24248
   -100135.51449    -78026.76047         0.00041  20739759.46847  20739758.30549
   2059274.50749   1604629.09247         0.00041  20589086.90247  20589084.51649
 96 10 13 00 47 00.0000000  0  6 19 18 22 04 29 14
  -4731854.34148  -3687154.09445         0.00041  23245713.43045  23245709.25848
  -4468558.04049  -3481991.75946         0.00041  21709374.75546  21709372.44049
    360697.78449    281064.47746         0.00041  21188659.63046  21188657.51449
   -824234.70948   -642242.57945         0.00041  24433810.58945  24433810.11448
    -93789.65949    -73081.93247         0.00041  20740966.90447  20740965.80249
   2109378.26049   1643670.96347         0.00041  20598621.21947  20598618.91949
 96 10 13 00 47 30.0000000  0  6 18 19 22 04 29 14
  -4533693.57649  -3532746.69846         0.00041  21696979.82046  21696977.50349
  -4808965.72848  -3747240.83245         0.00041  23231040.20145  23231035.18948
    387185.30749    301704.11746         0.00041  21193699.88046  21193698.13849
   -819275.62748   -638372.86245         0.00041  24434755.91445  24434754.80148
    -87187.65049    -67937.50147         0.00041  20742223.15447  20742222.05449
   2160044.30749   1683150.98447         0.00041  20608262.66747  20608260.28549
 96 10 13 00 48 00.0000000  0  6 19 18 22 04 29 14
  -4885794.34348  -3807107.23245         0.00041  23216418.58445  23216415.55048
  -4598644.21449  -3583357.56446         0.00041  21684620.36546  21684617.61849
    414311.84149    322841.68746         0.00041  21198861.74046  21198859.90149
   -813786.69048   -634092.60745         0.00041  24435801.12645  24435799.61648
    -80302.55349    -62572.48247         0.00041  20743533.53147  20743532.15649
   2211282.54249   1723076.87347         0.00041  20618013.00247  20618010.65849
 96 10 13 00 48 30.0000000  0  6 19 18 22 04 29 14
  -4962401.96248  -3866801.42345         0.00041  23201840.27745  23201837.07048
  -4663489.93949  -3633886.67846         0.00041  21672280.70446  21672277.84749
    442040.50849    344448.45246         0.00041  21204138.16346  21204136.36249
   -807831.35848   -629452.99445         0.00041  24436933.79845  24436932.47748
    -73195.46849    -57034.48847         0.00041  20744885.93447  20744884.69349
   2263036.58149   1763404.68747         0.00041  20627861.69447  20627859.04149
 96 10 13 00 49 00.0000000  0  6 19 18 22 04 29 14
  -5038765.84048  -3926305.68445         0.00041  23187309.52845  23187305.93148
  -4728200.83549  -3684310.73646         0.00041  21659966.41946  21659963.77149
    470386.26449    366536.07146         0.00041  21209532.34346  21209530.63649
   -801385.99348   -624431.44646         0.00041  24438161.17146  24438159.61348
    -65844.21249    -51306.23047         0.00041  20746284.70847  20746283.54949
   2315328.62249   1804151.73047         0.00041  20637812.65747  20637809.97149
 96 10 13 00 49 30.0000000  0  6 19 18 22 04 29 14
  -5114858.48948  -3985598.60445         0.00041  23172829.91545  23172825.38648
  -4792747.69649  -3734606.97246         0.00041  21647683.18746  21647680.93849
    499364.68849    389116.67446         0.00041  21215046.62946  21215044.79249
   -794415.11048   -619007.11146         0.00041  24439486.80046  24439485.86548
    -58216.91149    -45362.87047         0.00041  20747736.08547  20747734.95049
   2368176.86649   1845332.17747         0.00041  20647869.00747  20647866.57749
 96 10 13 00 50 00.0000000  0  6 19 18 22 04 29 14
  -5190719.39748  -4044710.94445         0.00041  23158393.34945  23158388.69148
  -4857154.46549  -3784794.04046         0.00041  21635427.21946  21635425.24349
    528960.34449    412178.23746         0.00041  21220678.21546  21220676.46449
   -786951.73948   -613206.53546         0.00041  24440906.97546  24440905.91548
    -50327.29449    -39215.10647         0.00041  20749237.52847  20749236.39649
   2421555.30849   1886925.77047         0.00041  20658026.93347  20658024.49249
 96 10 13 00 50 30.0000000  0  6 19 18 22 04 29 14
  -5266400.97648  -4103683.53945         0.00041  23143991.57745  23143987.42148
  -4921438.64049  -3834885.58346         0.00041  21623193.98246  21623191.95749
    559145.33749    435699.02546         0.00041  21226422.45846  21226420.66249
   -779026.17548   -607059.82947         0.00041  24442415.79547  24442414.58648
    -42193.62749    -32877.18147         0.00041  20750785.43747  20750784.25749
   2475444.45649   1928917.31447         0.00041  20668281.39347  20668279.15049
 96 10 13 00 51 00.0000000  0  6 19 18 22 04 29 14
  -5341895.93648  -4162510.73545         0.00041  23129624.44045  23129621.21848
  -4985579.84549  -3884865.71346         0.00041  21610988.85746  21610986.29449
    589910.31049    459671.74546         0.00041  21232276.89946  21232275.31849
   -770641.56148   -600527.19047         0.00041  24444010.95547  24444009.69748
    -33805.16049    -26340.71747         0.00041  20752381.54347  20752380.33649
   2529834.63949   1971299.27747         0.00041  20678631.68347  20678629.30649
 96 10 13 00 51 30.0000000  0  6 19 18 22 04 29 14
  -5417184.97448  -4221177.45945         0.00041  23115297.29545  23115293.86148
  -5049564.95649  -3934724.21846         0.00041  21598812.49046  21598810.18549
    621287.85949    484121.79446         0.00041  21238248.22346  21238246.28949
   -761771.27848   -593592.37546         0.00041  24445698.71646  24445697.64248
    -25141.99249    -19590.19347         0.00041  20754030.04647  20754028.90249
   2584737.37249   2014080.63047         0.00041  20689079.18547  20689076.87149
 96 10 13 00 52 00.0000000  0  6 19 18 22 04 29 14
  -5492334.04248  -4279735.12045         0.00041  23100997.15545  23100994.03648
  -5113456.43849  -3984509.77346         0.00041  21586654.62346  21586651.63149
    653200.90049    508989.11646         0.00041  21244320.75646  21244318.98049
   -752488.48848   -586344.38246         0.00041  24447464.68546  24447463.59548
    -16263.17849    -12671.61947         0.00041  20755719.58047  20755718.57249
   2640085.78349   2057209.26447         0.00041  20699611.64247  20699609.26349
 96 10 13 00 52 30.0000000  0  6 19 18 22 04 29 14
  -5567341.08548  -4338182.10345         0.00041  23086723.50145  23086721.04548
  -5177264.96949  -4034230.67746         0.00041  21574512.20046  21574509.10749
    685641.40649    534267.44746         0.00041  21250494.14346  21250492.26849
   -742785.46448   -578777.24045         0.00041  24449312.08545  24449310.99548
     -7176.23449     -5590.87047         0.00041  20757448.81347  20757447.75149
   2695873.11549   2100679.91347         0.00041  20710227.70947  20710225.27049
 96 10 13 00 53 00.0000000  0  6 19 18 22 04 29 14
  -5642108.37948  -4396442.26945         0.00041  23072495.89245  23072493.03248
  -5240902.63649  -4083818.44446         0.00041  21562402.21846  21562399.78649
    718700.04149    560027.43746         0.00041  21256784.70946  21256783.10849
   -732558.71048   -570808.94445         0.00041  24451257.39845  24451257.00448
      2196.48249      1712.55647         0.00041  20759232.49647  20759231.29849
   2752191.40249   2144564.28947         0.00041  20720944.67747  20720942.21149
 96 10 13 00 53 30.0000000  0  6 19 18 22 04 29 14
  -5716650.94348  -4454527.33345         0.00041  23058311.37445  23058307.73248
  -5304381.48049  -4133282.45746         0.00041  21550322.53646  21550320.43349
    752364.21949    586259.28146         0.00041  21263190.92146  21263189.08649
   -721817.90448   -562439.59244         0.00041  24453299.62844  24453300.74748
     11845.82249      9231.53147         0.00041  20761068.72347  20761067.49749
   2809042.60949   2188863.92347         0.00041  20731763.08047  20731760.57249
 96 10 13 00 54 00.0000000  0  6 19 18 22 04 29 14
  -5790959.45948  -4512430.02745         0.00041  23044170.77245  23044166.77448
  -5367679.33449  -4182605.43446         0.00041  21538276.85446  21538274.94449
    786642.46349    612969.61646         0.00041  21269713.85446  21269712.14649
   -710562.26248   -553684.87944         0.00041  24455443.07344  24455443.07348
     21784.57749     16976.02847         0.00041  20762959.82647  20762958.74249
   2866456.06649   2233601.67347         0.00041  20742688.46347  20742686.05449
 96 10 13 00 54 30.0000000  0  6 19 18 22 04 29 14
  -5865057.43048  -4570168.66145         0.00041  23030071.68545  23030066.44248
  -5430812.78349  -4231800.30546         0.00041  21526263.14746  21526261.06049
    821535.94849    640159.36246         0.00041  21276353.78646  21276351.99849
   -698811.47348   -544528.42144         0.00041  24457679.25744  24457679.25748
     31989.55949     24927.96947         0.00041  20764901.81647  20764900.81249
   2924404.29549   2278756.13447         0.00041  20753715.66747  20753713.22749
 96 10 13 00 55 00.0000000  0  6 19 18 22 04 29 14
  -5938996.74848  -4627783.67045         0.00041  23016000.39145  23015996.01648
  -5493836.67549  -4280909.80846         0.00041  21514270.31746  21514267.98349
    856985.26549    667782.22546         0.00041  21283099.55146  21283097.87549
   -686637.51748   -535042.22144         0.00041  24459995.36344  24459995.36348
     42397.39749     33037.98447         0.00041  20766882.20747  20766881.21949
   2982815.49349   2324271.34947         0.00041  20764831.08147  20764828.67049
 96 10 13 00 55 30.0000000  0  6 19 18 22 04 29 14
  -6012749.09448  -4685252.99046         0.00041  23001965.82446  23001962.28048
  -5556722.92249  -4329912.05646         0.00041  21502303.81246  21502301.07549
    893005.30249    695849.80546         0.00041  21289953.78546  21289952.17749
   -674030.59948   -525202.95844         0.00041  24462396.64844  24462394.77548
     53046.52849     41336.01947         0.00041  20768908.70847  20768907.57449
   3041702.52449   2370157.34447         0.00041  20776036.93747  20776034.35449
 96 10 13 00 56 00.0000000  0  6 19 18 22 04 29 14
  -6086272.13348  -4742543.61746         0.00041  22987974.44046  22987970.45648
  -5619429.57249  -4378774.35146         0.00041  21490370.73346  21490368.36749
    929635.52249    724392.85046         0.00041  21296924.32246  21296922.47349
   -660959.23748   -515017.87744         0.00041  24464883.99244  24464881.88748
     63966.59949     49845.17247         0.00041  20770986.74647  20770985.62549
   3101090.33049   2416433.55147         0.00041  20787337.93247  20787335.44849
 96 10 13 00 56 30.0000000  0  6 19 18 22 04 29 14
  -6159570.45648  -4799659.13746         0.00041  22974026.60046  22974022.80248
  -5681982.12949  -4427516.58546         0.00041  21478467.38046  21478465.43649
    966844.56449    753386.93146         0.00041  21304004.62046  21304003.36949
   -647438.24848   -504482.02144         0.00041  24467458.11944  24467455.03948
     75134.75949     58547.64047         0.00041  20773111.91347  20773110.91449
   3160949.07549   2463076.72747         0.00041  20798728.74647  20798726.18149
 96 10 13 00 57 00.0000000  0  6 19 18 22 04 29 14
  -6232631.36448  -4856589.65646         0.00041  22960123.03246  22960120.19348
  -5744370.01949  -4476130.50846         0.00041  21466594.83546  21466592.97149
   1004611.77349    782815.94546         0.00041  21311192.06646  21311190.33849
   -633460.31748   -493590.13545         0.00041  24470116.65245  24470115.40048
     86551.46349     67443.77947         0.00041  20775284.45347  20775283.43949
   3221286.99449   2510093.28347         0.00041  20810210.68447  20810207.89049
 96 10 13 00 57 30.0000000  0  5 19 18 22 29 14
  -6305492.97848  -4913364.88746         0.00041  22946258.23146  22946254.72848
  -5806604.99749  -4524625.27146         0.00041  21454752.46246  21454750.35249
   1042904.95549    812654.80246         0.00041  21318478.79846  21318477.02949
     98201.73749     76521.92047         0.00041  20777501.28047  20777500.49249
   3282095.85249   2557476.80647         0.00041  20821782.30247  20821779.49849
 96 10 13 00 58 00.0000000  0  5 19 18 22 29 14
  -6378168.88648  -4969995.41946         0.00041  22932428.53346  22932425.10248
  -5868699.10949  -4573010.26846         0.00041  21442935.95746  21442934.15249
   1081721.70049    842901.63246         0.00041  21325865.16546  21325863.54949
    110072.42149     85771.81647         0.00041  20779760.22447  20779759.30049
   3343374.88349   2605226.69847         0.00041  20833443.34247  20833440.50649
 96 10 13 00 58 30.0000000  0  5 19 18 22 29 14
  -6450632.52048  -5026460.55246         0.00041  22918638.74946  22918634.94448
  -5930620.87849  -4621260.97646         0.00041  21431152.81146  21431150.66449
   1121091.83249    873579.67246         0.00041  21333356.96346  21333355.28649
    122211.66149     95230.97847         0.00041  20782070.35247  20782069.30449
   3405160.72449   2653371.50447         0.00041  20845200.63647  20845198.01349
 96 10 13 00 59 00.0000000  0  5 19 18 22 29 14
  -6522893.38148  -5082767.68746         0.00041  22904888.31646  22904884.47048
  -5992353.80649  -4669364.53646         0.00041  21419405.64146  21419403.41749
   1161033.57649    904703.12346         0.00041  21340957.69246  21340955.94749
    134632.66149    104909.68647         0.00041  20784434.09647  20784432.95549
   3467457.42549   2701914.38547         0.00041  20857055.46847  20857052.86749
 96 10 13 00 59 30.0000000  0  5 19 18 22 29 14
  -6594938.47648  -5138906.68346         0.00041  22891177.60946  22891174.42948
  -6053896.61249  -4717319.95046         0.00041  21407694.50246  21407691.73349
   1201574.15249    936293.19746         0.00041  21348672.48946  21348670.76449
    147351.58249    114820.53747         0.00041  20786854.16347  20786853.15749
   3530279.36149   2750866.53547         0.00041  20869010.04747  20869007.54949
 96 10 13 01 00 00.0000000  0  5 19 18 22 29 14
  -6666730.41748  -5194848.41246         0.00041  22877516.79446  22877513.65348
  -6115230.26649  -4765112.38846         0.00041  21396023.06846  21396020.59349
   1242747.32149    968376.19446         0.00041  21356507.25046  21356505.60149
    160394.48449    124983.85147         0.00041  20789336.28547  20789335.40449
   3593649.19449   2800245.61747         0.00041  20881069.00547  20881066.54649
 96 10 13 01 00 30.0000000  0  4 19 18 22 29
  -6738267.60248  -5250591.62046         0.00041  22863903.49246  22863900.41348
  -6176358.25749  -4812744.56746         0.00041  21384390.43646  21384388.18049
   1284547.10849   1000947.46646         0.00041  21364461.47146  21364459.89149
    173757.29549    135396.44047         0.00041  20791879.03047  20791878.08249
 96 10 13 01 01 00.0000000  0  5 19 18 22 16 29
  -6809520.27248  -5306113.12946         0.00041  22850345.15446  22850341.63848
  -6237264.11149  -4860203.64746         0.00041  21372800.46446  21372798.34349
   1327001.76749   1034029.03646         0.00041  21372540.25946  21372538.65649
        -0.11557        -0.09054         0.00051  25221921.37054  25221921.37057
    187448.48649    146064.90147         0.00041  20794484.24547  20794483.41049
 96 10 13 01 01 30.0000000  0  5 19 18 22 16 29
  -6880517.79448  -5361435.83146         0.00041  22836833.89346  22836830.63548
  -6297988.61349  -4907521.41546         0.00041  21361244.66746  21361242.72549
   1370064.12049   1067584.12846         0.00041  21380734.81246  21380733.05449
   -103478.45648    -80632.56344         0.00041  25202229.43244  25202229.43248
    201438.62449    156966.31247         0.00041  20797146.54047  20797145.57249
 96 10 13 01 02 00.0000000  0  5 19 18 22 16 29
  -6951296.29948  -5416587.87446         0.00041  22823365.83446  22823361.75548
  -6358556.37049  -4954717.04946         0.00041  21349718.67746  21349716.82049
   1413692.78849   1101580.50446         0.00041  21389036.85946  21389035.21849
   -206844.06248   -161177.19144         0.00041  25182558.33944  25182558.33948
    215695.90749    168075.89347         0.00041  20799859.82847  20799858.67949
 96 10 13 01 02 30.0000000  0  6 19 18 22 16 29 14
  -7021876.98348  -5471585.78446         0.00041  22809934.08746  22809930.89348
  -6418996.10149  -5001812.92146         0.00041  21338218.02546  21338215.55049
   1457845.40049   1135985.15246         0.00041  21397439.06746  21397437.51849
   -310128.05848   -241658.22744         0.00041  25162904.46944  25162904.46948
    230185.39049    179366.41447         0.00041  20802616.90047  20802615.85649
        -0.08259         0.42857         0.00051  20942896.60057  20942894.05259
 96 10 13 01 03 00.0000000  0  6 19 18 22 16 29 14
  -7092245.59748  -5526418.44346         0.00041  22796544.51546  22796539.52748
  -6479276.40249  -5048784.56246         0.00041  21326746.79946  21326744.64849
   1502521.85249   1170797.99446         0.00041  21405940.83246  21405938.99549
   -413318.52748   -322066.38544         0.00041  25143268.46644  25143268.46648
    244924.15649    190851.17847         0.00041  20805421.63747  20805420.61849
     66425.25549     51760.42047         0.00041  20955536.87947  20955534.44349
 96 10 13 01 03 30.0000000  0  6 19 18 22 16 29 14
  -7162399.75048  -5581083.96746         0.00041  22783193.84446  22783189.62748
  -6539381.48149  -5095619.66546         0.00041  21315309.29146  21315307.22349
   1547722.84949   1206019.56446         0.00041  21414542.40246  21414540.41349
   -516399.41447   -402389.15444         0.00041  25123652.52944  25123652.52947
    259935.88349    202548.63147         0.00041  20808278.31847  20808277.33349
    133298.17249    103869.17447         0.00041  20968262.40347  20968259.97649
 96 10 13 01 04 00.0000000  0  6 19 18 22 14 16 29
  -7232313.45548  -5635562.14646         0.00041  22769889.49046  22769886.29148
  -6599280.04549  -5142293.85046         0.00041  21303910.93046  21303908.85149
   1593476.70949   1241671.93246         0.00041  21423248.68546  21423247.17549
    200647.23949    156348.95747         0.00041  20981078.48647  20981076.02149
   -619349.95547   -482610.35544         0.00041  25104060.77044  25104060.77047
    275237.25149    214471.76947         0.00041  20811189.95947  20811189.14249
 96 10 13 01 04 30.0000000  0  5 19 18 22 14 29
  -7302024.44048  -5689882.36046         0.00041  22756623.78846  22756620.56948
  -6658996.81849  -5188826.37546         0.00041  21292546.83746  21292544.75749
   1639758.65049   1277735.80046         0.00041  21432056.17946  21432054.52249
    268443.81249    209177.44547         0.00041  20993979.79647  20993977.45849
    290796.79749    226596.08847         0.00041  20814150.88447  20814149.99149
 96 10 13 01 05 00.0000000  0  5 19 18 22 14 29
  -7371544.03948  -5744053.43346         0.00041  22743394.69546  22743391.43948
  -6718521.81949  -5235209.46846         0.00041  21281220.06746  21281217.82749
   1686592.18349   1314229.48246         0.00041  21440968.20046  21440966.41349
    336699.76849    262363.89647         0.00041  21006968.69147  21006966.08849
    306630.68149    238934.19247         0.00041  20817163.99947  20817163.16449
 96 10 13 01 05 30.0000000  0  5 19 18 22 14 29
  -7440879.96548  -5798081.37946         0.00041  22730200.37446  22730197.10348
  -6777863.06049  -5281449.36746         0.00041  21269927.73246  21269925.37349
   1733989.03549   1351162.10746         0.00041  21449987.42146  21449985.76149
    405423.83149    315915.10647         0.00041  21020046.42047  21020043.63149
    322732.00349    251480.69447         0.00041  20820227.87147  20820226.86749
 96 10 13 01 06 00.0000000  0  4 19 18 22 29
  -7509969.90648  -5851917.65246         0.00041  22717053.07846  22717049.50948
  -6836962.67349  -5327500.99046         0.00041  21258681.12146  21258679.13849
   1781998.71049   1388572.25246         0.00041  21459123.59346  21459121.82249
    339144.68449    264269.80847         0.00041  20823351.18747  20823350.12849
 96 10 13 01 06 30.0000000  0  4 19 18 22 29
  -7578827.82448  -5905573.12846         0.00041  22703950.48046  22703946.48148
  -6895848.00449  -5373385.63946         0.00041  21247475.72746  21247473.47649
   1830599.88849   1426443.32046         0.00041  21468371.74446  21468370.22449
    355857.39249    277292.71047         0.00041  20826531.41347  20826530.41849
 96 10 13 01 07 00.0000000  0  4 19 18 22 29
  -7647440.30148  -5959037.35646         0.00041  22690893.13446  22690889.28448
  -6954519.83049  -5419103.91646         0.00041  21236311.00746  21236308.64049
   1879787.73549   1464771.54046         0.00041  21477732.12346  21477730.20849
    372877.07349    290554.81347         0.00041  20829770.15947  20829769.17349
 96 10 13 01 07 30.0000000  0  4 19 18 22 29
  -7715775.96448  -6012285.88246         0.00041  22677889.47346  22677885.51048
  -7012968.46649  -5464648.28346         0.00041  21225188.44746  21225186.37949
   1929568.70149   1503561.91446         0.00041  21487205.00246  21487202.98749
    390210.39149    304061.30947         0.00041  20833068.63847  20833067.65449
 96 10 13 01 08 00.0000000  0  4 19 18 22 29
  -7783878.60048  -6065352.82846         0.00041  22664930.07746  22664926.46848
  -7071263.52149  -5510072.98246         0.00041  21214095.22746  21214092.90849
   1979877.66549   1542763.71646         0.00041  21496778.25646  21496776.63349
    407796.05849    317764.44447         0.00041  20836414.89247  20836414.11449
 96 10 13 01 08 30.0000000  0  5 19 18 22 16 29
  -7851752.05748  -6118241.19446         0.00041  22652013.89546  22652010.07948
  -7129402.79749  -5555376.29146         0.00041  21203031.62546  21203029.57149
   2030721.61849   1582382.39846         0.00041  21506453.64246  21506452.03349
        -0.60358        -0.47054         0.00051  24928851.42554  24928851.42558
    425639.86149    331668.71247         0.00041  20839810.52447  20839809.79049
 96 10 13 01 09 00.0000000  0  6 19 18 22 14 16 29
  -7919438.20448  -6170983.60046         0.00041  22639133.94046  22639130.89448
  -7187416.56349  -5600581.79646         0.00041  21191991.85246  21191989.91549
   2082060.04349   1622386.38946         0.00041  21516223.07546  21516221.15549
        -0.57459        -0.77657         0.00051  21114175.87757  21114173.25259
   -101593.75848    -79163.96844         0.00041  24909520.28444  24909520.28448
    443705.15549    345745.57647         0.00041  20843248.06247  20843247.38549
 96 10 13 01 09 30.0000000  0  6 19 18 22 14 16 29
  -7986981.82548  -6223614.95546         0.00041  22626280.11646  22626277.28548
  -7245332.54949  -5645711.11446         0.00041  21180970.80846  21180968.98449
   2133851.89249   1662743.68646         0.00041  21526078.70646  21526076.78049
     72328.87649     56359.83047         0.00041  21127939.52547  21127937.18249
   -203117.62548   -158272.36644         0.00041  24890199.88344  24890199.88348
    461959.22549    359969.53747         0.00041  20846721.65447  20846721.07849
 96 10 13 01 10 00.0000000  0  6 19 18 22 14 16 29
  -8054337.83548  -6276100.11346         0.00041  22613463.08046  22613459.55848
  -7303076.67049  -5690706.50946         0.00041  21169982.55546  21169980.85849
   2186156.95449   1703500.89146         0.00041  21536032.02846  21536030.36449
    145106.23649    113069.45247         0.00041  21141788.78247  21141786.12349
   -304503.26148   -237275.26944         0.00041  24870906.53044  24870906.53048
    480494.21949    374412.40347         0.00041  20850248.94447  20850248.37049
 96 10 13 01 10 30.0000000  0  6 19 18 22 14 16 29
  -8121567.14348  -6328486.54746         0.00041  22600669.38546  22600666.41948
  -7360684.15449  -5735595.43646         0.00041  21159020.20446  21159018.27349
   2238933.64649   1744625.60546         0.00041  21546074.92246  21546073.27849
    218285.91649    170092.57247         0.00041  21155714.49947  21155712.01949
   -405781.35648   -316193.26444         0.00041  24851635.00744  24851635.00748
    499283.62549    389053.50747         0.00041  20853824.37747  20853823.82749
 96 10 13 01 11 00.0000000  0  6 19 18 22 14 16 29
  -8188661.40348  -6380767.75346         0.00041  22587902.02146  22587898.99348
  -7418149.37249  -5780373.51446         0.00041  21148084.68946  21148083.03949
   2292178.51749   1786115.12646         0.00041  21556207.17746  21556205.46349
    291864.83849    227426.79047         0.00041  21169716.10647  21169713.46349
   -506949.51548   -395024.41544         0.00041  24832385.17544  24832385.17548
    518341.19749    403903.57347         0.00041  20857450.77147  20857450.17349
 96 10 13 01 11 30.0000000  0  6 19 18 22 14 16 29
  -8255584.58048  -6432915.63946         0.00041  22575166.81146  22575163.79648
  -7475434.29949  -5825011.10346         0.00041  21137183.83946  21137181.90249
   2345920.50949   1827992.02446         0.00041  21566433.91746  21566432.45749
    365865.99549    285090.02447         0.00041  21183798.28647  21183795.70149
   -607991.33648   -473759.48344         0.00041  24813155.10944  24813155.10948
    537691.55049    418981.78747         0.00041  20861133.06447  20861132.53349
 96 10 13 01 12 00.0000000  0  6 19 18 22 29 14 16
  -8322258.75748  -6484869.49946         0.00041  22562479.57046  22562476.52648
  -7532483.74349  -5869465.19746         0.00041  21126328.00546  21126326.02049
   2400223.71349   1870306.22746         0.00041  21576767.30446  21576765.96949
    557383.90849    434326.49447         0.00041  20864880.47447  20864879.85049
    440339.31049    343121.17147         0.00041  21197970.27247  21197967.64749
   -708848.07448   -552349.14944         0.00041  24793961.92444  24793961.92448
 96 10 13 01 12 30.0000000  0  6 19 18 22 14 16 29
  -8388658.43948  -6536609.47246         0.00041  22549844.00846  22549841.05748
  -7589288.89349  -5913728.92946         0.00041  21115517.85446  21115516.00549
   2455082.64949   1913053.46446         0.00041  21587206.52146  21587205.10649
    515280.19049    401516.65347         0.00041  21212231.03947  21212228.38249
   -809510.70448   -630787.56244         0.00041  24774806.62244  24774806.62248
    577398.32249    449922.15247         0.00041  20868688.95047  20868688.45949
 96 10 13 01 13 00.0000000  0  6 19 18 22 14 16 29
  -8454749.61948  -6588109.05146         0.00041  22537267.08846  22537264.10548
  -7645808.10149  -5957769.84846         0.00041  21104762.84246  21104761.10949
   2510518.61349   1956250.33446         0.00041  21597755.73246  21597754.23249
    590727.10749    460306.45447         0.00041  21226587.69947  21226585.52549
   -909937.63948   -709040.93644         0.00041  24755695.87544  24755695.87548
    597744.57149    465776.37347         0.00041  20872560.70347  20872560.10449
 96 10 13 01 13 30.0000000  0  6 19 18 22 14 16 29
  -8520564.07248  -6639393.00446         0.00041  22524743.06946  22524739.85648
  -7702061.39049  -6001603.56046         0.00041  21094057.90446  21094055.94949
   2566509.35249   1999879.50046         0.00041  21608410.29346  21608408.98349
    666671.18349    519483.65347         0.00041  21241039.39547  21241036.98749
  -1010144.33948   -787124.07444         0.00041  24736628.00644  24736628.07748
    618377.73549    481854.15947         0.00041  20876487.18747  20876486.48849
 96 10 13 01 14 00.0000000  0  6 19 18 22 14 29 16
  -8586123.41748  -6690478.16846         0.00041  22512267.52846  22512264.10248
  -7758067.00249  -6045244.27347         0.00041  21083400.51147  21083398.72549
   2623044.60149   2043932.95346         0.00041  21619168.78746  21619167.17749
    743094.78749    579034.50147         0.00041  21255582.34247  21255580.25649
    639286.03349    498146.34847         0.00041  20880465.97047  20880465.06149
  -1110141.63248   -865043.97144         0.00041  24717603.78144  24717599.18548
 96 10 13 01 14 30.0000000  0  6 19 18 22 14 16 29
  -8651495.05448  -6741417.07346         0.00041  22499827.46046  22499824.23948
  -7813870.97749  -6088727.86846         0.00041  21072781.45246  21072779.58449
   2680063.32849   2088363.14246         0.00041  21630018.86746  21630017.66949
    819948.44249    638920.45847         0.00041  21270206.68347  21270204.67449
  -1209997.63848   -942853.76444         0.00041  24698602.54344  24698596.30548
    660423.89549    514617.42647         0.00041  20884488.14647  20884487.55949
 96 10 13 01 15 00.0000000  0  6 19 18 22 14 16 29
  -8716648.93048  -6792186.29846         0.00041  22487428.88446  22487425.69348
  -7869441.06249  -6132029.21147         0.00041  21062206.89247  21062205.21449
   2737618.28849   2133211.17746         0.00041  21640970.93146  21640969.91749
    897261.17849    699164.14047         0.00041  21284919.21547  21284917.03949
  -1309674.90148  -1020524.36844         0.00041  24679633.37144  24679628.26448
    681837.41249    531303.29647         0.00041  20888563.18947  20888562.37749
 96 10 13 01 15 30.0000000  0  6 19 18 22 14 16 29
  -8781603.40348  -6842800.13146         0.00041  22475068.57546  22475065.34948
  -7924820.72049  -6175182.16947         0.00041  21051668.24747  21051666.22649
   2795676.83449   2178451.62046         0.00041  21652019.16946  21652018.02949
    974982.18649    759725.95747         0.00041  21299709.01147  21299706.67049
  -1409208.45048  -1098082.91644         0.00041  24660693.57744  24660688.89048
    703517.61149    548196.96747         0.00041  20892688.82547  20892688.07049
 96 10 13 01 16 00.0000000  0  6 19 18 22 14 16 29
  -8846316.55348  -6893225.93246         0.00041  22462753.84446  22462750.69148
  -7979988.18249  -6218169.78147         0.00041  21041170.08447  21041168.38349
   2854260.01049   2224100.86646         0.00041  21663167.39346  21663165.92749
   1053108.38549    820603.51847         0.00041  21314576.09547  21314573.63649
  -1508558.95748  -1175498.92144         0.00041  24641785.19444  24641782.57448
    725522.93249    565343.98247         0.00041  20896876.30947  20896875.53849
 96 10 13 01 16 30.0000000  0  6 19 18 22 14 16 29
  -8910810.04848  -6943480.56146         0.00041  22450481.51146  22450478.35848
  -8034967.85149  -6261011.05847         0.00041  21030707.76347  21030705.81449
   2913335.82749   2270133.97746         0.00041  21674409.02746  21674407.54149
   1131618.02949    881779.86947         0.00041  21329516.30047  21329513.24549
  -1607731.98848  -1252776.61844         0.00041  24622915.64444  24622909.61648
    747840.79549    582734.53847         0.00041  20901122.99947  20901122.34649
 96 10 13 01 17 00.0000000  0  6 19 18 22 14 16 29
  -8975054.05048  -6993540.78046         0.00041  22438255.85846  22438253.11148
  -8089734.69149  -6303686.49447         0.00041  21020286.19847  21020284.29249
   2972942.78049   2316580.96546         0.00041  21685752.12646  21685750.70149
   1210534.08749    943272.90447         0.00041  21344533.54147  21344530.59649
  -1706673.33848  -1329873.75444         0.00041  24604083.32544  24604082.40148
    770505.28449    600395.19347         0.00041  20905435.91547  20905435.23149
 96 10 13 01 17 30.0000000  0  6 19 18 22 14 16 29
  -9039078.93648  -7043430.26146         0.00041  22426072.18946  22426069.44448
  -8144314.89749  -6346216.49847         0.00041  21009899.66147  21009898.00749
   3033040.54649   2363410.40746         0.00041  21697187.96546  21697186.38649
   1289831.80649   1005063.33547         0.00041  21359623.39447  21359620.33549
  -1805417.91448  -1406817.54044         0.00041  24585295.11344  24585292.46648
    793493.55349    618308.13847         0.00041  20909810.61547  20909809.75849
 96 10 13 01 18 00.0000000  0  6 19 18 22 14 16 29
  -9102916.61948  -7093173.86746         0.00041  22413924.16446  22413921.11048
  -8198710.56749  -6388602.70947         0.00041  20999548.39347  20999546.72549
   3093632.99349   2410625.31946         0.00041  21708718.35546  21708716.84149
   1369516.65149   1067155.41247         0.00041  21374786.56047  21374784.17349
  -1903974.59448  -1483614.93044         0.00041  24566541.54844  24566538.51948
    816783.22349    636455.93547         0.00041  20914242.28447  20914241.65649
 96 10 13 01 18 30.0000000  0  6 19 22 14 16 18 29
  -9166503.00148  -7142721.66046         0.00041  22401824.17046  22401821.06048
   3154801.70349   2458289.26746         0.00041  21720358.77446  21720357.08249
   1449683.28449   1129622.89847         0.00041  21390041.46547  21390039.05849
  -2002285.15748  -1560220.48344         0.00041  24547832.45444  24547829.74848
  -8252844.14049  -6430784.68447         0.00041  20989247.62247  20989245.51249
    840422.23849    654875.95347         0.00041  20918740.54647  20918739.81549
 96 10 13 01 19 00.0000000  0  6 19 22 14 16 18 29
  -9229906.02448  -7192126.56746         0.00041  22389758.88546  22389755.67648
   3216475.37649   2506346.69246         0.00041  21732094.87846  21732093.21149
   1530265.23949   1192414.00146         0.00041  21405375.71046  21405373.35549
  -2100435.30348  -1636701.07245         0.00041  24529154.79045  24529152.75048
  -8306770.50849  -6472805.20847         0.00041  20978985.43847  20978983.49349
    864333.35749    673508.00047         0.00041  20923290.80147  20923290.20449
 96 10 13 01 19 30.0000000  0  6 19 22 14 16 18 29
  -9293123.38348  -7241386.81346         0.00041  22377729.30146  22377725.78848
   3278640.05249   2554786.71146         0.00041  21743923.96646  21743922.48649
   1611271.44749   1255535.69646         0.00041  21420791.00846  21420788.49049
  -2198427.85048  -1713058.83445         0.00041  24510508.62245  24510505.50548
  -8360485.71149  -6514661.19247         0.00041  20968763.77147  20968761.69949
    888509.78149    692346.78247         0.00041  20927891.28847  20927890.49649
 96 10 13 01 20 00.0000000  0  6 19 22 14 16 18 29
  -9356164.53348  -7290509.75346         0.00041  22365733.10246  22365729.26548
   3341272.30849   2603591.09346         0.00041  21755842.18446  21755841.40249
   1692696.87949   1318984.07046         0.00041  21436285.77746  21436283.00549
  -2296248.33648  -1789282.56445         0.00041  24491892.03245  24491890.25648
  -8413995.60849  -6556357.19147         0.00041  20958581.08147  20958579.22549
    912932.21149    711377.24947         0.00041  20932538.84347  20932538.04549
 96 10 13 01 20 30.0000000  0  6 19 22 14 16 18 29
  -9419000.75348  -7339473.00246         0.00041  22353775.46446  22353772.29948
   3404341.41649   2652735.87746         0.00041  21767844.42246  21767842.97449
   1774543.90049   1382760.96846         0.00041  21451860.84146  21451858.05349
  -2393895.11648  -1865370.92145         0.00041  24473311.99645  24473308.65848
  -8467292.17549  -6597886.95747         0.00041  20948439.00547  20948437.36349
    937611.16149    730607.60447         0.00041  20937235.24647  20937234.27849
 96 10 13 01 21 00.0000000  0  6 19 22 14 18 29 16
  -9481615.66348  -7388263.80346         0.00041  22341860.03846  22341856.86148
   3467838.63249   2702214.24546         0.00041  21779927.51046  21779925.85549
   1856809.99549   1446864.42946         0.00041  21467515.67746  21467512.72949
  -8520363.18649  -6639240.96447         0.00041  20938339.87247  20938338.19249
    962574.30749    750059.42147         0.00041  20941985.37047  20941984.56549
  -2491340.27448  -1941302.16445         0.00041  24454768.11445  24454765.22048
 96 10 13 01 21 30.0000000  0  7 19 22 14 16 27 18 29
  -9543982.65248  -7436861.41446         0.00041  22329992.20646  22329988.66748
   3531789.95749   2752046.46046         0.00041  21792097.08846  21792095.18849
   1939500.27149   1511298.41246         0.00041  21483251.06746  21483248.05249
  -2588541.94748  -2017043.67645         0.00041  24436272.84045  24436268.78748
        -0.27858        -0.21754         0.00051  25535749.27054  25535749.27058
  -8573201.68949  -6680413.80047         0.00041  20928285.27647  20928283.12049
    987846.36449    769751.94147         0.00041  20946794.69847  20946793.62049
 96 10 13 01 22 00.0000000  0  7 19 18 29 22 14 16 27
  -9606073.06148  -7485243.51246         0.00041  22318176.73946  22318173.82348
  -8625786.72249  -6721389.13047         0.00041  20918278.64547  20918276.61949
   1013451.97749    789704.37147         0.00041  20951667.37847  20951666.41049
   3596220.82049   2802252.33446         0.00041  21804357.64346  21804356.11849
   2022620.31449   1576067.26946         0.00041  21499068.27146  21499065.35249
  -2685495.12648  -2092591.57245         0.00041  24417822.56945  24417819.15948
    -81854.60847    -63782.81144         0.00041  25520171.86544  25520171.86547
 96 10 13 01 22 30.0000000  0  8 19 18 29 22 14 16 03 27
  -9667910.11448  -7533428.18346         0.00041  22306409.29146  22306406.38048
  -8678139.15249  -6762183.20847         0.00041  20908316.28947  20908314.43449
   1039372.19349    809901.94847         0.00041  20956599.56247  20956598.83449
   3661128.55149   2852829.80246         0.00041  21816709.33346  21816707.67449
   2106130.55849   1641140.17146         0.00041  21514959.87146  21514956.99149
  -2782239.71748  -2167976.94445         0.00041  24399411.96545  24399408.91148
        -1.16658        -0.90954         0.00051  24707127.83054  24707127.83058
   -163652.65948   -127521.55244         0.00041  25504606.72344  25504606.72348
 96 10 13 01 23 00.0000000  0  8 19 18 29 22 14 16 03 27
  -9729517.93048  -7581434.24046         0.00041  22294685.19846  22294682.47348
  -8730263.03249  -6802799.19747         0.00041  20898397.29647  20898395.30449
   1065590.72849    830331.98447         0.00041  20961588.87247  20961588.08449
   3726535.46849   2903796.24746         0.00041  21829155.88846  21829154.05249
   2190006.42749   1706497.98046         0.00041  21530920.62246  21530918.03249
  -2878768.29948  -2243193.96345         0.00041  24381043.79245  24381039.54548
    -67583.70248    -52662.62544         0.00041  24694267.22444  24694267.22448
   -245407.14948   -191226.35044         0.00041  25489049.90744  25489049.90748
 96 10 13 01 23 30.0000000  0  8 19 18 29 22 14 16 03 27
  -9790899.85148  -7629264.26046         0.00041  22283004.79646  22283001.66348
  -8782147.10149  -6843228.31947         0.00041  20888524.18747  20888522.23449
   1092089.00649    850980.00247         0.00041  20966631.50947  20966630.58249
   3792451.60949   2955159.49446         0.00041  21841699.09446  21841697.51249
   2274253.92849   1772145.37446         0.00041  21546952.49646  21546949.88949
  -2975084.02848  -2318245.15145         0.00041  24362715.06545  24362711.94948
   -135051.15848   -105234.66944         0.00041  24681427.71344  24681427.71348
   -327120.19048   -254898.72444         0.00041  25473498.35544  25473498.35548
 96 10 13 01 24 00.0000000  0  8 19 18 29 22 14 16 03 27
  -9852066.31048  -7676926.40246         0.00041  22271365.73446  22271362.37048
  -8833778.58749  -6883460.62647         0.00041  20878699.06547  20878697.27449
   1118861.37349    871841.59147         0.00041  20971726.07747  20971725.12549
   3858858.40449   3006905.06346         0.00041  21854335.83946  21854334.29149
   2358875.19549   1838084.02846         0.00041  21563054.94046  21563052.71849
  -3071188.38248  -2393131.60745         0.00041  24344426.73145  24344423.40048
   -202407.22348   -157720.11744         0.00041  24668611.42044  24668611.42048
   -408809.32948   -318552.72444         0.00041  25457954.45844  25457954.45848
 96 10 13 01 24 30.0000000  0  8 19 18 29 22 14 16 03 27
  -9913002.06048  -7724408.76346         0.00041  22259769.74446  22259767.02548
  -8885134.53349  -6923478.22447         0.00041  20868926.07947  20868924.20949
   1145932.38949    892935.89347         0.00041  20976877.48647  20976876.43049
   3925773.95549   3059047.06546         0.00041  21867069.80646  21867067.90149
   2443895.92249   1904333.94446         0.00041  21579234.18846  21579231.39249
  -3167027.42148  -2467811.33945         0.00041  24326189.97045  24326186.42648
   -269629.53148   -210101.09744         0.00041  24655819.25244  24655819.25248
   -490443.66748   -382163.89644         0.00041  25442421.38044  25442421.38048
 96 10 13 01 25 00.0000000  0  8 19 18 29 22 14 16 03 27
  -9973712.46848  -7771715.53846         0.00041  22248216.84546  22248213.70148
  -8936221.99049  -6963286.61847         0.00041  20859204.62947  20859202.83049
   1173310.09649    914269.17747         0.00041  20982087.13947  20982086.25849
   3993177.88849   3111569.61746         0.00041  21879896.27846  21879894.60349
   2529319.79749   1970897.98846         0.00041  21595489.84146  21595487.08749
  -3262595.63748  -2542280.02745         0.00041  24308002.92145  24308000.43348
   -336720.75148   -262379.87744         0.00041  24643055.13544  24643052.20548
   -572010.94048   -445722.81044         0.00041  25426897.92044  25426897.92048
 96 10 13 01 25 30.0000000  0  8 19 18 29 22 14 16 03 27
 -10034202.53748  -7818850.62446         0.00041  22236705.59146  22236703.19848
  -8987052.62749  -7002894.88847         0.00041  20849531.73947  20849529.97949
   1201006.62049    935850.89047         0.00041  20987357.77747  20987356.88049
   4061041.65149   3164450.48746         0.00041  21892809.93946  21892808.28449
   2615142.45849   2037772.78046         0.00041  21611821.33646  21611818.74849
  -3357920.63248  -2616559.21245         0.00041  24289863.51945  24289860.16148
   -403685.02948   -314559.78144         0.00041  24630310.14144  24630308.80748
   -653501.50648   -509221.95244         0.00041  25411391.59144  25411391.59148
 96 10 13 01 26 00.0000000  0  8 19 18 29 22 14 16 03 27
 -10094479.76248  -7865819.85946         0.00041  22225235.26346  22225232.83948
  -9037643.43549  -7042316.27947         0.00041  20839904.77047  20839902.93349
   1229039.89749    957695.01247         0.00041  20992692.41647  20992691.41149
   4129361.37248   3217686.63746         0.00041  21905810.98946  21905809.06648
   2701355.44849   2104951.71846         0.00041  21628227.40946  21628224.56349
  -3453003.78048  -2690649.92145         0.00041  24271768.93645  24271765.93848
   -470512.13248   -366632.73144         0.00041  24617593.34544  24617592.53448
   -734895.12348   -572644.94344         0.00041  25395902.49544  25395902.49548
 96 10 13 01 26 30.0000000  0  7 19 18 29 22 14 16 03
 -10154517.14848  -7912602.19546         0.00041  22213810.88846  22213807.57848
  -9087973.18449  -7081534.24547         0.00041  20830327.14547  20830325.48549
   1257448.97149    979831.96147         0.00041  20998098.28047  20998097.49249
   4198185.28048   3271315.67046         0.00041  21918907.43846  21918905.61648
   2787979.89149   2172451.27246         0.00041  21644711.44246  21644708.64249
  -3547830.15948  -2764540.52945         0.00041  24253724.74945  24253721.10048
   -537162.66448   -418568.16944         0.00041  24604911.43044  24604908.37848
 96 10 13 01 27 00.0000000  0  8 19 18 29 22 14 16 03 27
 -10214213.25948  -7959118.60946         0.00041  22202451.07646  22202447.86848
  -9137932.49549  -7120463.56047         0.00041  20820820.22347  20820818.39749
   1286335.02849   1002340.58147         0.00041  21003594.95747  21003594.20149
   4267616.60749   3325418.01546         0.00041  21932119.92446  21932118.40149
   2875106.22149   2240341.90646         0.00041  21661291.17846  21661288.09949
  -3642311.18648  -2838162.07645         0.00041  24235744.83445  24235742.02948
   -603528.22648   -470281.73544         0.00041  24592278.35044  24592278.35048
        -0.66158        -0.51554         0.00051  25365032.78154  25365032.78158
 96 10 13 01 27 30.0000000  0  8 19 18 29 22 14 16 03 27
 -10273443.30548  -8005271.85346         0.00041  22191179.89546  22191176.85948
  -9187385.21649  -7158998.13347         0.00041  20811409.59247  20811407.85949
   1315799.33449   1025299.78547         0.00041  21009201.66947  21009201.02349
   4337772.98149   3380085.32646         0.00041  21945469.93146  21945468.65249
   2962845.89649   2308710.47246         0.00041  21677987.01646  21677984.45649
  -3736310.07848  -2911407.94945         0.00041  24217858.30145  24217854.78148
   -669490.58248   -521680.59944         0.00041  24579726.64744  24579726.64748
    -80609.71048    -62812.03244         0.00041  25349693.50544  25349693.50548
 96 10 13 01 28 00.0000000  0  8 19 18 29 22 14 16 03 27
 -10332357.93248  -8051179.31946         0.00041  22179969.11946  22179965.82448
  -9236478.87949  -7197252.92147         0.00041  20802067.57047  20802065.75549
   1345677.03849   1048581.12047         0.00041  21014887.20647  21014886.61949
   4408514.19449   3435208.36546         0.00041  21958931.56446  21958930.17749
   3051041.16649   2377434.05146         0.00041  21694770.05446  21694767.40549
  -3829951.12348  -2984374.95345         0.00041  24200038.38145  24200035.21848
   -735189.38148   -572874.84244         0.00041  24567225.62644  24567225.62648
   -161011.14348   -125463.22844         0.00041  25334393.34144  25334393.34148
 96 10 13 01 28 30.0000000  0  8 19 18 29 22 14 16 03 27
 -10391202.91348  -8097032.50846         0.00041  22168770.84446  22168767.96848
  -9285466.19649  -7235424.83647         0.00041  20792745.64547  20792743.71349
   1375699.37549   1071975.15647         0.00041  21020600.43747  21020599.60149
   4479570.71149   3490577.09046         0.00041  21972453.24246  21972452.01849
   3139424.34549   2446304.04946         0.00041  21711588.98546  21711585.97749
  -3923491.07948  -3057263.20345         0.00041  24182239.29545  24182236.20148
   -800883.60848   -624065.14944         0.00041  24554723.37844  24554723.37848
   -241493.36748   -188175.78644         0.00041  25319078.65744  25319078.65748
 96 10 13 01 29 00.0000000  0  8 19 18 29 22 14 16 03 27
 -10449723.39048  -8142632.84446         0.00041  22157634.79646  22157631.93748
  -9334091.54049  -7273314.69947         0.00041  20783492.38447  20783490.73049
   1406110.54749   1095672.17847         0.00041  21026387.40247  21026386.77849
   4551171.84949   3546370.19346         0.00041  21986078.34446  21986076.90649
   3228257.33949   2515524.55646         0.00041  21728493.26446  21728490.23949
  -4016656.72348  -3129859.75945         0.00041  24164509.72945  24164506.65048
   -866314.04448   -675049.48044         0.00041  24542272.99544  24542272.99548
   -321839.15648   -250782.77744         0.00041  25303794.06844  25303788.96648
 96 10 13 01 29 30.0000000  0  7 19 18 29 22 16 03 27
 -10507836.75548  -8187915.94646         0.00041  22146575.79746  22146572.61548
  -9382283.25349  -7310866.66147         0.00041  20774321.61247  20774320.04949
   1436996.20249   1119738.93247         0.00041  21032264.75347  21032263.96249
   4623397.08449   3602649.61346         0.00041  21999822.38246  21999821.16749
  -4109361.60648  -3202097.29645         0.00041  24146869.38245  24146865.27848
   -931390.77948   -725758.56244         0.00041  24529889.65944  24529889.65948
   -401962.42048   -313216.33044         0.00041  25288542.85644  25288542.85648
 96 10 13 01 30 00.0000000  0  7 19 18 29 22 16 03 27
 -10565546.59448  -8232884.61646         0.00041  22135594.11046  22135591.21548
  -9430063.41949  -7348097.94547         0.00041  20765229.48047  20765227.84449
   1468367.28149   1144183.94047         0.00041  21038234.37447  21038233.61849
   4696237.10649   3659408.09346         0.00041  22013683.68446  22013682.33649
  -4201631.87548  -3273996.17145         0.00041  24129310.63745  24129307.20348
   -996108.89148   -776188.74644         0.00041  24517573.74644  24517573.74648
   -481862.15748   -375475.75744         0.00041  25273338.09844  25273338.09848
 96 10 13 01 30 30.0000000  0  7 19 18 29 22 16 03 27
 -10623412.88449  -8277975.18046         0.00041  22124582.89646  22124579.71749
  -9477986.48649  -7385440.57547         0.00041  20756109.84947  20756108.20949
   1499669.53649   1168575.31447         0.00041  21044191.15947  21044190.38749
   4769112.61149   3716194.21946         0.00041  22027550.95846  22027549.81549
  -4294037.12448  -3346000.21845         0.00041  24111726.39845  24111723.31748
  -1061034.24148   -826779.92844         0.00041  24505218.85944  24505218.85948
   -562091.91348   -437992.36144         0.00041  25258069.99344  25258069.99348
 96 10 13 01 31 00.0000000  0  8 19 18 29 22 31 16 03 27
 -10681281.70449  -8323067.72946         0.00041  22113570.53546  22113567.71249
  -9525893.31549  -7422770.55447         0.00041  20746993.59947  20746991.72949
   1531059.61749   1193035.12847         0.00041  21050164.70147  21050163.71149
   4842176.28549   3773126.97146         0.00041  22041454.59746  22041453.56649
        -0.44457        -0.34654         0.00051  25218273.13254  25218273.13257
  -4386421.87048  -3417988.28745         0.00041  24094146.27945  24094142.94648
  -1126011.44348   -877411.51444         0.00041  24492854.07244  24492854.07248
   -642466.65348   -500622.02644         0.00041  25242779.30144  25242775.98848
 96 10 13 01 31 30.0000000  0  8 19 18 29 22 31 16 03 27
 -10739039.30148  -8368073.61346         0.00041  22102579.67346  22102576.51848
  -9573681.85749  -7460008.36147         0.00041  20737899.75847  20737898.01549
   1562637.08849   1217640.95147         0.00041  21056173.57847  21056172.54549
   4915527.58249   3830283.84846         0.00041  22055413.32446  22055411.57249
    -84152.81847    -65573.62444         0.00041  25202259.88844  25202259.88847
  -4478701.65948  -3489894.58645         0.00041  24076584.96745  24076581.85348
  -1190960.28848   -928021.00444         0.00041  24480494.93144  24480494.93148
   -722860.39948   -563266.47244         0.00041  25227481.74044  25227477.44848
 96 10 13 01 32 00.0000000  0  7 19 18 29 22 16 03 27
 -10796787.59048  -8413072.23546         0.00041  22091590.56946  22091587.38948
  -9621441.00149  -7497223.26247         0.00041  20728811.38947  20728809.74649
   1594288.54849   1242304.43047         0.00041  21062196.52247  21062195.74649
   4989056.68349   3887579.26946         0.00041  22069405.03746  22069403.67249
  -4570971.63748  -3561793.22645         0.00041  24059027.16645  24059023.39748
  -1256003.09548   -978702.87344         0.00041  24468117.80044  24468117.80048
   -803376.25348   -626006.02844         0.00041  25212163.53244  25212155.66548
 96 10 13 01 32 30.0000000  0  7 19 18 29 22 16 03 27
 -10855014.64648  -8458443.93546         0.00041  22080509.96546  22080506.88748
  -9669637.67949  -7534779.09547         0.00041  20719640.00547  20719638.21749
   1625523.38149   1266643.25947         0.00041  21068140.31247  21068139.63949
   5062294.32049   3944647.57846         0.00041  22083341.48546  22083340.16149
  -4663694.59948  -3634044.84945         0.00041  24041382.76645  24041379.19848
  -1321633.98348  -1029843.79844         0.00041  24455628.90744  24455628.90748
   -884495.26848   -689215.58344         0.00041  25196722.21944  25196719.50348
 96 10 13 01 33 00.0000000  0  7 19 18 29 22 16 03 27
 -10913044.06348  -8503661.62146         0.00041  22069467.48146  22069464.25048
  -9717589.53349  -7572144.15147         0.00041  20710514.91147  20710513.23449
   1657013.80349   1291181.24647         0.00041  21074132.55347  21074132.00149
   5135924.94949   4002022.11346         0.00041  22097353.53646  22097351.81949
  -4756185.49648  -3706115.64245         0.00041  24023781.99145  24023778.61148
  -1387177.84548  -1080917.80244         0.00041  24443156.05044  24443156.05048
   -965553.06048   -752377.44044         0.00041  25181296.06344  25181294.14748
 96 10 13 01 33 30.0000000  0  7 19 18 29 22 16 03 27
 -10970517.69749  -8548446.23246         0.00041  22058530.98946  22058528.00049
  -9764918.04249  -7609023.48447         0.00041  20701508.68747  20701506.89449
   1689130.73149   1316207.42047         0.00041  21080244.16447  21080243.52049
   5210328.70049   4059999.08246         0.00041  22111511.88546  22111510.40249
  -4848062.92948  -3777708.38845         0.00041  24006297.74445  24006293.30148
  -1452255.72148  -1131626.79144         0.00041  24430772.87744  24430772.87748
  -1046196.46748   -815216.37044         0.00041  25165950.33444  25165949.44548
 96 10 13 01 34 00.0000000  0  7 19 18 29 22 16 03 27
 -11027692.83749  -8592998.25246         0.00041  22047650.72146  22047647.60549
  -9811863.92449  -7645604.67447         0.00041  20692575.13447  20692573.38149
   1721640.08149   1341539.38747         0.00041  21086430.45447  21086429.84749
   5285270.45148   4118395.26546         0.00041  22125773.19446  22125771.29148
  -4939548.21848  -3848995.58345         0.00041  23988889.01445  23988885.94948
  -1517078.38048  -1182137.96044         0.00041  24418436.39544  24418436.39548
  -1126686.63048   -877935.89544         0.00041  25150636.04944  25150631.70148
 96 10 13 01 34 30.0000000  0  7 19 18 29 22 16 03 27
 -11084657.74349  -8637386.45146         0.00041  22036810.61146  22036807.69149
  -9858533.05649  -7681970.21647         0.00041  20683694.38047  20683692.45449
   1754463.66149   1367116.20747         0.00041  21092676.56147  21092675.98049
   5360647.90048   4177130.94546         0.00041  22140117.01446  22140115.14848
  -5030754.33748  -3920065.24945         0.00041  23971532.71145  23971529.12748
  -1581712.54148  -1232502.15144         0.00041  24406136.44844  24406136.44848
  -1207129.17948   -940618.31244         0.00041  25135325.07244  25135323.14448
 96 10 13 01 35 00.0000000  0  7 19 18 29 22 16 03 27
 -11141087.61449  -8681357.74546         0.00041  22026072.08246  22026069.30349
  -9904616.91949  -7717879.70747         0.00041  20674924.80547  20674922.96449
   1787933.66149   1393196.73147         0.00041  21099045.90247  21099045.16149
   5436759.56948   4236438.73546         0.00041  22154600.14746  22154598.45648
  -5121362.04548  -3990668.62045         0.00041  23954291.02045  23954286.35648
  -1645823.07248  -1282459.53644         0.00041  24393936.20744  24393936.20748
  -1287203.07248  -1003013.54344         0.00041  25120092.01544  25120086.22748
 96 10 13 01 35 30.0000000  0  7 19 18 29 22 16 03 27
 -11196913.92849  -8724858.73746         0.00041  22015448.73846  22015445.88749
  -9950058.97049  -7753289.08047         0.00041  20666277.36847  20666275.64649
   1822130.98049   1419844.00347         0.00041  21105553.32947  21105552.67949
   5513673.98148   4296372.04546         0.00041  22169236.27346  22169235.10848
  -5211291.94448  -4060743.84845         0.00041  23937177.47445  23937173.42848
  -1709319.95548  -1331937.62844         0.00041  24381852.84744  24381852.84748
  -1366818.83948  -1065051.68844         0.00041  25104940.13644  25104935.43348
 96 10 13 01 36 00.0000000  0  7 19 18 29 22 16 03 27
 -11252439.24449  -8768125.18246         0.00041  22004882.94246  22004879.86649
  -9995167.19149  -7788438.32547         0.00041  20657693.61447  20657691.93849
   1856751.63349   1446821.14947         0.00041  21112141.48047  21112140.69349
   5591068.52248   4356679.48646         0.00041  22183963.99846  22183963.06348
  -5300849.78648  -4130529.16145         0.00041  23920134.21945  23920131.03448
  -1772502.54448  -1381170.81444         0.00041  24369830.29144  24369830.29148
  -1446268.54148  -1126960.46544         0.00041  25089819.85544  25089816.71848
 96 10 13 01 36 30.0000000  0  7 19 18 29 22 16 03 27
 -11307382.77649  -8810938.28946         0.00041  21994426.56946  21994424.16349
 -10039647.71549  -7823098.45647         0.00041  20649229.24747  20649227.49749
   1892080.46449   1474350.11247         0.00041  21118864.49647  21118863.55949
   5669225.17448   4417580.78246         0.00041  22198837.05546  22198835.25448
  -5389751.13948  -4199802.90945         0.00041  23903216.97145  23903213.80348
  -1835088.75948  -1429939.29344         0.00041  24357919.66144  24357919.66148
  -1525246.56948  -1188501.67944         0.00041  25074794.67544  25074787.75248
 96 10 13 01 37 00.0000000  0  7 19 18 29 22 16 03 27
 -11361864.11949  -8853391.24446         0.00041  21984059.43446  21984056.78549
 -10083580.04149  -7857331.42247         0.00041  20640869.27547  20640867.46649
   1928004.89849   1502343.18547         0.00041  21125700.87247  21125699.74649
   5748049.31748   4479002.20046         0.00041  22213837.23646  22213835.23148
  -5478077.36248  -4268628.47445         0.00041  23886411.07545  23886406.85048
  -1897183.83348  -1478325.06544         0.00041  24346104.77244  24346104.77248
  -1603843.49448  -1249745.94644         0.00041  25059834.62044  25059831.52948
 96 10 13 01 37 30.0000000  0  7 19 18 29 22 16 03 27
 -11415708.75549  -8895348.07546         0.00041  21973813.01046  21973810.62749
 -10126783.21649  -7890996.21747         0.00041  20632647.86647  20632646.08549
   1964688.37849   1530927.71547         0.00041  21132681.46947  21132680.56449
   5827732.58148   4541093.05646         0.00041  22229000.15746  22228997.92648
  -5565661.70648  -4336875.96045         0.00041  23869743.64245  23869739.11148
  -1958609.74548  -1526187.93244         0.00041  24334416.96144  24334416.96148
  -1681889.94148  -1310561.24444         0.00041  25044982.33344  25044979.98848
 96 10 13 01 38 00.0000000  0  7 19 18 29 22 16 03 27
 -11469345.26449  -8937142.71746         0.00041  21963606.58146  21963603.44949
 -10169689.94349  -7924430.01647         0.00041  20624482.86247  20624481.17449
   2001684.26949   1559755.68247         0.00041  21139721.35147  21139720.58749
   5907829.60848   4603506.33346         0.00041  22244241.86946  22244240.29648
  -5652964.55048  -4404904.09445         0.00041  23853130.90645  23853126.19648
  -2019818.02648  -1573882.61644         0.00041  24322769.72944  24322769.72948
  -1759839.63548  -1371301.15244         0.00041  25030150.10644  25030146.64548
 96 10 13 01 38 30.0000000  0  7 19 18 29 22 16 03 27
 -11522757.90149  -8978762.91446         0.00041  21953442.09846  21953439.30449
 -10212289.19549  -7957624.22447         0.00041  20616376.66347  20616374.89449
   2039001.33949   1588833.92347         0.00041  21146822.52447  21146821.72649
   5988352.09448   4666251.12846         0.00041  22259564.13046  22259562.69348
  -5739984.38648  -4472711.73945         0.00041  23836570.39445  23836567.27048
  -2080804.76948  -1621406.31344         0.00041  24311162.71844  24311162.71848
  -1837690.29548  -1431963.91744         0.00041  25015334.95544  25015332.02448
 96 10 13 01 39 00.0000000  0  7 19 18 29 22 16 03 27
 -11576611.92949  -9020727.06046         0.00041  21943194.45346  21943191.41049
 -10255261.06549  -7991108.78347         0.00041  20608199.56047  20608197.77249
   2075965.89049   1617637.47047         0.00041  21153856.32647  21153855.69949
   6068617.50148   4728795.61546         0.00041  22274838.86746  22274836.99648
  -5827393.17148  -4540822.45045         0.00041  23819936.99745  23819934.13448
  -2142250.96248  -1669286.46444         0.00041  24299470.03244  24299470.03248
  -1916121.97448  -1493079.42144         0.00041  25000408.96544  25000405.93348
 96 10 13 01 39 30.0000000  0  7 19 18 29 22 16 03 27
 -11631535.43549  -9063524.55846         0.00041  21932742.87246  21932739.69249
 -10299270.17049  -8025401.57847         0.00041  20599824.57647  20599822.87449
   2111932.98949   1645663.78647         0.00041  21160700.71447  21160700.07749
   6147966.23748   4790625.80846         0.00041  22289938.18146  22289936.35548
  -5915843.11748  -4609744.42845         0.00041  23803105.56845  23803102.65448
  -2204808.99248  -1718031.25244         0.00041  24287565.34744  24287565.34748
  -1995781.41948  -1555151.59044         0.00041  24985250.70644  24985247.57848
 96 10 13 01 40 00.0000000  0  7 19 18 29 22 16 03 27
 -11687409.57749  -9107062.81646         0.00041  21922109.94846  21922106.75649
 -10344184.99249  -8060400.12347         0.00041  20591277.53247  20591275.64849
   2147031.87749   1673013.56847         0.00041  21167379.74447  21167379.32849
   6226492.81348   4851815.35246         0.00041  22304881.25346  22304879.82748
  -6005192.95648  -4679367.63445         0.00041  23786104.18045  23786100.52548
  -2268355.98847  -1767550.12044         0.00041  24275469.45244  24275469.45247
  -2076537.52148  -1618078.33944         0.00041  24969883.25344  24969878.79948
 96 10 13 01 40 30.0000000  0  7 19 18 29 22 16 03 27
 -11743514.27549  -9150780.73646         0.00041  21911433.68146  21911430.40449
 -10389269.69449  -8095531.04447         0.00041  20582698.13547  20582696.51449
   2181993.02749   1700256.02047         0.00041  21174032.84147  21174032.35949
   6304931.60748   4912936.49446         0.00041  22319807.86446  22319806.38348
  -6094677.58948  -4749095.91645         0.00041  23769074.77145  23769071.57948
  -2332145.50147  -1817256.23544         0.00041  24263333.32344  24263333.32347
  -2157662.03648  -1681292.14444         0.00041  24954446.51144  24954442.39848
 96 10 13 01 41 00.0000000  0  7 19 18 29 22 16 03 27
 -11799237.45449  -9194201.36346         0.00041  21900830.09846  21900827.18549
 -10433925.02949  -8130327.39447         0.00041  20574200.58047  20574198.89649
   2217434.48049   1727872.73147         0.00041  21180777.24947  21180776.47349
   6383898.30548   4974468.99646         0.00041  22334834.25746  22334832.99348
  -6183659.98048  -4818432.81445         0.00041  23752141.64245  23752138.52648
  -2395559.05047  -1866669.38944         0.00041  24251265.55144  24251265.55147
  -2238551.14448  -1744322.51144         0.00041  24939052.78344  24939049.63148
 96 10 13 01 41 30.0000000  0  8 19 18 29 22 31 16 03 27
 -11854254.12549  -9237071.46346         0.00041  21890360.97446  21890357.91249
 -10477830.82149  -8164539.68347         0.00041  20565845.47347  20565843.83249
   2253673.79649   1756111.15847         0.00041  21187673.42647  21187672.57149
   6463712.94648   5036662.22746         0.00041  22350022.44446  22350021.59748
        -0.02458        -0.33454         0.00051  24875810.18254  24875810.18258
  -6271809.92548  -4887121.04745         0.00041  23735367.63545  23735364.42148
  -2458256.70448  -1915524.70444         0.00041  24239335.24844  24239335.24848
  -2318889.24148  -1806923.56044         0.00041  24923766.74244  24923762.42448
 96 10 13 01 42 00.0000000  0  8 19 18 29 22 31 16 03 27
 -11908862.19249  -9279623.17046         0.00041  21879969.08546  21879966.13349
 -10521252.37449  -8198374.64447         0.00041  20557582.73147  20557581.02449
   2290429.17849   1784751.72047         0.00041  21194667.66647  21194666.75249
   6544106.38948   5099306.47346         0.00041  22365321.24146  22365319.65248
    -88130.27048    -68673.24744         0.00041  24859043.71044  24859039.89348
  -6359400.28048  -4955373.24345         0.00041  23718699.40445  23718696.37348
  -2520504.12748  -1964027.27744         0.00041  24227495.75344  24227491.25748
  -2398965.53648  -1869320.57945         0.00041  24908527.82545  24908524.04448
 96 10 13 01 42 30.0000000  0  8 19 18 29 22 31 16 03 27
 -11962557.98649  -9321464.01346         0.00041  21869750.74246  21869748.01849
 -10563685.27949  -8231439.23047         0.00041  20549508.17247  20549506.39049
   2328203.88949   1814186.56647         0.00041  21201855.96247  21201854.89549
   6625602.63948   5162810.04646         0.00041  22380828.77746  22380827.88448
   -175640.10648   -136862.62844         0.00041  24842389.63944  24842386.72748
  -6445934.80148  -5022802.72045         0.00041  23702233.26845  23702229.61348
  -2581794.52748  -2011786.01044         0.00041  24215827.41844  24215827.41848
  -2478280.37348  -1931124.26545         0.00041  24893435.45345  24893431.35548
 96 10 13 01 43 00.0000000  0  8 19 18 29 22 31 16 03 27
 -12015167.40649  -9362458.33646         0.00041  21859739.77246  21859737.06649
 -10604941.00249  -8263586.53647         0.00041  20541657.12847  20541655.44149
   2367180.36649   1844557.85147         0.00041  21209272.82547  21209272.05649
   6708378.20748   5227310.49246         0.00041  22396581.03746  22396579.67448
   -262346.21148   -204425.85144         0.00041  24825888.99544  24825887.91248
  -6531258.93548  -5089289.03145         0.00041  23685995.59345  23685991.70548
  -2641958.22648  -2058666.78444         0.00041  24204379.12044  24204378.49048
  -2556645.44448  -1992187.88245         0.00041  24878521.84245  24878518.82148
 96 10 13 01 43 30.0000000  0  8 19 18 29 22 31 16 03 27
 -12066129.02949  -9402168.65746         0.00041  21850041.93946  21850039.21749
 -10644426.02049  -8294354.06747         0.00041  20534143.50747  20534141.85349
   2407920.84349   1876303.67947         0.00041  21217025.66747  21217024.80749
   6792994.08348   5293244.94946         0.00041  22412682.70046  22412681.86248
   -347668.18348   -270910.44444         0.00041  24809650.99344  24809650.99348
  -6614825.00348  -5154405.40045         0.00041  23670093.22045  23670090.29648
  -2700433.22248  -2104231.61444         0.00041  24193251.17044  24193251.17048
  -2633481.96848  -2052060.42745         0.00041  24863900.41845  24863896.46848
 96 10 13 01 44 00.0000000  0  8 19 18 29 22 31 16 03 27
 -12115707.28949  -9440801.03446         0.00041  21840607.42346  21840604.78349
 -10682391.28349  -8323937.37147         0.00041  20526918.98947  20526917.27549
   2450170.86249   1909225.77247         0.00041  21225065.20747  21225064.41949
   6879187.51648   5360408.67646         0.00041  22429084.47146  22429083.32648
   -431868.97648   -336521.44544         0.00041  24793628.26044  24793628.26048
  -6696902.18848  -5218361.61945         0.00041  23654474.94545  23654471.15648
  -2757502.53548  -2148701.21344         0.00041  24182394.99044  24182390.79348
  -2709059.79048  -2110952.15945         0.00041  24849517.69945  24849514.57848
 96 10 13 01 44 30.0000000  0  8 19 18 29 22 31 16 03 27
 -12163763.31449  -9478247.25746         0.00041  21831462.50146  21831459.87549
 -10718706.95549  -8352235.28047         0.00041  20520008.15247  20520006.68349
   2494067.64549   1943431.06147         0.00041  21233418.77447  21233417.90049
   6967068.85848   5428887.65846         0.00041  22445808.19146  22445806.71448
   -514823.34248   -401161.16444         0.00041  24777843.25044  24777842.95248
  -6777360.19048  -5281056.10946         0.00041  23639164.20546  23639161.12848
  -2813036.80448  -2191974.69844         0.00041  24171822.76544  24171822.85048
  -2783249.19048  -2168762.00245         0.00041  24835399.80245  24835396.81248
 96 10 13 01 45 00.0000000  0  8 19 18 29 22 31 16 03 27
 -12210353.38849  -9514551.18046         0.00041  21822596.76946  21822594.40049
 -10753444.75349  -8379303.68147         0.00041  20513397.78247  20513396.37849
   2539539.65049   1978863.79447         0.00041  21242071.78147  21242071.01249
   7056549.25948   5498612.66846         0.00041  22462836.01846  22462834.39248
   -596601.99048   -464884.66844         0.00041  24762280.23144  24762280.23148
  -6856261.89048  -5342537.94545         0.00041  23624149.50245  23624146.48048
  -2867101.32248  -2234102.82544         0.00041  24161535.69044  24161535.25748
  -2856109.23048  -2225535.97145         0.00041  24821535.82645  24821532.33948
 96 10 13 01 45 30.0000000  0  8 19 18 29 22 31 16 03 27
 -12256109.04649  -9550204.90546         0.00041  21813890.04746  21813886.88149
 -10787273.79549  -8405663.96247         0.00041  20506960.18047  20506958.62649
   2585936.39749   2015017.10547         0.00041  21250900.78547  21250899.85149
   7146959.37048   5569062.12046         0.00041  22480039.93046  22480038.47348
   -677872.53348   -528212.41244         0.00041  24746815.15044  24746815.15048
  -6934242.73248  -5403302.21245         0.00041  23609310.29945  23609307.10048
  -2920337.08548  -2275585.19344         0.00041  24151405.25044  24151404.18948
  -2928289.01048  -2281779.87645         0.00041  24807801.29145  24807796.37248
 96 10 13 01 46 00.0000000  0  8 19 18 29 22 31 16 03 27
 -12302095.63549  -9586038.57646         0.00041  21805138.62646  21805135.47049
 -10821273.56349  -8432157.28047         0.00041  20500490.52047  20500488.85149
   2632180.44649   2051051.42747         0.00041  21259700.41047  21259699.85249
   7237229.50048   5639402.49446         0.00041  22497218.08346  22497216.52348
   -759704.91348   -591977.85444         0.00041  24731243.95944  24731243.95948
  -7012359.66448  -5464172.52045         0.00041  23594445.11945  23594441.94248
  -2973791.41748  -2317237.89744         0.00041  24141232.31844  24141231.91748
  -3000856.83848  -2338326.13945         0.00041  24793990.45945  24793987.44548
 96 10 13 01 46 30.0000000  0  8 19 18 29 22 31 16 03 27
 -12348167.64249  -9621938.81346         0.00041  21796371.31746  21796368.46249
 -10855305.83549  -8458675.91947         0.00041  20494014.42647  20494012.87449
   2678413.79049   2087077.40746         0.00041  21268498.57546  21268497.49749
   7327510.70848   5709751.50046         0.00041  22514397.88546  22514396.60448
   -841927.97548   -656047.77344         0.00041  24715596.11344  24715596.11348
  -7090452.14548  -5525023.78046         0.00041  23579584.42346  23579581.73848
  -3027296.93248  -2358930.47144         0.00041  24131051.66144  24131050.11448
  -3073640.77948  -2395040.80945         0.00041  24780139.68945  24780137.27148
 96 10 13 01 47 00.0000000  0  8 19 18 29 22 31 16 03 27
 -12393924.27149  -9657593.29946         0.00041  21787664.06546  21787662.12049
 -10888977.28749  -8484913.40447         0.00041  20487606.82147  20487605.29949
   2725034.36649   2123405.13446         0.00041  21277369.72946  21277368.91049
   7418216.12248   5780431.05946         0.00041  22531658.98146  22531657.37348
   -924133.66348   -720104.15344         0.00041  24699952.78544  24699952.78548
  -7168107.63148  -5585534.52146         0.00041  23564807.33946  23564804.57248
  -3080454.11148  -2400351.59144         0.00041  24120937.99844  24120935.07048
  -3146229.25448  -2451603.16745         0.00041  24766325.77045  24766322.89048
 96 10 13 01 47 30.0000000  0  8 19 18 29 22 31 16 03 27
 -12439303.73349  -9692953.88546         0.00041  21779029.18446  21779026.80049
 -10922191.81749  -8510794.85047         0.00041  20481286.07147  20481284.56249
   2772122.08449   2160096.86946         0.00041  21286330.65546  21286329.75549
   7509435.64548   5851511.20446         0.00041  22549017.57746  22549016.09348
  -1006242.87448   -784085.35644         0.00041  24684328.10244  24684328.10248
  -7245241.56648  -5645638.85246         0.00041  23550129.15346  23550125.98448
  -3133185.45048  -2441440.91344         0.00041  24110902.23344  24110900.37448
  -3218569.07648  -2507971.76145         0.00041  24752562.20345  24752557.59048
 96 10 13 01 48 00.0000000  0  8 19 18 29 22 31 16 03 27
 -12484004.87849  -9727785.90746         0.00041  21770522.63846  21770520.21749
 -10954598.78549  -8536047.02347         0.00041  20475119.27047  20475117.77549
   2820006.38149   2197409.31246         0.00041  21295442.73246  21295442.13149
   7601513.08848   5923259.87646         0.00041  22566539.36746  22566538.15748
  -1087902.43448   -847716.18244         0.00041  24668789.92244  24668789.92248
  -7321524.00748  -5705079.69446         0.00041  23535613.11446  23535609.91348
  -3185164.41048  -2481943.97644         0.00041  24101012.18044  24101008.83348
  -3290338.59648  -2563896.01645         0.00041  24738904.21945  24738900.52448
 96 10 13 01 48 30.0000000  0  8 19 18 29 22 31 16 03 27
 -12528569.66449  -9762511.68246         0.00041  21762042.40446  21762039.92049
 -10986741.06049  -8561092.94247         0.00041  20469002.91947  20469001.25449
   2868161.98749   2234933.16447         0.00041  21304606.37847  21304605.83849
   7693901.89648   5995251.16046         0.00041  22584119.90446  22584118.28348
  -1169659.18148   -911422.73944         0.00041  24653232.03644  24653232.03648
  -7397498.92948  -5764280.90646         0.00041  23521155.31846  23521152.12948
  -3236949.36248  -2522295.85144         0.00041  24091157.69244  24091154.87748
  -3362074.44248  -2619794.01245         0.00041  24725252.51045  24725249.37048
 96 10 13 01 49 00.0000000  0  8 19 18 29 22 31 16 03 27
 -12573022.36849  -9797150.12846         0.00041  21753582.74346  21753580.76249
 -11018634.30249  -8585944.80847         0.00041  20462933.81847  20462932.25349
   2916565.95349   2272650.53347         0.00041  21313817.20547  21313816.74249
   7786567.13348   6067457.84346         0.00041  22601753.27446  22601752.19748
  -1251561.35448   -975242.61344         0.00041  24637646.37544  24637646.37548
  -7473209.35948  -5823276.05745         0.00041  23506747.94445  23506745.09448
  -3288573.95848  -2562522.78044         0.00041  24081332.15544  24081330.82548
  -3433825.38948  -2675703.77245         0.00041  24711597.70645  24711596.34848
 96 10 13 01 49 30.0000000  0  8 19 18 29 22 31 16 03 27
 -12617590.31249  -9831878.37046         0.00041  21745101.81446  21745099.39749
 -11050497.39149  -8610773.17747         0.00041  20456870.56147  20456868.94549
   2964988.00449   2310382.00147         0.00041  21323031.81547  21323031.16149
   7879262.69148   6139688.16246         0.00041  22619392.27746  22619391.11148
  -1333842.58147  -1039357.85544         0.00041  24621987.92944  24621987.92947
  -7548899.61148  -5882255.44445         0.00041  23492344.80345  23492341.56248
  -3340258.36948  -2602796.30745         0.00041  24071498.10845  24071495.76748
  -3505826.96748  -2731808.80545         0.00041  24697898.28245  24697894.62048
 96 10 13 01 50 00.0000000  0  8 19 18 29 22 31 16 03 27
 -12662199.66049  -9866638.86746         0.00041  21736612.74146  21736610.38849
 -11082278.54149  -8635537.70247         0.00041  20450822.75047  20450821.07649
   3013499.45949   2348183.13447         0.00041  21332263.03447  21332262.30149
   7972037.47648   6211980.21746         0.00041  22637047.71846  22637046.03548
  -1416438.01847  -1103717.93644         0.00041  24606269.09744  24606269.09747
  -7624511.81748  -5941173.99946         0.00041  23477955.77546  23477953.39948
  -3391925.20248  -2643056.13844         0.00041  24061663.01044  24061663.61248
  -3577993.89348  -2788042.69045         0.00041  24684165.37045  24684161.32848
 96 10 13 01 50 30.0000000  0  8 19 18 29 22 31 16 03 27
 -12707514.73049  -9901949.28946         0.00041  21727989.94146  21727987.61549
 -11114671.39249  -8660778.87847         0.00041  20444658.53447  20444656.98849
   3061419.07649   2385523.09647         0.00041  21341382.27947  21341380.92649
   8064184.38048   6283783.01746         0.00041  22654581.70846  22654580.67148
  -1500041.18947  -1168863.26444         0.00041  24590359.89444  24590359.89447
  -7700735.00148  -6000568.67346         0.00041  23463451.64046  23463448.24948
  -3444248.94148  -2683827.85745         0.00041  24051707.73945  24051707.04248
  -3651015.17948  -2844942.32545         0.00041  24670271.38245  24670266.39848
 96 10 13 01 51 00.0000000  0  8 19 18 29 22 31 16 03 27
 -12755027.31049  -9938972.05646         0.00041  21718948.77246  21718946.04549
 -11149147.42649  -8687643.30647         0.00041  20438098.00847  20438096.28849
   3107254.85149   2421239.29246         0.00041  21350104.06946  21350103.46249
   8154206.52248   6353930.14646         0.00041  22671712.96446  22671711.46648
  -1586123.31148  -1235939.68644         0.00041  24573983.23944  24573980.14948
  -7779044.28648  -6061588.85945         0.00041  23448548.58245  23448545.96048
  -3498686.74948  -2726246.89545         0.00041  24041350.17245  24041347.47048
  -3726395.23848  -2903679.95045         0.00041  24655925.15845  24655922.06648
 96 10 13 01 51 30.0000000  0  8 19 18 29 22 31 16 03 27
 -12803679.17249  -9976882.57646         0.00041  21709690.38646  21709687.57849
 -11184660.07249  -8715315.48347         0.00041  20431340.15147  20431338.61549
   3152068.20949   2456158.79247         0.00041  21358632.10047  21358631.18849
   8243164.67748   6423248.20246         0.00041  22688640.79946  22688639.19648
  -1673608.75948  -1304110.10744         0.00041  24557335.40244  24557332.18148
  -7858354.81648  -6123389.25446         0.00041  23433457.70246  23433455.34548
  -3554174.20548  -2769483.85945         0.00041  24030789.42245  24030788.58148
  -3803054.75448  -2963414.56444         0.00041  24641337.00544  24641333.70948
 96 10 13 01 52 00.0000000  0  8 19 18 29 22 31 16 03 27
 -12852660.03049 -10015049.45946         0.00041  21700369.78246  21700366.93849
 -11220406.10449  -8743169.52447         0.00041  20424537.86147  20424536.32749
   3196683.37749   2490923.85847         0.00041  21367121.88447  21367121.15549
   8331893.77348   6492387.76246         0.00041  22705525.14246  22705523.71648
  -1761665.71148  -1372725.85044         0.00041  24540576.74144  24540575.63048
  -7937834.23948  -6185321.24246         0.00041  23418332.35146  23418329.66148
  -3609892.09348  -2812900.33445         0.00041  24020187.88945  24020185.54848
  -3880172.66048  -3023506.36444         0.00041  24626661.60644  24626658.25848
 96 10 13 01 52 30.0000000  0  8 19 18 29 22 31 16 03 27
 -12902049.43249 -10053534.67746         0.00041  21690971.20546  21690968.12249
 -11256473.79849  -8771274.21847         0.00041  20417674.48747  20417672.98049
   3241013.36749   2525466.70747         0.00041  21375557.64647  21375557.13249
   8420327.70748   6561297.33146         0.00041  22722354.00546  22722352.28248
  -1850353.83848  -1441833.42544         0.00041  24523700.34544  24523699.49748
  -8017550.62448  -6247437.87046         0.00041  23403163.59946  23403160.32948
  -3665923.83348  -2856561.39245         0.00041  24009526.15745  24009523.63848
  -3957828.36848  -3084017.22544         0.00041  24611883.02144  24611881.66448
 96 10 13 01 53 00.0000000  0  8 19 18 29 22 31 16 03 27
 -12951893.39049 -10092374.09046         0.00041  21681486.42646  21681483.32949
 -11292906.10249  -8799663.01947         0.00041  20410741.64947  20410740.14449
   3285003.89249   2559745.03247         0.00041  21383928.64347  21383928.23049
   8508435.42848   6629952.71046         0.00041  22739120.41146  22739118.77148
  -1939706.89748  -1511459.09444         0.00041  24506697.64044  24506695.96048
  -8097539.10148  -6309766.50146         0.00041  23387942.16646  23387939.12748
  -3722324.01048  -2900509.56345         0.00041  23998792.86745  23998790.42448
  -4036050.23548  -3144969.24344         0.00041  24596998.53844  24596996.39948
 96 10 13 01 53 30.0000000  0  8 19 18 29 22 31 16 03 27
 -13002104.08149 -10131499.28046         0.00041  21671930.64246  21671928.31449
 -11329629.57349  -8828278.70147         0.00041  20403753.38847  20403751.75649
   3328738.60749   2593824.03047         0.00041  21392251.07147  21392250.56649
   8596307.31448   6698424.31846         0.00041  22755842.22246  22755840.38948
  -2029648.95348  -1581543.77344         0.00041  24489580.20344  24489580.20348
  -8177724.49948  -6372248.62746         0.00041  23372682.74046  23372680.26448
  -3779027.26648  -2944693.88445         0.00041  23988003.06145  23988000.32348
  -4114744.54748  -3206289.37144         0.00041  24582025.02344  24582021.59348
 96 10 13 01 54 00.0000000  0  8 19 18 29 22 31 16 03 27
 -13052548.41949 -10170806.53046         0.00041  21662331.74446  21662329.42749
 -11366482.52249  -8856995.27147         0.00041  20396740.29547  20396738.75549
   3372348.75049   2627805.95747         0.00041  21400550.00247  21400549.59249
   8684058.30748   6766801.72646         0.00041  22772540.40646  22772538.68448
  -2120043.92948  -1651981.37544         0.00041  24472377.92644  24472377.92648
  -8257981.42748  -6434786.46445         0.00041  23357409.98045  23357407.90748
  -3835891.02848  -2989003.29745         0.00041  23977182.04945  23977179.74748
  -4193789.89048  -3267883.08045         0.00041  24566982.74345  24566979.90248
 96 10 13 01 54 30.0000000  0  8 19 18 29 22 31 16 03 27
 -13103144.57449 -10210232.07446         0.00041  21652703.26846  21652700.89249
 -11403369.72649  -8885738.53547         0.00041  20389721.00947  20389719.33149
   3415898.21449   2661740.60447         0.00041  21408837.05147  21408836.52649
   8771729.85848   6835117.21846         0.00041  22789223.05146  22789221.54748
  -2210831.73248  -1722725.08744         0.00041  24455102.19944  24455102.19948
  -8338241.47248  -6497326.71546         0.00041  23342137.75746  23342134.56548
  -3892850.35448  -3033387.15545         0.00041  23966342.60445  23966340.44848
  -4273115.51248  -3329695.19544         0.00041  24551885.53144  24551884.15548
 96 10 13 01 55 00.0000000  0  8 19 18 29 22 31 16 03 27
 -13153822.12949 -10249721.05146         0.00041  21643060.52346  21643057.54149
 -11440196.01749  -8914434.33347         0.00041  20382713.11847  20382711.69349
   3459466.38649   2695689.83046         0.00041  21417128.08946  21417127.22049
   8859387.66048   6903422.01146         0.00041  22805904.04846  22805902.94648
  -2301951.97148  -1793727.80444         0.00041  24437761.58044  24437761.58048
  -8418430.45748  -6559811.61245         0.00041  23326878.30245  23326875.25048
  -3949826.69948  -3077784.26945         0.00041  23955500.42745  23955498.83448
  -4352651.74148  -3391671.39244         0.00041  24536750.48444  24536748.63648
 96 10 13 01 55 30.0000000  0  8 19 18 29 22 31 16 03 27
 -13204400.88549 -10289133.03946         0.00041  21633434.96946  21633432.86849
 -11476776.90049  -8942938.90747         0.00041  20375752.11547  20375750.57149
   3503239.00649   2729798.36246         0.00041  21425457.61846  21425456.98149
   8947206.66348   6971852.41046         0.00041  22822615.79046  22822613.90748
  -2393226.74148  -1864850.92244         0.00041  24420397.76744  24420393.25748
  -8498358.58348  -6622093.26146         0.00041  23311668.07246  23311664.78048
  -4006627.86948  -3122044.86845         0.00041  23944690.75845  23944689.44648
  -4432234.63048  -3453683.90944         0.00041  24521606.11544  24521603.72348
 96 10 13 01 56 00.0000000  0  8 19 18 29 22 31 16 03 27
 -13254801.05349 -10328405.87846         0.00041  21623844.01646  21623842.03049
 -11513041.03249  -8971196.66647         0.00041  20368851.26147  20368849.74449
   3547284.57049   2764119.58646         0.00041  21433839.24546  21433838.38149
   9035262.81448   7040467.58946         0.00041  22839372.27446  22839370.74048
  -2484566.54048  -1936024.75644         0.00041  24403017.28044  24403011.41648
  -8577940.82848  -6684105.34845         0.00041  23296524.17445  23296521.00048
  -4063159.84548  -3166095.72045         0.00041  23933933.36645  23933931.58248
  -4511790.25548  -3515674.41444         0.00041  24506468.08744  24506465.07948
 96 10 13 01 56 30.0000000  0  8 19 18 29 22 31 16 03 27
 -13305056.43149 -10367565.88446         0.00041  21614281.17846  21614278.12149
 -11549042.97449  -8999250.11247         0.00041  20362000.17847  20361998.69849
   3591575.47849   2798631.98846         0.00041  21442267.46446  21442266.59849
   9123558.74648   7109269.62546         0.00041  22856174.34046  22856173.03848
  -2575998.62348  -2007270.46844         0.00041  24385616.10044  24385612.64148
  -8657198.64048  -6745864.66846         0.00041  23281442.60746  23281438.94948
  -4119443.69548  -3209953.26045         0.00041  23923222.98445  23923221.13948
  -4591346.30648  -3577665.98444         0.00041  24491329.30644  24491326.09648
 96 10 13 01 57 00.0000000  0  8 19 18 29 22 31 16 03 27
 -13355243.74949 -10406672.85446         0.00041  21604731.08746  21604727.97949
 -11584857.29349  -9027157.36447         0.00041  20355185.00847  20355183.42349
   3636063.36149   2833297.86746         0.00041  21450733.15446  21450732.45149
   9212052.00348   7178225.42846         0.00041  22873013.65846  22873012.18948
  -2667573.68648  -2078627.60444         0.00041  24368189.63044  24368187.05448
  -8736189.18548  -6807415.71546         0.00041  23266411.27146  23266407.61348
  -4175527.08948  -3253654.57645         0.00041  23912550.25045  23912548.68648
  -4670974.91348  -3639714.18244         0.00041  24476175.43944  24476172.61748
 96 10 13 01 57 30.0000000  0  8 19 18 29 22 31 16 03 27
 -13404931.93549 -10445390.89146         0.00041  21595275.39946  21595273.27049
 -11620054.93849  -9054584.09447         0.00041  20348486.93247  20348485.57649
   3681187.77549   2868459.75146         0.00041  21459319.88646  21459319.32749
   9301171.97748   7247669.57146         0.00041  22889974.04146  22889971.66848
  -2758852.33848  -2149753.78245         0.00041  24350817.46945  24350817.29848
  -8814478.55948  -6868420.38446         0.00041  23251511.90646  23251508.66248
  -4230967.96848  -3296855.22245         0.00041  23902000.33045  23901998.99248
  -4750238.93848  -3701478.25044         0.00041  24461092.50544  24461089.48048
 96 10 13 01 58 00.0000000  0  8 19 18 29 22 31 16 03 27
 -13454295.27549 -10483855.80646         0.00041  21585881.90146  21585879.28949
 -11654782.93349  -9081644.85947         0.00041  20341878.64547  20341876.99049
   3726796.98449   2903999.39446         0.00041  21467999.26046  21467998.35549
   9390758.17848   7317476.99746         0.00041  22907020.74046  22907019.32648
  -2849987.81948  -2220768.38845         0.00041  24333476.19345  24333474.45448
  -8892233.57548  -6929008.68546         0.00041  23236716.87146  23236712.75248
  -4285929.74448  -3339682.57845         0.00041  23891542.03945  23891539.94548
  -4829284.96948  -3763072.51545         0.00041  24446051.32945  24446048.16348
 96 10 13 01 58 30.0000000  0  8 19 18 29 22 31 16 03 27
 -13503029.58549 -10521830.57046         0.00041  21576607.71446  21576605.03049
 -11688699.85849  -9108073.61447         0.00041  20335424.33647  20335422.85149
   3773220.42149   2940173.49946         0.00041  21476833.24646  21476832.58649
   9481109.89348   7387880.94746         0.00041  22924213.17046  22924212.63948
  -2940676.68248  -2291434.96645         0.00041  24316217.32645  24316217.42148
  -8969140.33048  -6988936.00746         0.00041  23222080.62046  23222078.28448
  -4340125.53048  -3381913.03746         0.00041  23881228.35646  23881226.95948
  -4907800.40048  -3824253.33345         0.00041  24431110.62945  24431107.65548
 96 10 13 01 59 00.0000000  0  8 19 18 29 22 31 16 03 27
 -13550928.24549 -10559154.17646         0.00041  21567493.48346  21567490.77749
 -11721581.93549  -9133696.00347         0.00041  20329166.91747  20329165.36649
   3820656.06549   2977136.33246         0.00041  21485859.89246  21485859.35949
   9572391.81948   7459009.72746         0.00041  22941584.60946  22941582.48948
  -3030724.56048  -2361602.10044         0.00041  24299083.96744  24299081.70348
  -9044995.95448  -7048044.25946         0.00041  23207646.74746  23207643.45248
  -4393368.03348  -3423400.71845         0.00041  23871096.26245  23871094.89248
  -4985589.92648  -3884868.51445         0.00041  24416307.22545  24416303.91748
 96 10 13 01 59 30.0000000  0  8 19 18 29 22 31 16 03 27
 -13598672.40849 -10596357.39446         0.00041  21558408.26846  21558405.11849
 -11754113.90749  -9159045.58547         0.00041  20322976.53847  20322974.95449
   3868379.76549   3014323.62146         0.00041  21494941.50746  21494940.73649
   9663888.55248   7530305.88246         0.00041  22958995.08846  22958993.90248
  -3120834.71948  -2431817.78044         0.00041  24281935.95244  24281934.13348
  -9120492.35048  -7106872.61346         0.00041  23193280.94046  23193277.84148
  -4446357.50548  -3464691.15845         0.00041  23861011.81045  23861011.65548
  -5063337.15548  -3945450.75545         0.00041  24401511.40945  24401507.60748
 96 10 13 02 00 00.0000000  0  8 19 18 29 22 31 16 03 27
 -13646365.51349 -10633520.82246         0.00041  21549331.91546  21549328.72849
 -11786409.86549  -9184211.26247         0.00041  20316830.78447  20316829.21849
   3916268.53549   3051639.54646         0.00041  21504054.44646  21504053.61949
   9755479.75548   7601675.66446         0.00041  22976424.50446  22976423.54148
  -3211113.23048  -2502164.59244         0.00041  24264755.19344  24264754.61948
  -9195734.47948  -7165502.82146         0.00041  23178962.64646  23178959.51448
  -4499214.57748  -3505878.45045         0.00041  23850954.57345  23850953.27948
  -5141155.77048  -4006088.57544         0.00041  24386702.75744  24386700.78248
 96 10 13 02 00 30.0000000  0  8 19 18 29 22 31 16 03 27
 -13694118.73949 -10670731.09546         0.00041  21540244.43246  21540242.20149
 -11818612.98949  -9209304.59347         0.00041  20310702.63547  20310701.23349
   3964188.96949   3088980.13746         0.00041  21513173.28246  21513172.64049
   9847033.04948   7673015.89946         0.00041  22993846.88746  22993845.43148
  -3301681.38348  -2572737.15744         0.00041  24247518.08544  24247520.12348
  -9270838.02848  -7224025.02446         0.00041  23164670.42046  23164667.24148
  -4552049.95948  -3547048.86045         0.00041  23840900.28945  23840899.01048
  -5219168.09648  -4066877.30745         0.00041  24371857.38745  24371855.07248
 96 10 13 02 01 00.0000000  0  8 19 18 29 22 31 16 03 27
 -13741768.09649 -10707860.44746         0.00041  21531177.19746  21531175.24249
 -11850597.78549  -9234227.80547         0.00041  20304616.30047  20304614.74149
   4012282.32549   3126455.48146         0.00041  21522325.17246  21522324.44049
   9938700.58048   7744445.14746         0.00041  23011291.11446  23011289.34448
  -3392368.46048  -2643402.35544         0.00041  24230262.96344  24230262.63048
  -9345645.58048  -7282316.62346         0.00041  23150435.20746  23150432.22548
  -4604681.95548  -3588060.76445         0.00041  23830884.77345  23830882.79048
  -5297206.46748  -4127686.36145         0.00041  24357008.06545  24357004.90748
 96 10 13 02 01 30.0000000  0  8 19 18 29 22 31 16 03 27
 -13790164.90649 -10745572.22346         0.00041  21521967.93246  21521964.94549
 -11883227.40149  -9259653.47047         0.00041  20298406.91647  20298405.42749
   4059701.16849   3163405.22546         0.00041  21531348.86546  21531348.23649
  10029648.90348   7815313.97746         0.00041  23028597.62146  23028596.35348
  -3483996.91048  -2714801.07444         0.00041  24212829.72944  24212826.40948
  -9421011.35248  -7341043.19746         0.00041  23136093.61546  23136090.48548
  -4657939.87348  -3629560.41145         0.00041  23820750.13745  23820748.44948
  -5376100.28648  -4189162.02945         0.00041  24341994.07445  24341991.70648
 96 10 13 02 02 00.0000000  0  8 19 18 29 22 31 16 03 27
 -13839348.22649 -10783896.85446         0.00041  21512608.29146  21512605.67749
 -11916540.32149  -9285611.56847         0.00041  20292067.46947  20292065.99549
   4106427.66449   3199815.48846         0.00041  21540240.29446  21540239.90949
  10119851.78648   7885601.94646         0.00041  23045762.74446  23045761.34248
  -3576582.91648  -2786945.97844         0.00041  24195206.74544  24195207.92548
  -9496971.72448  -7400233.05646         0.00041  23121639.17646  23121635.96148
  -4711859.01348  -3671575.30045         0.00041  23810489.13745  23810487.57648
  -5455889.72948  -4251335.55344         0.00041  24326811.31644  24326808.27848
 96 10 13 02 02 30.0000000  0  8 19 18 29 22 31 16 03 27
 -13888308.67149 -10822047.83246         0.00041  21503291.20546  21503289.51049
 -11949514.92349  -9311306.06147         0.00041  20285792.64547  20285791.27449
   4153469.04249   3236471.10846         0.00041  21549192.18646  21549191.65749
  10210325.72148   7956101.12746         0.00041  23062979.23746  23062977.73148
  -3669115.02448  -2859048.86244         0.00041  24177600.61144  24177598.93048
  -9572525.35048  -7459105.96946         0.00041  23107260.94046  23107258.24548
  -4765422.80648  -3713313.29745         0.00041  23800296.84845  23800294.94248
  -5535575.20648  -4313428.07444         0.00041  24311648.27644  24311644.57548
 96 10 13 02 03 00.0000000  0  8 19 18 29 22 31 16 03 27
 -13936859.57849 -10859879.69446         0.00041  21494052.23346  21494050.16549
 -11981954.66049  -9336583.75847         0.00041  20279619.70247  20279618.13749
   4201006.17749   3273513.03346         0.00041  21558238.01546  21558237.56249
  10301263.14348   8026961.46646         0.00041  23080284.11546  23080282.46948
  -3761414.13748  -2930970.20144         0.00041  24160036.85544  24160034.75048
  -9647495.86848  -7517524.55946         0.00041  23092994.35046  23092991.62248
  -4818453.96948  -3754636.25245         0.00041  23790204.67745  23790203.78648
  -5614994.93448  -4375313.49644         0.00041  24296533.81044  24296531.27048
 96 10 13 02 03 30.0000000  0  8 19 18 29 22 31 16 03 27
 -13984865.89749 -10897287.19046         0.00041  21484917.42746  21484914.90749
 -12013708.14849  -9361326.73147         0.00041  20273577.19447  20273575.72149
   4249180.57649   3311051.52546         0.00041  21567405.26446  21567404.88349
  10392814.29348   8098300.03046         0.00041  23097705.51046  23097703.61948
  -3853351.72848  -3002609.82344         0.00041  24142540.67044  24142540.23748
  -9721742.53548  -7575379.08146         0.00041  23078866.08546  23078862.81248
  -4870817.66848  -3795439.11345         0.00041  23780240.38245  23780239.38348
  -5694032.50548  -4436901.16044         0.00041  24281492.51144  24281490.54648
 96 10 13 02 04 00.0000000  0  8 19 18 29 22 31 16 03 27
 -14031796.96449 -10933856.82646         0.00041  21475986.21046  21475984.42549
 -12044227.32149  -9385107.90747         0.00041  20267769.76047  20267768.27949
   4298534.23449   3349508.91346         0.00041  21576797.17246  21576796.53949
  10485497.17448   8170520.47646         0.00041  23115342.19646  23115341.36148
  -3944415.92248  -3073568.87044         0.00041  24125212.46344  24125211.34548
  -9794727.00848  -7632250.07046         0.00041  23064977.95946  23064974.92648
  -4921988.49848  -3835312.45645         0.00041  23770502.84345  23770501.92248
  -5772180.61248  -4497795.76045         0.00041  24266622.30345  24266619.67748
 96 10 13 02 04 30.0000000  0  8 19 18 29 22 31 16 03 27
 -14078232.57949 -10970040.40446         0.00041  21467149.82146  21467147.66249
 -12074086.24249  -9408374.59547         0.00041  20262087.62347  20262086.19249
   4348505.90349   3388447.87146         0.00041  21586306.39746  21586305.91249
  10578731.87448   8243170.91146         0.00041  23133084.42946  23133083.44148
  -4035182.87948  -3144296.34144         0.00041  24107939.78044  24107938.71648
  -9867012.70748  -7688576.58046         0.00041  23051221.93746  23051218.96148
  -4972525.33648  -3874691.78445         0.00041  23760886.05845  23760884.79248
  -5850001.39348  -4558435.25245         0.00041  24251814.24645  24251810.92248
 96 10 13 02 05 00.0000000  0  8 19 18 29 22 31 16 03 27
 -14124737.54449 -11006278.01446         0.00041  21458300.02346  21458297.91049
 -12103848.21549  -9431565.73447         0.00041  20256424.06847  20256422.55949
   4398551.06549   3427444.09846         0.00041  21595829.67146  21595829.19049
  10671948.38748   8315807.15546         0.00041  23150823.45446  23150822.00048
  -4126198.03848  -3215217.23045         0.00041  24090620.19345  24090618.83448
  -9939139.32348  -7744779.11046         0.00041  23037496.19146  23037493.02148
  -5022971.50148  -3914000.45045         0.00041  23751286.84145  23751285.36148
  -5928031.34448  -4619237.74345         0.00041  24236964.78545  24236962.66948
 96 10 13 02 05 30.0000000  0  8 19 18 29 22 31 16 03 27
 -14171689.88549 -11042864.22846         0.00041  21449365.64546  21449362.91749
 -12133864.51149  -9454955.04147         0.00041  20250712.17847  20250710.80749
   4448317.87649   3466223.43446         0.00041  21605299.82346  21605299.45749
  10764764.78348   8388131.62446         0.00041  23168485.21246  23168484.03348
  -4217806.80448  -3286600.66145         0.00041  24073188.38745  24073186.02848
 -10011461.99548  -7801134.42846         0.00041  23023734.30246  23023730.75448
  -5073687.36248  -3953519.27045         0.00041  23741634.97245  23741633.96048
  -6006608.53548  -4680466.67245         0.00041  24222013.10945  24222009.89848
 96 10 13 02 06 00.0000000  0  8 19 18 29 22 31 16 03 27
 -14219157.88049 -11079852.25446         0.00041  21440332.76046  21440330.20849
 -12164193.50149  -9478588.01447         0.00041  20244940.82747  20244939.33949
   4497751.12749   3504742.85046         0.00041  21614707.09246  21614706.53049
  10857108.16848   8460087.52746         0.00041  23186058.37046  23186056.71148
  -4310050.52048  -3358478.84345         0.00041  24055637.23445  24055633.28248
 -10084044.74848  -7857692.37746         0.00041  23009922.48246  23009918.97448
  -5124737.81748  -3993298.81445         0.00041  23731921.49145  23731919.04148
  -6085778.78748  -4742157.72645         0.00041  24206946.17145  24206943.40448
 96 10 13 02 06 30.0000000  0  8 19 18 29 22 31 16 03 27
 -14266924.18649 -11117072.73746         0.00041  21431243.20546  21431240.92749
 -12194632.11549  -9502306.41047         0.00041  20239148.50147  20239146.85949
   4547054.40949   3543160.98846         0.00041  21624088.93846  21624088.43249
  10949200.95548   8531848.13746         0.00041  23203582.40946  23203580.88648
  -4402692.80348  -3430667.57745         0.00041  24038005.86945  24038003.86848
 -10156669.41848  -7914283.00646         0.00041  22996102.19546  22996099.42948
  -5175899.23548  -4033164.81845         0.00041  23722185.99445  23722183.82348
  -6165311.00548  -4804130.80745         0.00041  24191812.74245  24191808.57748
 96 10 13 02 07 00.0000000  0  8 19 18 29 22 31 16 03 27
 -14313931.48149 -11153701.78046         0.00041  21422297.93046  21422295.58549
 -12224128.18149  -9525290.35447         0.00041  20233535.55147  20233534.06949
   4597269.30049   3582289.47846         0.00041  21633644.54246  21633644.08349
  11042095.41848   8604233.43046         0.00041  23221259.47846  23221258.25948
  -4494681.80348  -3502347.29145         0.00041  24020501.12045  24020499.31348
 -10228289.81148  -7970091.10746         0.00041  22982473.16446  22982470.00748
  -5226125.67448  -4072302.28145         0.00041  23712627.60645  23712625.75948
  -6244168.15048  -4865577.89845         0.00041  24176806.55645  24176802.24748
 96 10 13 02 07 30.0000000  0  8 19 18 29 22 31 16 03 27
 -14359889.34449 -11189513.08646         0.00041  21413552.53646  21413550.37049
 -12252404.37549  -9547323.75647         0.00041  20228154.72847  20228153.30749
   4648662.21749   3622335.90246         0.00041  21643424.14146  21643423.61049
  11136079.17648   8677467.52746         0.00041  23239143.77146  23239142.92848
  -4585745.41048  -3573305.92245         0.00041  24003172.22245  24003170.27148
 -10298637.59448  -8024907.53646         0.00041  22969085.86646  22969082.70748
  -5275145.66548  -4110499.67245         0.00041  23703299.61245  23703298.02048
  -6322080.13948  -4926288.49845         0.00041  24161981.45645  24161976.33048
 96 10 13 02 08 00.0000000  0  8 19 18 29 22 31 16 03 27
 -14404972.26749 -11224642.61746         0.00041  21404973.53646  21404971.17449
 -12279664.57049  -9568565.46047         0.00041  20222967.48247  20222965.90649
   4701028.99349   3663141.18046         0.00041  21653389.33446  21653388.74649
  11230975.82448   8751412.97146         0.00041  23257201.76446  23257200.93548
  -4676080.57448  -3643696.90645         0.00041  23985982.24345  23985980.27348
 -10367892.49948  -8078872.37446         0.00041  22955907.63546  22955904.64548
  -5323132.76748  -4147892.18145         0.00041  23694167.23345  23694166.76248
  -6399242.13248  -4986414.65344         0.00041  24147296.52544  24147293.45248
 96 10 13 02 08 30.0000000  0  8 19 18 29 22 31 16 03 27
 -14449220.36949 -11259121.63146         0.00041  21396553.53246  21396550.71049
 -12305953.73449  -9589050.50847         0.00041  20217964.63647  20217963.08749
   4754317.23249   3704664.47946         0.00041  21663530.10746  21663529.17949
  11326736.99948   8826032.07046         0.00041  23275423.64646  23275423.55148
  -4765750.28748  -3713569.39045         0.00041  23968918.54145  23968916.56048
 -10436085.63648  -8132009.88546         0.00041  22942931.17346  22942928.13348
  -5370118.20948  -4184504.18645         0.00041  23685227.04945  23685225.31048
  -6475702.86048  -5045994.36345         0.00041  24132746.05745  24132742.81948
 96 10 13 02 09 00.0000000  0  8 19 18 29 22 31 16 03 27
 -14492528.36749 -11292868.10046         0.00041  21388311.83346  21388309.57649
 -12331151.05149  -9608684.77447         0.00041  20213169.79247  20213168.26049
   4808638.45249   3746992.69846         0.00041  21673866.79246  21673866.11849
  11423458.43248   8901399.43546         0.00041  23293830.14446  23293828.96848
  -4854663.83648  -3782852.62745         0.00041  23951999.69045  23951996.67048
 -10503107.01948  -8184234.31146         0.00041  22930177.27646  22930174.18148
  -5416002.02348  -4220257.77845         0.00041  23676494.83545  23676493.98148
  -6551369.83048  -5104955.61245         0.00041  24118346.37145  24118344.69348
 96 10 13 02 09 30.0000000  0  8 19 18 29 22 31 16 03 27
 -14534357.60049 -11325462.28946         0.00041  21380352.06546  21380349.59649
 -12354696.45149  -9627031.83447         0.00041  20208689.23247  20208687.72149
   4864539.03749   3790551.59246         0.00041  21684504.26746  21684503.81249
  11521681.45348   8977936.84646         0.00041  23312520.63246  23312519.85048
  -4942272.49648  -3851119.08645         0.00041  23935326.12945  23935325.55948
 -10568405.47448  -8235116.20346         0.00041  22917750.62346  22917748.06348
  -5460225.81348  -4254717.83945         0.00041  23668080.26845  23668078.49748
  -6625695.99748  -5162872.04745         0.00041  24104204.29345  24104201.37048
 96 10 13 02 10 00.0000000  0  8 19 18 29 22 31 16 03 27
 -14575742.48949 -11357710.23646         0.00041  21372476.88046  21372474.50949
 -12377609.64349  -9644886.26947         0.00041  20204329.12147  20204327.56549
   4921007.12849   3834552.69346         0.00041  21695250.11446  21695249.25349
  11620372.79948   9054839.21546         0.00041  23331301.51546  23331300.49748
  -5029597.84348  -3919164.78045         0.00041  23918708.73145  23918707.43548
 -10633000.77448  -8285450.18146         0.00041  22905459.04146  22905456.11548
  -5503815.88248  -4288684.10845         0.00041  23659784.62445  23659783.86448
  -6699699.86848  -5220537.33445         0.00041  24090121.81645  24090117.97548
 96 10 13 02 10 30.0000000  0  8 19 18 29 22 31 16 03 27
 -14617350.84249 -11390132.32046         0.00041  21364559.04146  21364556.61749
 -12400540.12649  -9662754.15347         0.00041  20199965.43847  20199964.06349
   4977395.04349   3878491.32646         0.00041  21705980.22046  21705979.44449
  11718855.09948   9131578.66946         0.00041  23350042.17146  23350041.19848
  -5117292.84848  -3987498.53045         0.00041  23902021.30945  23902020.05548
 -10697564.85748  -8335759.83746         0.00041  22893172.73546  22893169.64748
  -5547440.11348  -4322676.99045         0.00041  23651483.35045  23651482.04648
  -6774045.50348  -5278468.93145         0.00041  24075975.14845  24075970.96748
 96 10 13 02 11 00.0000000  0  8 19 18 29 22 31 16 03 27
 -14659636.72249 -11423082.33846         0.00041  21356512.16346  21356509.95349
 -12423947.78049  -9680993.86947         0.00041  20195511.22247  20195509.84649
   5033238.06149   3922005.35846         0.00041  21716606.94546  21716606.11249
  11816678.38948   9207804.61946         0.00041  23368657.37446  23368656.51048
  -5205792.93248  -4056459.62245         0.00041  23885179.57345  23885178.93148
 -10762569.37248  -8386412.70246         0.00041  22880803.10246  22880800.42348
  -5591557.15248  -4357053.87045         0.00041  23643088.09345  23643086.97148
  -6849185.48048  -5337019.52145         0.00041  24061674.63845  24061671.46248
 96 10 13 02 11 30.0000000  0  8 19 18 29 22 31 16 03 27
 -14702995.13449 -11456868.10146         0.00041  21348261.42446  21348259.14649
 -12448228.89249  -9699914.21747         0.00041  20190890.51747  20190889.10649
   5088133.03449   3964780.66346         0.00041  21727052.86446  21727051.98049
  11913458.52548   9283217.72146         0.00041  23387074.55046  23387072.83248
  -5295468.50948  -4126336.67845         0.00041  23868116.02545  23868114.30348
 -10828406.14948  -8437714.06846         0.00041  22868274.36246  22868271.40348
  -5636554.30648  -4392116.58545         0.00041  23634525.32245  23634524.08148
  -6925491.90348  -5396479.09745         0.00041  24047154.68845  24047151.16948
 96 10 13 02 12 00.0000000  0  8 19 18 29 22 31 16 03 27
 -14746659.89549 -11490892.57546         0.00041  21339952.02846  21339949.87949
 -12472628.40449  -9718926.82147         0.00041  20186247.41847  20186246.13249
   5142840.11149   4007409.55246         0.00041  21737463.77946  21737462.46749
  12009954.95148   9358409.75645         0.00041  23405436.97445  23405435.08348
  -5385544.36148  -4196525.63045         0.00041  23850975.09745  23850972.76248
 -10894309.62448  -8489067.40246         0.00041  22855734.20946  22855731.18348
  -5681679.70448  -4427279.20845         0.00041  23625938.31945  23625937.43348
  -7002198.21148  -5456250.18445         0.00041  24032559.84145  24032553.12948
 96 10 13 02 12 30.0000000  0  8 19 18 29 22 31 16 03 27
 -14790172.67249 -11524798.61646         0.00041  21331672.04946  21331669.73749
 -12496681.67749  -9737669.63147         0.00041  20181670.13947  20181668.77449
   5197821.78849   4050252.41046         0.00041  21747925.94846  21747925.05349
  12106623.36548   9433735.81345         0.00041  23423833.13945  23423830.60048
  -5475557.63448  -4266665.81945         0.00041  23833846.57645  23833844.34948
 -10959804.63748  -8540102.46446         0.00041  22843269.97546  22843267.66748
  -5726463.08548  -4462175.30646         0.00041  23617416.48246  23617415.48848
  -7078861.39948  -5515987.66045         0.00041  24017968.64745  24017965.86948
 96 10 13 02 13 00.0000000  0  8 19 18 29 22 31 16 03 27
 -14833355.10549 -11558447.24646         0.00041  21323454.58246  21323452.33549
 -12520204.03349  -9755998.73947         0.00041  20177193.96747  20177192.58349
   5253258.60549   4093449.93446         0.00041  21758475.49146  21758474.39849
  12203643.99548   9509336.32246         0.00041  23442294.82646  23442294.15548
  -5565328.94648  -4336617.44845         0.00041  23816763.21145  23816761.29848
 -11024693.05148  -8590664.87146         0.00041  22830921.36346  22830919.41148
  -5770723.76148  -4496664.14945         0.00041  23608993.01345  23608992.53348
  -7155305.54648  -5575554.50645         0.00041  24003422.39445  24003419.94448
 96 10 13 02 13 30.0000000  0  8 19 18 29 22 31 16 03 27
 -14876286.39849 -11591900.18646         0.00041  21315284.87846  21315282.80549
 -12543265.79749  -9773968.93147         0.00041  20172805.65747  20172804.17349
   5309084.06949   4136950.28846         0.00041  21769098.35746  21769097.85449
  12300914.64948   9585131.66346         0.00041  23460805.03446  23460803.85448
  -5654946.14748  -4406449.01345         0.00041  23799709.43645  23799707.40948
 -11089044.42348  -8640808.78946         0.00041  22818675.74646  22818673.76448
  -5814550.15448  -4530814.55145         0.00041  23600653.67745  23600652.82048
  -7231618.00148  -5635018.73245         0.00041  23988901.04945  23988897.99948
 96 10 13 02 14 00.0000000  0  8 19 18 29 22 31 16 03 27
 -14918704.43349 -11624953.17946         0.00041  21307213.35046  21307210.98349
 -12565615.53249  -9791384.29747         0.00041  20168552.54747  20168551.19149
   5365564.51749   4180961.02546         0.00041  21779846.27446  21779845.77249
  12398669.02948   9661303.91746         0.00041  23479407.46446  23479405.88248
  -5744164.33548  -4475969.65745         0.00041  23782731.73945  23782730.02248
 -11152599.94548  -8690332.54046         0.00041  22806582.25046  22806579.09148
  -5857686.13748  -4564427.00245         0.00041  23592444.99445  23592444.15048
  -7307558.01948  -5694192.73345         0.00041  23974449.49445  23974445.80448
 96 10 13 02 14 30.0000000  0  8 19 18 29 22 31 16 03 27
 -14960678.03049 -11657659.86446         0.00041  21299225.64046  21299223.51549
 -12587326.92849  -9808302.26947         0.00041  20164421.09547  20164419.75249
   5422620.10049   4225419.90946         0.00041  21790703.79546  21790702.89649
  12496820.97348   9737785.96645         0.00041  23498084.44345  23498083.33548
  -5833063.85048  -4545241.98745         0.00041  23765814.38545  23765812.91148
 -11215439.26548  -8739298.22246         0.00041  22794624.37846  22794621.99748
  -5900196.17748  -4597551.68446         0.00041  23584356.27746  23584354.55448
  -7383207.52348  -5753140.34045         0.00041  23960053.75745  23960050.62448
 96 10 13 02 15 00.0000000  0  8 19 18 29 22 31 16 03 27
 -15002149.83649 -11689975.54346         0.00041  21291333.66846  21291331.36249
 -12608371.00849  -9824700.23747         0.00041  20160416.49947  20160415.05149
   5480265.51449   4270338.41046         0.00041  21801673.00546  21801672.40149
  12595404.85248   9814604.57945         0.00041  23516843.95145  23516842.85948
  -5921590.10748  -4614223.43645         0.00041  23748967.94645  23748967.18948
 -11277546.60948  -8787693.54846         0.00041  22782805.14246  22782802.61248
  -5942045.08348  -4630161.21946         0.00041  23576392.25646  23576391.29648
  -7458519.72448  -5811825.13445         0.00041  23945722.28345  23945719.42048
 96 10 13 02 15 30.0000000  0  8 19 18 29 22 31 16 03 27
 -15043436.84049 -11722147.22246         0.00041  21283477.32846  21283474.92849
 -12629081.76049  -9840838.47547         0.00041  20156475.37847  20156473.93549
   5538164.23649   4315454.29446         0.00041  21812691.10246  21812690.16349
  12694093.09748   9891504.54545         0.00041  23535623.62745  23535622.47948
  -6010059.04948  -4683160.24445         0.00041  23732132.59745  23732132.16148
 -11339261.47648  -8835783.04046         0.00041  22771061.64746  22771058.74648
  -5983562.27248  -4662512.34345         0.00041  23568492.24445  23568490.58448
  -7533819.18548  -5870500.03645         0.00041  23931392.69845  23931389.91448
 96 10 13 02 16 00.0000000  0  8 19 18 29 22 31 16 03 27
 -15083984.09849 -11753742.48046         0.00041  21275761.56046  21275759.30449
 -12648894.53749  -9856277.00747         0.00041  20152705.10747  20152703.56849
   5596884.67349   4361210.47746         0.00041  21823865.31846  21823864.38249
  12793469.51148   9968940.71645         0.00041  23554535.63645  23554533.69248
  -6097898.73648  -4751606.71945         0.00041  23715418.27345  23715417.26648
 -11400007.11848  -8883117.29846         0.00041  22759502.60246  22759499.66048
  -6024152.65648  -4694141.21946         0.00041  23560768.28346  23560766.50248
  -7608535.53748  -5928720.54445         0.00041  23917175.15245  23917171.94848
 96 10 13 02 16 30.0000000  0  8 19 18 29 22 31 16 03 27
 -15123845.73549 -11784803.47746         0.00041  21268175.83646  21268173.73549
 -12667844.29449  -9871043.04147         0.00041  20149098.93947  20149097.57749
   5656380.05449   4407570.51446         0.00041  21835186.86046  21835185.96249
  12893502.17248  10046888.23745         0.00041  23573569.54645  23573569.15248
  -6185141.48048  -4819588.04945         0.00041  23698815.40845  23698814.97748
 -11459825.57048  -8929729.05646         0.00041  22748119.16046  22748116.49848
  -6063853.59248  -4725076.77645         0.00041  23553213.20945  23553211.40548
  -7682708.18748  -5986517.37645         0.00041  23903060.61045  23903057.88148
 96 10 13 02 17 00.0000000  0  8 19 18 29 22 31 16 03 27
 -15163049.81249 -11815352.09546         0.00041  21260715.94646  21260713.50149
 -12685930.71349  -9885136.34347         0.00041  20145657.35547  20145656.13249
   5716647.82049   4454532.41146         0.00041  21846655.36546  21846654.86749
  12994195.44248  10125350.51745         0.00041  23592731.43145  23592730.64348
  -6271798.84548  -4887113.25945         0.00041  23682325.69845  23682324.59648
 -11518719.86448  -8975620.70246         0.00041  22736912.17346  22736909.04148
  -6102678.32048  -4755329.83045         0.00041  23545826.10245  23545822.95448
  -7756342.54048  -6043894.76745         0.00041  23889046.89245  23889044.76048
 96 10 13 02 17 30.0000000  0  8 19 18 29 22 31 16 03 27
 -15201921.72149 -11845641.87946         0.00041  21253318.73946  21253316.28049
 -12703439.22349  -9898779.32047         0.00041  20142325.47947  20142324.33949
   5777426.51649   4501892.42946         0.00041  21858220.94246  21858220.42149
  13095263.18748  10204104.60545         0.00041  23611964.54745  23611962.85148
  -6358167.32848  -4954413.35845         0.00041  23665890.14945  23665889.29948
 -11576957.19948  -9021000.43046         0.00041  22725830.21246  22725826.79448
  -6140904.13548  -4785116.16145         0.00041  23538549.83845  23538549.26148
  -7829724.19048  -6101075.24745         0.00041  23875083.64945  23875081.32148
 96 10 13 02 18 00.0000000  0  8 19 18 29 22 31 16 03 27
 -15240162.38049 -11875439.78046         0.00041  21246041.40946  21246039.27649
 -12720058.01749  -9911729.02347         0.00041  20139163.05947  20139161.73949
   5839042.36349   4549904.77246         0.00041  21869946.00246  21869945.56249
  13197019.17748  10283395.00744         0.00041  23631327.71844  23631326.05148
  -6443926.84748  -5021238.90945         0.00041  23649571.18345  23649569.33048
 -11634212.31348  -9065614.80046         0.00041  22714934.97346  22714931.81248
  -6178208.50148  -4814184.48845         0.00041  23531451.86945  23531450.36348
  -7902534.70148  -6157810.67845         0.00041  23861227.53445  23861226.54548
 96 10 13 02 18 30.0000000  0  8 19 18 29 22 31 16 03 27
 -15278229.65249 -11905102.57846         0.00041  21238797.49246  21238795.43549
 -12736258.85849  -9924353.04147         0.00041  20136080.22147  20136078.71449
   5901007.68849   4598189.43446         0.00041  21881737.70346  21881737.08949
  13298977.59448  10362843.10744         0.00041  23650729.36444  23650727.22148
  -6529541.08948  -5087951.27045         0.00041  23633278.67045  23633277.61948
 -11690967.59348  -9109839.67146         0.00041  22704134.56046  22704131.24948
  -6215087.86748  -4842921.61745         0.00041  23524435.22345  23524432.89948
  -7975240.61448  -6214464.58045         0.00041  23847392.67645  23847391.15148
 96 10 13 02 19 00.0000000  0  8 19 18 29 22 31 16 03 27
 -15316031.37549 -11934558.45046         0.00041  21231604.24046  21231602.10449
 -12751971.96849  -9936597.02647         0.00041  20133090.20147  20133088.64149
   5963400.45249   4646807.16546         0.00041  21893610.97946  21893609.95949
  13401215.86248  10442509.26744         0.00041  23670183.22544  23670182.78048
  -6614919.82848  -5154480.16145         0.00041  23617032.73645  23617030.56948
 -11747138.29248  -9153609.03346         0.00041  22693445.79846  22693442.58848
  -6251461.51948  -4871264.69545         0.00041  23517511.96145  23517510.88548
  -8047762.87248  -6270975.40945         0.00041  23833592.49345  23833590.46648
 96 10 13 02 19 30.0000000  0  8 19 18 29 22 31 16 03 27
 -15353369.35249 -11963652.95946         0.00041  21224499.23746  21224496.76949
 -12767032.54349  -9948332.54147         0.00041  20130224.21947  20130222.69849
   6026386.66849   4695887.32546         0.00041  21905596.22746  21905595.64449
  13503891.48148  10522516.26044         0.00041  23689724.47344  23689721.41648
  -6699877.84248  -5220681.18045         0.00041  23600865.30445  23600863.35248
 -11802542.15748  -9196780.87646         0.00041  22682902.53246  22682899.39548
  -6287154.88948  -4899077.68945         0.00041  23510719.25645  23510718.69648
  -8119932.87548  -6327211.73745         0.00041  23819858.59245  23819856.51048
 96 10 13 02 20 00.0000000  0  7 19 18 29 31 16 03 27
 -15389813.64849 -11992051.09446         0.00041  21217564.06046  21217561.41149
 -12781021.71949  -9959233.17247         0.00041  20127562.23747  20127560.70749
   6090338.80249   4745720.14446         0.00041  21917766.54146  21917765.43849
  -6784014.60048  -5286242.26945         0.00041  23584854.95045  23584853.15748
 -11856790.78648  -9239052.51846         0.00041  22672579.32646  22672576.58648
  -6321769.26148  -4926049.89046         0.00041  23504133.53846  23504132.02348
  -8191351.31948  -6382862.43545         0.00041  23806268.17045  23806266.52848
 96 10 13 02 20 30.0000000  0  7 19 18 29 31 16 03 27
 -15425378.54649 -12019763.98546         0.00041  21210795.98646  21210793.52149
 -12793961.09349  -9969315.80047         0.00041  20125099.81247  20125098.43849
   6155217.33849   4796274.83646         0.00041  21930112.42346  21930111.62149
  -6867374.77448  -5351198.22545         0.00041  23568991.67545  23568990.11348
 -11909918.03048  -9280450.36046         0.00041  22662469.95846  22662466.86148
  -6355327.55648  -4952199.18145         0.00041  23497746.21845  23497745.60448
  -8262055.73148  -6437956.75145         0.00041  23792813.01645  23792811.54848
 96 10 13 02 21 00.0000000  0  7 19 18 29 31 16 03 27
 -15459421.45449 -12046290.90746         0.00041  21204317.85946  21204315.30649
 -12805182.28349  -9978059.57147         0.00041  20122964.54047  20122963.16449
   6221696.96249   4848077.13146         0.00041  21942763.54146  21942762.42549
  -6949306.96048  -5415041.48045         0.00041  23553399.04645  23553398.57348
 -11961254.37548  -9320452.69646         0.00041  22652700.59846  22652697.55148
  -6387159.48148  -4977003.25146         0.00041  23491690.56946  23491688.63448
  -8331397.84648  -6491989.50845         0.00041  23779618.52445  23779616.14648
 96 10 13 02 21 30.0000000  0  7 19 18 29 31 16 03 27
 -15491689.76249 -12071435.02646         0.00041  21198177.28046  21198175.02749
 -12814400.26649  -9985242.41047         0.00041  20121210.30147  20121208.92749
   6290054.82549   4901342.98846         0.00041  21955771.38846  21955770.22949
  -7029557.21248  -5477574.09845         0.00041  23538128.83445  23538127.67248
 -12010530.19548  -9358849.42546         0.00041  22643323.44746  22643320.40248
  -6416987.26348  -5000245.64045         0.00041  23486013.18745  23486011.90848
  -8399100.30748  -6544744.63845         0.00041  23766734.49445  23766732.66648
 96 10 13 02 22 00.0000000  0  7 19 18 29 31 16 03 27
 -15521609.29949 -12094748.93246         0.00041  21192483.86946  21192481.81849
 -12821015.78949  -9990397.36147         0.00041  20119951.45247  20119949.98449
   6360897.55749   4956545.10946         0.00041  21969252.00946  21969251.39949
  -7107536.98148  -5538337.52045         0.00041  23523288.68845  23523288.72248
 -12057159.10048  -9395183.63346         0.00041  22634450.61046  22634447.67048
  -6444212.46048  -5021460.05946         0.00041  23480832.71346  23480830.80148
  -8464556.78848  -6595749.65945         0.00041  23754278.41545  23754276.06448
 96 10 13 02 22 30.0000000  0  7 19 18 29 31 16 03 27
 -15550624.20949 -12117357.92946         0.00041  21186962.52146  21186960.54949
 -12826480.15749  -9994655.31847         0.00041  20118911.68347  20118910.18949
   6432812.14549   5012582.44046         0.00041  21982937.25146  21982936.26549
  -7184668.28548  -5598439.83245         0.00041  23508613.08345  23508610.87148
 -12102560.60048  -9430561.41846         0.00041  22625810.82946  22625807.87448
  -6470273.86848  -5041767.61546         0.00041  23475874.18146  23475872.08248
  -8529204.65748  -6646124.56445         0.00041  23741976.72745  23741973.53548
 96 10 13 02 23 00.0000000  0  7 19 18 29 31 16 03 27
 -15582444.97749 -12142153.30847         0.00041  21180907.13547  21180905.30649
 -12834493.44349 -10000899.42147         0.00041  20117386.73647  20117385.28549
   6502105.06149   5066576.92246         0.00041  21996122.98046  21996121.98449
  -7264630.90448  -5660748.36645         0.00041  23493396.02645  23493394.48748
 -12150428.33748  -9467860.94146         0.00041  22616701.97446  22616698.77848
  -6498870.94348  -5064051.01546         0.00041  23470431.48046  23470430.14148
  -8596735.75748  -6698746.16645         0.00041  23729127.28745  23729123.39748
 96 10 13 02 23 30.0000000  0  7 19 18 29 31 16 03 27
 -15614836.71449 -12167393.61047         0.00041  21174743.31747  21174741.37849
 -12842848.59349 -10007409.91347         0.00041  20115796.62347  20115795.25549
   6570980.92749   5120246.42446         0.00041  22009230.00646  22009228.54249
  -7345195.00548  -5723525.55045         0.00041  23478064.65645  23478063.49648
 -12198559.14748  -9505365.45746         0.00041  22607542.24946  22607540.17748
  -6527786.27748  -5086582.42546         0.00041  23464929.26146  23464927.54848
  -8664925.56148  -6751881.05145         0.00041  23716149.90345  23716146.74448
 96 10 13 02 24 00.0000000  0  7 19 18 29 31 16 03 27
 -15647033.43049 -12192481.94047         0.00041  21168616.06647  21168614.14549
 -12850801.84049 -10013607.24947         0.00041  20114283.15847  20114281.81049
   6640175.99849   5174164.65546         0.00041  22022397.06246  22022395.88849
  -7425591.91848  -5786172.47245         0.00041  23462766.36745  23462764.51148
 -12246206.81248  -9542493.51546         0.00041  22598475.46846  22598472.41348
  -6556272.26448  -5108779.30246         0.00041  23459507.85046  23459507.09748
  -8733030.07048  -6804949.47245         0.00041  23703191.38045  23703186.63948
 96 10 13 02 24 30.0000000  0  7 19 18 29 31 16 03 27
 -15678687.69049 -12217147.58346         0.00041  21162592.44246  21162590.47349
 -12858013.77649 -10019226.93347         0.00041  20112910.91847  20112909.62049
   6710022.17849   5228590.24846         0.00041  22035688.19246  22035687.09649
  -7505470.91148  -5848415.81545         0.00041  23447565.68445  23447564.02748
 -12293019.20648  -9578970.68046         0.00041  22589567.42046  22589564.88548
  -6583974.97148  -5130365.80246         0.00041  23454236.58646  23454235.38548
  -8800722.84948  -6857697.04645         0.00041  23690308.54745  23690306.04348
 96 10 13 02 25 00.0000000  0  7 19 18 29 31 16 03 27
 -15709874.14449 -12241448.70146         0.00041  21156657.91046  21156655.83249
 -12864543.04649 -10024314.66747         0.00041  20111668.37547  20111666.99049
   6780441.28749   5283462.27246         0.00041  22049088.40146  22049087.55749
  -7584897.18348  -5910306.39145         0.00041  23432450.23445  23432449.72948
 -12339066.65748  -9614851.81546         0.00041  22580804.29246  22580802.65948
  -6610953.19448  -5151387.78045         0.00041  23449102.51045  23449101.32048
  -8868071.47548  -6910176.45545         0.00041  23677492.24445  23677489.41848
 96 10 13 02 25 30.0000000  0  8 19 18 29 10 31 16 03 27
 -15740756.28949 -12265512.69347         0.00041  21150781.44747  21150779.38449
 -12870563.73249 -10029006.10247         0.00041  20110522.80947  20110521.26649
   6851261.27049   5338646.67046         0.00041  22062565.20146  22062564.65149
         0.08357         0.06554         0.00051  25126142.91154  25126142.91157
  -7664036.15848  -5971973.10945         0.00041  23417392.24145  23417390.25648
 -12384519.31048  -9650269.46246         0.00041  22572155.79146  22572152.60748
  -6637383.32648  -5171982.68546         0.00041  23444072.51846  23444071.94748
  -8935244.90548  -6962519.36945         0.00041  23664709.60545  23664707.23348
 96 10 13 02 26 00.0000000  0  8 19 18 29 10 31 16 03 27
 -15771484.35349 -12289456.62247         0.00041  21144934.12647  21144931.93349
 -12876203.77649 -10033400.95047         0.00041  20109449.44447  20109448.15649
   6922346.00849   5394037.36146         0.00041  22076092.07446  22076091.53449
    -82911.51447    -64606.37444         0.00041  25110363.72844  25110363.72847
  -7743024.17648  -6033522.20745         0.00041  23402360.80645  23402359.84548
 -12429505.18448  -9685323.36546         0.00041  22563594.88846  22563592.63348
  -6663405.82948  -5192259.89846         0.00041  23439120.43046  23439120.24548
  -9002393.10648  -7014842.61545         0.00041  23651932.19745  23651929.30448
 96 10 13 02 26 30.0000000  0  8 19 18 29 10 31 16 03 27
 -15802507.96749 -12313630.85447         0.00041  21139030.84247  21139028.43949
 -12881901.04149 -10037840.38148         0.00041  20108365.32648  20108364.09849
   6993263.97949   5449298.10046         0.00041  22089587.22546  22089586.97749
   -166020.61048   -129366.88044         0.00041  25094549.06244  25094549.06248
  -7822296.92048  -6095293.12245         0.00041  23387276.83945  23387274.20548
 -12474450.61648  -9720345.78646         0.00041  22555042.18246  22555039.79148
  -6689464.44648  -5212565.27745         0.00041  23434161.88445  23434161.34748
  -9069954.90548  -7067488.13545         0.00041  23639076.14345  23639072.47348
 96 10 13 02 27 00.0000000  0  8 19 18 29 10 31 16 03 27
 -15833396.33649 -12337699.69347         0.00041  21133152.92747  21133150.53549
 -12887226.52949 -10041990.11248         0.00041  20107351.94448  20107350.71649
   7064437.87449   5504758.27346         0.00041  22103131.55646  22103130.70849
   -248880.75548   -193933.20744         0.00041  25078784.68044  25078780.64348
  -7901426.02948  -6156952.15445         0.00041  23372217.72945  23372216.45948
 -12518936.98848  -9755010.49446         0.00041  22546576.29246  22546573.88148
  -6715148.95248  -5232579.16646         0.00041  23429274.27246  23429273.67748
  -9137490.46348  -7120113.21445         0.00041  23626223.83945  23626220.36548
 96 10 13 02 27 30.0000000  0  7 19 18 29 10 31 16 27
 -15863747.18849 -12361349.68347         0.00041  21127377.23747  21127374.80849
 -12891792.46749 -10045547.99748         0.00041  20106483.09848  20106481.78749
   7136260.92249   5560724.27746         0.00041  22116798.74846  22116798.20449
   -331091.74848   -257993.67344         0.00041  25063136.90844  25063136.90848
  -7980026.29748  -6218199.06946         0.00041  23357260.50346  23357259.22748
 -12562566.66848  -9789007.62946         0.00041  22538274.57846  22538271.67548
  -9204608.91748  -7172413.27645         0.00041  23613450.52245  23613448.57948
 96 10 13 02 28 00.0000000  0  7 19 18 29 10 31 16 27
 -15891616.62449 -12383066.10747         0.00041  21122073.74947  21122071.34749
 -12893637.01749 -10046985.29648         0.00041  20106132.02048  20106130.68149
   7210681.68749   5618714.48446         0.00041  22130960.74646  22130959.60349
   -410694.74648   -320021.99344         0.00041  25047987.94944  25047988.58848
  -8056155.30948  -6277520.35146         0.00041  23342773.21046  23342772.56248
 -12603375.50448  -9820806.70646         0.00041  22530508.41746  22530505.22048
  -9269359.76548  -7222868.46945         0.00041  23601128.77345  23601127.50148
 96 10 13 02 28 30.0000000  0  7 19 18 29 10 31 16 27
 -15917016.22749 -12402857.99447         0.00041  21117240.34547  21117238.13549
 -12892772.90849 -10046311.95547         0.00041  20106296.52547  20106295.21249
   7287689.27749   5678720.38446         0.00041  22145614.64946  22145613.81349
   -487692.55148   -380020.17044         0.00041  25033335.87944  25033335.87948
  -8129827.90048  -6334927.53546         0.00041  23328755.10746  23328752.83448
 -12641377.82648  -9850418.91146         0.00041  22523276.96646  22523274.56748
  -9331742.30148  -7271478.19545         0.00041  23589259.01145  23589255.70948
 96 10 13 02 29 00.0000000  0  7 19 18 29 10 31 16 27
 -15942531.15349 -12422739.74247         0.00041  21112385.11547  21112382.80049
 -12891792.11549 -10045547.69447         0.00041  20106483.06047  20106481.71149
   7364691.85249   5738722.38446         0.00041  22160267.75046  22160266.92849
   -564682.84248   -440012.60444         0.00041  25018686.59344  25018686.59348
  -8203635.99648  -6392440.32845         0.00041  23314709.32345  23314707.30248
 -12679179.84748  -9879875.01946         0.00041  22516083.79646  22516080.59948
  -9394345.89448  -7320260.17145         0.00041  23577345.28645  23577343.36948
 96 10 13 02 29 30.0000000  0  7 19 18 29 10 31 16 27
 -15968299.95549 -12442819.30647         0.00041  21107481.50147  21107479.20749
 -12890822.65549 -10044792.27347         0.00041  20106667.35947  20106666.02649
   7441560.26649   5798619.84046         0.00041  22174895.49446  22174894.85549
   -641798.84348   -500102.99544         0.00041  25004010.92344  25004010.92348
  -8277707.64648  -6450158.48945         0.00041  23300614.36145  23300611.95848
 -12716914.10348  -9909278.32346         0.00041  22508901.96246  22508899.74748
  -9457305.86348  -7369319.84245         0.00041  23565365.56745  23565362.98148
 96 10 13 02 30 00.0000000  0  7 19 18 29 10 31 16 27
 -15994873.86849 -12463526.22947         0.00041  21102424.66647  21102422.63549
 -12890393.04449 -10044457.50847         0.00041  20106749.06447  20106747.81049
   7517743.27649   5857983.21646         0.00041  22189392.37146  22189391.99749
   -719592.14348   -560721.15144         0.00041  24989206.65744  24989206.65748
  -8352580.66848  -6508501.08245         0.00041  23286365.99545  23286363.73448
 -12755147.91348  -9939070.92446         0.00041  22501627.74246  22501624.82148
  -9521167.59948  -7419082.19846         0.00041  23553213.26446  23553210.41348
 96 10 13 02 30 30.0000000  0  7 19 18 29 10 31 16 27
 -16023680.56449 -12485972.98447         0.00041  21096942.50547  21096940.75649
 -12891943.98649 -10045666.02447         0.00041  20106453.99847  20106452.88849
   7591807.93749   5915695.93046         0.00041  22203486.29846  22203485.97249
   -799513.01648   -622997.15544         0.00041  24973999.17444  24973999.17448
  -8429677.38248  -6568576.41446         0.00041  23271694.70246  23271693.71248
 -12795320.95548  -9970374.57146         0.00041  22493982.84346  22493979.60948
  -9587375.40848  -7470672.67545         0.00041  23540613.45745  23540610.41748
 96 10 13 02 31 00.0000000  0  7 19 18 29 10 31 16 27
 -16054091.97049 -12509670.16947         0.00041  21091155.35647  21091153.40849
 -12894851.25849 -10047931.43147         0.00041  20105900.80947  20105899.72349
   7664378.69149   5972244.55846         0.00041  22217296.17646  22217295.89149
   -880944.68647   -686450.40544         0.00041  24958504.06144  24958504.06147
  -8508367.16248  -6629893.09146         0.00041  23256720.13246  23256719.42248
 -12836789.79948 -10002687.94846         0.00041  22486091.11946  22486088.88148
  -9655318.17948  -7523615.07245         0.00041  23527683.35445  23527681.25748
 96 10 13 02 31 30.0000000  0  6 19 18 29 31 16 27
 -16085331.88449 -12534012.93947         0.00041  21085210.53847  21085208.65849
 -12898323.38049 -10050636.98348         0.00041  20105240.10848  20105239.13449
   7736234.40349   6028236.00646         0.00041  22230969.84446  22230969.51449
  -8587868.44348  -6691842.11146         0.00041  23241592.04546  23241590.79548
 -12878756.15848 -10035389.01146         0.00041  22478105.46246  22478102.28648
  -9724221.59748  -7577306.01846         0.00041  23514572.92246  23514570.49448
 96 10 13 02 32 00.0000000  0  6 19 29 18 31 16 27
 -16117958.00449 -12559435.86847         0.00041  21079001.87547  21078999.97949
   7806817.74349   6083236.02346         0.00041  22244401.30346  22244400.90449
 -12902929.55849 -10054226.21148         0.00041  20104363.67248  20104362.52649
  -8668737.34948  -6754856.81946         0.00041  23226203.56646  23226202.49048
 -12921773.66149 -10068909.13046         0.00041  22469920.06446  22469917.26149
  -9794656.28348  -7632190.15745         0.00041  23501169.55845  23501166.46248
 96 10 13 02 32 30.0000000  0  6 19 18 29 31 16 27
 -16151334.87749 -12585443.80447         0.00041  21072650.58947  21072648.57649
 -12908056.39849 -10058221.15748         0.00041  20103387.98748  20103386.80649
   7876774.01849   6137747.39546         0.00041  22257713.80946  22257713.17249
  -8750334.52748  -6818439.00646         0.00041  23210676.18946  23210674.77848
 -12965179.37849 -10102731.75746         0.00041  22461659.74446  22461657.16349
  -9865977.64748  -7687765.21945         0.00041  23487597.16745  23487594.28348
 96 10 13 02 33 00.0000000  0  6 19 18 29 31 16 27
 -16185080.37649 -12611738.98147         0.00041  21066229.18747  21066226.90549
 -12913306.44149 -10062312.10448         0.00041  20102389.09648  20102387.91149
   7946493.19449   6192074.01246         0.00041  22270980.63846  22270980.10949
  -8832277.43448  -6882290.59245         0.00041  23195082.54245  23195080.38248
 -13008595.33748 -10136562.38046         0.00041  22453397.28346  22453395.07048
  -9937776.72448  -7743712.52145         0.00041  23473934.36845  23473931.44248
 96 10 13 02 33 30.0000000  0  7 19 18 29 10 31 16 27
 -16218956.10549 -12638135.63547         0.00041  21059783.15147  21059780.91749
 -12918433.73749 -10066307.40948         0.00041  20101413.32848  20101412.13749
   8016213.72749   6246401.71146         0.00041  22284248.25646  22284247.85649
        -0.54558        -0.42554         0.00051  24878897.93554  24878897.93558
  -8914321.12548  -6946220.72845         0.00041  23179470.04645  23179468.27148
 -13051809.40749 -10170235.68246         0.00041  22445174.84346  22445172.63249
 -10009799.95748  -7799834.49845         0.00041  23460227.61645  23460226.66548
 96 10 13 02 34 00.0000000  0  7 19 18 29 10 31 16 27
 -16252782.20849 -12664493.62547         0.00041  21053346.13947  21053344.04949
 -12923261.56749 -10070069.34148         0.00041  20100494.62748  20100493.45149
   8086115.38249   6300870.52346         0.00041  22297550.27146  22297549.90749
    -84167.50848    -65585.07144         0.00041  24862880.83544  24862880.83548
  -8996283.34148  -7010087.37646         0.00041  23163872.80446  23163871.42048
 -13094648.25949 -10203616.59246         0.00041  22437022.65646  22437019.89249
 -10081867.66148  -7855991.10646         0.00041  23446515.23046  23446512.14748
 96 10 13 02 34 30.0000000  0  7 19 18 29 10 31 16 27
 -16286320.33949 -12690627.22047         0.00041  21046963.87547  21046961.82649
 -12927534.03149 -10073398.52547         0.00041  20099681.48247  20099680.41449
   8156432.58149   6355663.14146         0.00041  22310931.31046  22310930.84149
   -167922.43848   -130848.65344         0.00041  24846943.24844  24846943.24848
  -9077920.45348  -7073700.70146         0.00041  23148337.88146  23148336.35748
 -13136873.34949 -10236519.26646         0.00041  22428986.88846  22428985.66749
 -10153732.48248  -7911989.61946         0.00041  23432839.53546  23432837.12048
 96 10 13 02 35 00.0000000  0  7 19 18 29 10 31 16 27
 -16319262.45449 -12716296.37847         0.00041  21040695.20347  21040693.21649
 -12930924.82449 -10076040.70347         0.00041  20099036.35647  20099035.27949
   8227461.02549   6411009.97646         0.00041  22324447.32646  22324446.94449
   -250947.06147   -195543.16444         0.00041  24831142.89244  24831142.89247
  -9158911.62148  -7136810.68546         0.00041  23132926.63946  23132924.72248
 -13178184.17349 -10268709.52846         0.00041  22421126.42946  22421123.85949
 -10225102.78248  -7967602.83046         0.00041  23419258.35946  23419255.90348
 96 10 13 02 35 30.0000000  0  7 19 18 29 10 31 16 27
 -16351951.97849 -12741768.71947         0.00041  21034474.20847  21034472.71349
 -12933784.59449 -10078269.09547         0.00041  20098492.11247  20098491.06149
   8298847.26848   6466635.61046         0.00041  22338031.53946  22338031.03648
   -333573.98148   -259927.60744         0.00041  24815423.10644  24815421.00148
  -9239586.16148  -7199673.93146         0.00041  23117573.80846  23117573.11348
 -13218903.98548 -10300439.22046         0.00041  22413377.42046  22413375.52748
 -10296347.68948  -8023118.30246         0.00041  23405700.67946  23405698.00548
 96 10 13 02 36 00.0000000  0  7 19 18 29 10 31 16 27
 -16384760.86849 -12767334.08047         0.00041  21028231.00547  21028229.33549
 -12936501.93649 -10080386.50748         0.00041  20097974.90448  20097973.80549
   8370212.16448   6522244.60546         0.00041  22351611.50946  22351611.09848
   -416153.08948   -324274.94044         0.00041  24799706.38844  24799706.38848
  -9320317.65948  -7262581.57046         0.00041  23102210.64546  23102209.83048
 -13259386.65948 -10331984.19046         0.00041  22405673.19246  22405671.23848
 -10367839.58048  -8078826.25145         0.00041  23392095.10445  23392093.15248
 96 10 13 02 36 30.0000000  0  7 19 18 29 10 31 16 27
 -16417875.26049 -12793137.49147         0.00041  21021929.77147  21021928.04649
 -12939267.48349 -10082541.48948         0.00041  20097448.83448  20097447.66949
   8441364.09448   6577687.65846         0.00041  22365151.44646  22365150.75648
   -498849.12748   -388713.37644         0.00041  24783974.48344  24783970.00448
  -9401278.53048  -7325667.96346         0.00041  23086805.02146  23086804.20148
 -13299809.78548 -10363482.71046         0.00041  22397982.54946  22397978.96948
 -10439758.51648  -8134866.97946         0.00041  23378409.82646  23378407.60248
 96 10 13 02 37 00.0000000  0  8 19 18 29 10 31 16 02 27
 -16451028.13149 -12818970.88647         0.00041  21015621.02047  21015619.06549
 -12941832.83149 -10084540.47048         0.00041  20096960.70648  20096959.52949
   8512566.45348   6633170.00846         0.00041  22378700.76246  22378700.32648
   -581412.84548   -453048.66344         0.00041  24768259.69144  24768258.70848
  -9482214.78248  -7388735.15046         0.00041  23071402.71146  23071402.48148
 -13339911.46048 -10394730.75246         0.00041  22390350.12146  22390347.85448
        -1.19358        -0.93054         0.00051  25171632.33954  25171632.33958
 -10511842.03948  -8191035.94346         0.00041  23364693.14146  23364689.93248
 96 10 13 02 37 30.0000000  0  8 19 18 29 10 31 16 02 27
 -16483959.80149 -12844631.91747         0.00041  21009354.17147  21009352.37049
 -12943944.47049 -10086185.90748         0.00041  20096558.74948  20096557.73549
   8584085.70348   6688899.29046         0.00041  22392310.91546  22392309.89148
   -663609.51748   -517097.96744         0.00041  24752619.76744  24752616.72148
  -9562877.24948  -7451588.99446         0.00041  23056054.28546  23056052.62448
 -13379440.30648 -10425532.44646         0.00041  22382828.55746  22382825.77148
    -99667.42148    -77662.92544         0.00041  25152667.23944  25152667.23948
 -10583820.58648  -8247123.08846         0.00041  23350994.53846  23350993.23748
 96 10 13 02 38 00.0000000  0  8 19 18 29 10 31 16 02 27
 -16516401.25049 -12869910.95347         0.00041  21003180.78247  21003178.96249
 -12945336.17049 -10087270.35148         0.00041  20096293.84348  20096292.95449
   8656189.29748   6745083.88946         0.00041  22406031.43346  22406030.81148
   -745177.47148   -580657.33944         0.00041  24737095.15244  24737095.15248
  -9642998.53748  -7514021.13846         0.00041  23040806.75346  23040805.75948
 -13418140.15549 -10455688.18246         0.00041  22375464.62646  22375461.97949
   -198947.10347   -155023.71744         0.00041  25133771.32144  25133771.32147
 -10655417.07548  -8302912.55346         0.00041  23337371.37546  23337369.04748
 96 10 13 02 38 30.0000000  0  8 19 18 29 10 31 16 02 27
 -16548867.39449 -12895209.23247         0.00041  20997002.63947  20997000.77449
 -12946505.07049 -10088181.18148         0.00041  20096071.45948  20096070.45049
   8728367.71448   6801326.80446         0.00041  22419766.92346  22419766.22948
   -826637.56448   -644132.74944         0.00041  24721593.61044  24721593.61048
  -9723099.47948  -7576437.43746         0.00041  23025564.18646  23025563.44448
 -13456525.64349 -10485598.93546         0.00041  22368160.18746  22368157.22149
   -298355.97748   -232484.81044         0.00041  25114854.63244  25114854.63248
 -10727153.72748  -8358811.20346         0.00041  23323719.98846  23323718.32948
 96 10 13 02 39 00.0000000  0  8 19 18 29 10 31 16 02 27
 -16581358.31949 -12920526.82347         0.00041  20990819.82047  20990817.93249
 -12947440.84649 -10088910.35248         0.00041  20095893.41648  20095892.36649
   8800620.43348   6857627.61746         0.00041  22433516.08746  22433515.65148
   -907987.30848   -707522.13444         0.00041  24706113.22244  24706113.22248
  -9803185.31548  -7638841.96846         0.00041  23010324.66746  23010323.28948
 -13494603.23349 -10515269.79046         0.00041  22360912.98446  22360911.19549
   -397902.30847   -310053.74644         0.00041  25095910.70244  25095910.70247
 -10799030.21148  -8414818.82346         0.00041  23310042.00346  23310040.62348
 96 10 13 02 39 30.0000000  0  8 19 18 29 10 31 16 02 27
 -16613625.41849 -12945670.00647         0.00041  20984679.48847  20984677.79349
 -12947872.54149 -10089246.73448         0.00041  20095811.29748  20095810.26349
   8873206.09948   6914187.86646         0.00041  22447328.69046  22447327.95648
   -988935.36748   -770598.98744         0.00041  24690708.53244  24690708.53248
  -9882973.61948  -7701014.65846         0.00041  22995141.54846  22995139.68048
 -13532101.64749 -10544489.34946         0.00041  22353777.83946  22353775.83349
   -497329.41247   -387529.41244         0.00041  25076989.70644  25076989.70647
 -10870779.94548  -8470727.67346         0.00041  23296389.09546  23296387.02648
 96 10 13 02 40 00.0000000  0  8 19 18 29 10 31 16 02 27
 -16645113.86949 -12970206.44847         0.00041  20978687.58247  20978685.80249
 -12947246.33949 -10088758.78347         0.00041  20095930.50247  20095929.41149
   8946675.83648   6971437.00946         0.00041  22461309.70146  22461309.03748
  -1068901.95948   -832910.12544         0.00041  24675496.14544  24675491.46848
  -9961906.79348  -7762521.00246         0.00041  22980120.77546  22980119.44248
 -13568454.64849 -10572816.35646         0.00041  22346860.25546  22346857.27349
   -596079.33948   -464477.40744         0.00041  25058199.14544  25058199.14548
 -10941855.71348  -8526111.37646         0.00041  23282863.56246  23282861.60548
 96 10 13 02 40 30.0000000  0  8 19 18 29 10 31 16 02 27
 -16675979.35649 -12994257.46947         0.00041  20972814.30147  20972812.38549
 -12945702.41149 -10087555.72048         0.00041  20096224.26048  20096223.10849
   9020895.16048   7029270.24146         0.00041  22475433.02946  22475432.44648
  -1148045.42548   -894580.35744         0.00041  24660435.86944  24660430.55148
 -10040128.78548  -7823473.17646         0.00041  22965235.67846  22965234.69748
 -13603816.18349 -10600370.79946         0.00041  22340130.59546  22340128.88049
   -694293.12848   -541007.63344         0.00041  25039509.38844  25039509.38848
 -11012407.72448  -8581086.94946         0.00041  23269438.31046  23269435.99548
 96 10 13 02 41 00.0000000  0  8 19 18 29 10 31 16 02 27
 -16706375.23349 -13017942.55447         0.00041  20967029.93947  20967027.92849
 -12943402.17549 -10085763.32448         0.00041  20096661.93348  20096660.83049
   9095711.15749   7087568.41946         0.00041  22489670.30346  22489669.73449
  -1226523.37648   -955732.00144         0.00041  24645499.12444  24645497.42548
 -10117770.16848  -7883972.94246         0.00041  22950460.55446  22950459.45848
 -13638339.30649 -10627271.95746         0.00041  22333561.51846  22333559.06949
   -792129.16948   -617243.50844         0.00041  25020891.92344  25020891.92348
 -11082593.67648  -8635777.28846         0.00041  23256082.23446  23256079.84648
 96 10 13 02 41 30.0000000  0  8 19 18 29 10 31 16 02 27
 -16736145.95649 -13041140.50947         0.00041  20961364.52647  20961362.62649
 -12940209.33049 -10083275.39348         0.00041  20097269.56148  20097268.48849
   9171282.64748   7146455.28946         0.00041  22504050.82146  22504049.97448
  -1304199.72748  -1016258.97044         0.00041  24630719.90344  24630716.25848
 -10194687.64448  -7943908.61446         0.00041  22935823.24946  22935822.75648
 -13671873.87848 -10653402.77546         0.00041  22327180.56246  22327177.34248
   -889435.73448   -693066.80644         0.00041  25002375.14744  25002375.14748
 -11152275.20948  -8690074.55246         0.00041  23242822.66146  23242820.03048
 96 10 13 02 42 00.0000000  0  8 19 18 29 10 31 16 02 27
 -16765100.97749 -13063702.84847         0.00041  20955854.72647  20955852.71649
 -12935950.23249 -10079956.61548         0.00041  20098079.93348  20098078.90849
   9247794.30048   7206074.74246         0.00041  22518610.41246  22518609.94048
  -1380913.26948  -1076035.74844         0.00041  24616118.95344  24616117.23548
 -10270711.91848  -8003148.28946         0.00041  22921356.42046  22921355.86348
 -13704249.05248 -10678630.18746         0.00041  22321018.97546  22321016.31048
   -986030.44248   -768335.40944         0.00041  24983993.96844  24983993.96848
 -11221282.84548  -8743846.72246         0.00041  23229690.86146  23229688.08648
 96 10 13 02 42 30.0000000  0  8 19 18 29 10 31 16 02 27
 -16793635.37649 -13085937.43347         0.00041  20950424.98747  20950423.07849
 -12931011.05249 -10076107.90648         0.00041  20099019.87648  20099018.77249
   9324857.50848   7266123.98546         0.00041  22533274.91346  22533274.38348
  -1457068.08448  -1135377.16544         0.00041  24601628.20144  24601625.38448
 -10346229.16748  -8061992.86346         0.00041  22906986.47046  22906985.26648
 -13735856.59548 -10703259.44846         0.00041  22315005.00946  22315002.17948
  -1082305.80448   -843355.17244         0.00041  24965671.99644  24965671.99648
 -11289996.62648  -8797389.89846         0.00041  23216615.58446  23216612.50248
 96 10 13 02 43 00.0000000  0  8 19 18 29 10 31 16 02 27
 -16821763.48449 -13107855.42347         0.00041  20945072.14447  20945070.28549
 -12925407.35449 -10071741.39248         0.00041  20100086.13348  20100085.17149
   9402436.30948   7326574.98646         0.00041  22548038.43346  22548037.38048
  -1532659.19148  -1194279.31744         0.00041  24587245.65444  24587241.44548
 -10421266.54748  -8120463.52646         0.00041  22892707.31746  22892706.40748
 -13766702.21048 -10727294.97846         0.00041  22309134.92146  22309131.79748
  -1178274.02548   -918135.60444         0.00041  24947409.90644  24947409.90648
 -11358434.16448  -8850717.82746         0.00041  23203592.23446  23203589.42448
 96 10 13 02 43 30.0000000  0  8 19 18 29 10 31 16 02 27
 -16849562.60849 -13129517.06647         0.00041  20939782.22847  20939780.46049
 -12919196.50349 -10066901.76948         0.00041  20101268.13548  20101267.08949
   9480461.61348   7387373.91746         0.00041  22562885.65546  22562884.86048
  -1607735.55048  -1252780.33444         0.00041  24572959.18044  24572954.53048
 -10495891.06648  -8178612.48446         0.00041  22878506.90946  22878505.88648
 -13796841.67348 -10750780.27046         0.00041  22303399.39146  22303396.17548
  -1273976.34048   -992707.79444         0.00041  24929198.70644  24929198.70648
 -11426645.37748  -8903869.39746         0.00041  23190611.94746  23190608.92748
 96 10 13 02 44 00.0000000  0  8 19 18 29 10 31 16 02 27
 -16877097.58849 -13150972.88347         0.00041  20934542.44747  20934540.66549
 -12912406.92249 -10061611.18448         0.00041  20102560.13548  20102559.03349
   9558869.31248   7448470.81546         0.00041  22577806.21446  22577805.48148
  -1682334.08248  -1310909.09944         0.00041  24558764.41444  24558758.76948
 -10570138.87948  -8236467.89346         0.00041  22864377.05146  22864376.68648
 -13826316.86448 -10773747.95346         0.00041  22297790.55246  22297787.37648
  -1369446.97048  -1067100.40544         0.00041  24911038.01844  24911031.97548
 -11494675.03748  -8956879.49546         0.00041  23177665.49646  23177662.89348
 96 10 13 02 44 30.0000000  0  8 19 18 29 10 31 16 02 27
 -16904616.38149 -13172416.08347         0.00041  20929305.85347  20929303.76149
 -12905277.93949 -10056056.12847         0.00041  20103916.59847  20103915.56049
   9637406.67748   7509668.76646         0.00041  22592751.48046  22592750.64248
  -1756683.29248  -1368843.51144         0.00041  24544613.08444  24544611.57848
 -10644243.51448  -8294211.74646         0.00041  22850275.83046  22850275.25048
 -13855365.68448 -10796383.39446         0.00041  22292263.67946  22292260.00148
  -1464927.38448  -1141500.66444         0.00041  24892865.72844  24892862.38248
 -11562763.45648  -9009935.38546         0.00041  23164708.57146  23164706.09548
 96 10 13 02 45 00.0000000  0  8 19 18 29 10 31 16 02 27
 -16932214.99149 -13193921.48247         0.00041  20924054.10447  20924051.90749
 -12897926.39149 -10050327.64848         0.00041  20105315.62548  20105314.41749
   9715968.24148   7570885.55446         0.00041  22607701.14546  22607700.10048
  -1830872.64448  -1426653.53344         0.00041  24530494.44644  24530492.90648
 -10718295.95948  -8351914.92346         0.00041  22836184.77946  22836183.73248
 -13884097.44348 -10818771.76846         0.00041  22286795.11246  22286792.03048
  -1560500.75648  -1215973.36544         0.00041  24874680.36444  24874675.14148
 -11631010.03948  -9063114.51246         0.00041  23151722.40246  23151719.42448
 96 10 13 02 45 30.0000000  0  8 19 18 29 10 31 16 02 27
 -16959440.96549 -13215136.51847         0.00041  20918873.09747  20918870.95749
 -12889921.54549 -10044090.11548         0.00041  20106838.97048  20106837.81149
   9795001.02148   7632469.52746         0.00041  22622740.87546  22622739.79548
  -1904473.75848  -1484005.82945         0.00041  24516487.30145  24516487.12448
 -10791837.00048  -8409219.62146         0.00041  22822190.00446  22822188.89748
 -13912089.72249 -10840583.95046         0.00041  22281468.46946  22281466.06949
  -1655726.74948  -1290175.36244         0.00041  24856558.87244  24856553.22448
 -11698973.75048  -9116073.23046         0.00041  23138788.54446  23138786.41048
 96 10 13 02 46 00.0000000  0  8 19 18 29 10 31 16 02 27
 -16986269.61249 -13236041.94847         0.00041  20913767.74247  20913765.72049
 -12881272.89349 -10037350.91148         0.00041  20108484.70948  20108483.42649
   9874510.32548   7694424.82846         0.00041  22637870.94246  22637869.67948
  -1977498.56448  -1540908.55645         0.00041  24502593.19745  24502591.99448
 -10864859.62848  -8466120.35246         0.00041  22808294.23546  22808292.83748
 -13939351.33848 -10861826.79646         0.00041  22276280.86346  22276277.43048
  -1750626.30848  -1364123.01944         0.00041  24838497.92644  24838495.12348
 -11766663.04948  -9168818.11746         0.00041  23125907.13346  23125905.27248
 96 10 13 02 46 30.0000000  0  8 19 18 29 10 31 16 02 27
 -17013260.02749 -13257073.42447         0.00041  20908631.64447  20908629.59749
 -12872575.43649 -10030573.67448         0.00041  20110140.00748  20110138.54749
   9953930.47548   7756310.64746         0.00041  22652984.39146  22652982.69948
  -2050530.43048  -1597816.10744         0.00041  24488697.43044  24488693.56448
 -10937929.35748  -8523057.80546         0.00041  22794388.85446  22794388.27648
 -13966464.55449 -10882953.96246         0.00041  22271120.67646  22271118.78849
  -1845790.97848  -1438277.24144         0.00041  24820392.87744  24820385.51148
 -11834648.30048  -9221793.60646         0.00041  23112970.11746  23112968.35048
 96 10 13 02 47 00.0000000  0  8 19 18 29 10 31 16 02 27
 -17040185.96649 -13278054.67547         0.00041  20903507.62247  20903505.62749
 -12863606.45949 -10023584.85848         0.00041  20111846.70048  20111845.24349
  10033480.87548   7818297.95346         0.00041  22668121.58946  22668120.93348
  -2123359.26148  -1654565.93044         0.00041  24474837.17044  24474834.80048
 -11010835.56448  -8579867.81046         0.00041  22780515.43646  22780514.53848
 -13993210.92949 -10903795.28946         0.00041  22266031.15346  22266028.75849
  -1941017.10348  -1512479.30844         0.00041  24802267.29844  24802265.63548
 -11902712.15948  -9274830.33046         0.00041  23100018.72546  23100016.58048
 96 10 13 02 47 30.0000000  0  8 19 18 29 10 31 16 02 27
 -17066546.02749 -13298594.96747         0.00041  20898491.30847  20898489.56649
 -12853831.92249 -10015968.32948         0.00041  20113706.61048  20113705.05849
  10113665.00148   7880779.07946         0.00041  22683379.90546  22683379.17848
  -2195478.99848  -1710763.11644         0.00041  24461115.76544  24461110.85048
 -11083077.88848  -8636160.50446         0.00041  22766768.22446  22766767.28748
 -14019062.27248 -10923939.19346         0.00041  22261112.69346  22261109.11548
  -2035820.17348  -1586351.79544         0.00041  24784227.73944  24784223.83448
 -11970365.58648  -9327547.26646         0.00041  23087144.26146  23087142.23448
 96 10 13 02 48 00.0000000  0  8 19 18 29 10 31 16 02 27
 -17092271.84949 -13318641.05247         0.00041  20893595.87147  20893593.90749
 -12843150.02149 -10007644.77048         0.00041  20115739.38248  20115737.90949
  10194563.61648   7943816.94646         0.00041  22698774.37746  22698773.92648
  -2266792.82148  -1766332.36644         0.00041  24447542.38244  24447540.10048
 -11154582.14948  -8691878.09646         0.00041  22753161.27246  22753160.37448
 -14043913.67049 -10943303.92446         0.00041  22256383.63546  22256380.59449
  -2130107.01848  -1659822.00644         0.00041  24766285.84544  24766281.07848
 -12037516.73548  -9379872.80246         0.00041  23074365.52746  23074363.97348
 96 10 13 02 48 30.0000000  0  8 19 18 29 10 31 16 02 27
 -17118126.65449 -13338787.64847         0.00041  20888675.73047  20888674.02449
 -12832297.64849  -9999188.38048         0.00041  20117804.53948  20117803.19149
  10275420.41348   8006822.22846         0.00041  22714161.23146  22714160.62848
  -2338031.85548  -1821843.30044         0.00041  24433986.41544  24433984.43148
 -11226104.25948  -8747609.58046         0.00041  22739551.70546  22739550.37448
 -14068510.89848 -10962470.59846         0.00041  22251701.99646  22251698.92848
  -2224616.92148  -1733465.98344         0.00041  24748300.58444  24748296.43548
 -12104912.99248  -9432389.35246         0.00041  23061540.44446  23061538.58048
 96 10 13 02 49 00.0000000  0  8 19 18 29 10 31 16 02 27
 -17145232.14649 -13359908.79847         0.00041  20883517.86347  20883515.87749
 -12822364.17549  -9991448.01648         0.00041  20119694.72948  20119693.40249
  10355113.97448   8068921.09646         0.00041  22729326.11446  22729326.00548
  -2410290.42148  -1878148.63544         0.00041  24420239.50644  24420233.73548
 -11298753.61448  -8804219.45446         0.00041  22725726.79146  22725725.64648
 -14093957.20748 -10982298.89646         0.00041  22246860.71546  22246857.34248
  -2320437.07448  -1808131.01844         0.00041  24730070.02044  24730063.39548
 -12173666.32248  -9485963.34046         0.00041  23048458.40346  23048455.06448
 96 10 13 02 49 30.0000000  0  8 19 18 29 10 31 16 02 27
 -17174151.52949 -13382443.37547         0.00041  20878014.67847  20878012.69849
 -12813900.33549  -9984852.82948         0.00041  20121305.30148  20121304.16949
  10433094.81248   8129685.37346         0.00041  22744166.01146  22744164.94748
  -2484108.19348  -1935668.94644         0.00041  24406189.56744  24406186.22348
 -11373056.17248  -8862117.53246         0.00041  22711587.68946  22711586.15548
 -14120796.20348 -11003212.39046         0.00041  22241753.25546  22241750.01348
  -2418079.60248  -1884216.05644         0.00041  24711486.71244  24711482.79448
 -12244315.91548  -9541014.95846         0.00041  23035014.34746  23035011.31348
 96 10 13 02 50 00.0000000  0  8 19 18 29 10 31 16 02 27
 -17203317.49249 -13405170.09947         0.00041  20872464.62247  20872462.51449
 -12805367.82249  -9978204.11948         0.00041  20122929.05048  20122927.95349
  10510923.12948   8190330.80946         0.00041  22758976.36346  22758975.27848
  -2557933.94548  -1993195.47744         0.00041  24392140.60744  24392137.89048
 -11447452.95048  -8920089.03546         0.00041  22697431.06546  22697429.09548
 -14147483.67548 -11024007.82846         0.00041  22236674.55846  22236671.68548
  -2515980.20448  -1960502.17344         0.00041  24692856.25244  24692853.18648
 -12315292.84648  -9596321.63846         0.00041  23021507.06346  23021504.03348
 96 10 13 02 50 30.0000000  0  8 19 18 29 10 31 16 02 27
 -17231732.76849 -13427311.87447         0.00041  20867057.58747  20867055.35349
 -12795786.75849  -9970738.35648         0.00041  20124752.18348  20124751.12749
  10589588.40948   8251628.41146         0.00041  22773945.89046  22773944.39848
  -2630788.67048  -2049965.39444         0.00041  24378277.24144  24378273.12548
 -11520939.62248  -8977351.36946         0.00041  22683446.00746  22683444.84648
 -14173043.98448 -11043924.95646         0.00041  22231810.77246  22231807.59448
  -2613163.57048  -2036229.40844         0.00041  24674360.60744  24674359.53248
 -12385605.99848  -9651111.07646         0.00041  23008127.53446  23008124.40648
 96 10 13 02 51 00.0000000  0  8 19 18 29 10 31 16 02 27
 -17258595.11149 -13448243.56447         0.00041  20861945.65147  20861943.57749
 -12784370.06649  -9961842.23948         0.00041  20126924.76548  20126923.53349
  10669898.64348   8314207.81246         0.00041  22789227.78846  22789227.29548
  -2701876.93348  -2105358.80744         0.00041  24364749.68944  24364746.66048
 -11592706.80948  -9033273.84546         0.00041  22669789.86046  22669788.30448
 -14196680.90849 -11062343.34446         0.00041  22227312.39246  22227309.70049
  -2708833.34048  -2110777.24844         0.00041  24656155.91444  24656153.72948
 -12454454.42148  -9704759.18646         0.00041  22995025.02946  22995022.56948
 96 10 13 02 51 30.0000000  0  8 19 18 29 10 31 16 02 27
 -17284017.61349 -13468053.30747         0.00041  20857108.00947  20857105.87349
 -12771270.65249  -9951634.90748         0.00041  20129417.54648  20129416.18249
  10751737.38948   8377978.25046         0.00041  22804801.72346  22804800.76048
  -2771339.45848  -2159485.44744         0.00041  24351529.73044  24351527.55648
 -11662897.68948  -9087968.01746         0.00041  22656432.43746  22656431.36148
 -14218540.97349 -11079377.17546         0.00041  22223152.97146  22223150.58649
  -2803140.60248  -2184263.38144         0.00041  24638212.49944  24638208.92848
 -12521968.94548  -9757367.89446         0.00041  22982176.79646  22982175.09748
 96 10 13 02 52 00.0000000  0  8 19 18 29 10 31 16 02 27
 -17307790.75449 -13486577.82947         0.00041  20852583.93247  20852581.78449
 -12756295.90249  -9939966.27448         0.00041  20132267.17148  20132265.78849
  10835304.83648   8443095.72846         0.00041  22820704.57946  22820703.33348
  -2838965.95748  -2212181.40244         0.00041  24338662.79544  24338659.06548
 -11731312.92548  -9141278.57746         0.00041  22643413.35846  22643412.26248
 -14238442.18249 -11094884.62246         0.00041  22219365.92146  22219362.72449
  -2895916.45748  -2256556.21344         0.00041  24620558.07844  24620553.40848
 -12587962.25148  -9808791.22346         0.00041  22969620.05646  22969617.31248
 96 10 13 02 52 30.0000000  0  8 19 18 29 10 31 16 02 27
 -17329678.25449 -13503633.01547         0.00041  20848418.78747  20848416.83749
 -12739189.04449  -9926636.25248         0.00041  20135522.56748  20135521.16149
  10920849.53048   8509753.92246         0.00041  22836982.55346  22836981.76848
  -2904483.56048  -2263234.06044         0.00041  24326195.45144  24326192.32248
 -11797681.04448  -9192993.96746         0.00041  22630783.89946  22630783.48548
 -14256134.15749 -11108670.57946         0.00041  22215999.20246  22215996.13949
  -2986896.24448  -2327449.51344         0.00041  24603244.44444  24603240.00248
 -12652191.77648  -9858840.18146         0.00041  22957397.26946  22957394.88748
 96 10 13 02 53 00.0000000  0  8 19 18 29 10 31 16 02 27
 -17349837.85849 -13519341.79947         0.00041  20844582.72047  20844580.58749
 -12720095.73749  -9911758.35148         0.00041  20139155.86748  20139154.50649
  11008222.30848   8577836.60646         0.00041  22853608.75646  22853607.93548
  -2968031.48748  -2312751.95944         0.00041  24314101.02144  24314099.01548
 -11862156.08548  -9243234.23046         0.00041  22618514.65046  22618514.00448
 -14271750.90149 -11120839.48446         0.00041  22213027.10346  22213024.59049
  -3076205.48048  -2397041.07544         0.00041  24586248.36944  24586244.87948
 -12714822.99048  -9907643.69346         0.00041  22945479.30446  22945476.31048
 96 10 13 02 53 30.0000000  0  8 19 18 29 10 31 16 02 27
 -17369616.66149 -13534753.85447         0.00041  20840819.04547  20840817.02549
 -12700336.58649  -9896361.61348         0.00041  20142915.80948  20142914.58749
  11096072.78948   8646291.53046         0.00041  22870326.76646  22870325.33848
  -3030944.83048  -2361775.39544         0.00041  24302129.24944  24302127.61748
 -11926060.49348  -9293029.85046         0.00041  22606354.17546  22606353.42948
 -14286609.71849 -11132417.78946         0.00041  22210199.93546  22210196.90449
  -3165166.63848  -2466361.40444         0.00041  24569319.56844  24569316.38248
 -12777201.87948  -9956250.59146         0.00041  22933608.18946  22933605.70448
 96 10 13 02 54 00.0000000  0  8 19 18 29 10 31 16 02 27
 -17389179.06149 -13549997.27047         0.00041  20837096.26847  20837094.16649
 -12680023.79049  -9880533.46348         0.00041  20146781.27148  20146780.12849
  11184250.53148   8715001.44046         0.00041  22887105.90546  22887105.26948
  -3093352.84148  -2410405.18845         0.00041  24290254.19845  24290251.15848
 -11989513.37948  -9342473.65346         0.00041  22594279.43746  22594278.23048
 -14300820.83049 -11143491.38446         0.00041  22207495.33546  22207492.53349
  -3253908.82348  -2535511.13644         0.00041  24552433.71644  24552428.61248
 -12839468.41948 -10004769.95746         0.00041  22921759.46146  22921757.45448
 96 10 13 02 54 30.0000000  0  8 19 18 29 10 31 16 02 27
 -17408731.70349 -13565233.07547         0.00041  20833375.70847  20833373.61049
 -12659348.56749  -9864422.90448         0.00041  20150715.51948  20150714.47249
  11272560.55648   8783814.43446         0.00041  22903910.44946  22903909.65848
  -3155467.97248  -2458806.35844         0.00041  24278433.96744  24278431.69248
 -12052721.67248  -9391726.84446         0.00041  22582251.19946  22582250.17848
 -14314561.23849 -11154198.20046         0.00041  22204880.82846  22204878.38549
  -3342618.90148  -2604635.83644         0.00041  24535553.03244  24535548.03648
 -12901810.63348 -10053348.29446         0.00041  22909896.34346  22909893.98548
 96 10 13 02 55 00.0000000  0  8 19 18 29 10 31 16 02 27
 -17428475.19449 -13580617.61647         0.00041  20829618.69147  20829616.54949
 -12638530.40049  -9848200.95048         0.00041  20154677.07748  20154675.96249
  11360784.26848   8852560.17346         0.00041  22920699.26546  22920698.37448
  -3217516.84448  -2507156.13844         0.00041  24266625.65644  24266623.94748
 -12115899.40448  -9440956.23946         0.00041  22570229.04446  22570227.72348
 -14328033.32449 -11164695.93946         0.00041  22202316.85946  22202314.21649
  -3431522.91948  -2673911.68644         0.00041  24518633.61444  24518630.48148
 -12964424.82748 -10102138.55346         0.00041  22897981.45946  22897978.78448
 96 10 13 02 55 30.0000000  0  8 19 18 29 10 31 16 02 27
 -17452104.82849 -13599030.31847         0.00041  20825122.03447  20825119.99049
 -12621280.15549  -9834759.20748         0.00041  20157959.69448  20157958.42049
  11445198.60348   8918337.58146         0.00041  22936762.57946  22936761.59248
  -3283211.42948  -2558346.71444         0.00041  24254124.60244  24254121.96548
 -12182751.70248  -9493048.93746         0.00041  22557507.11446  22557505.90848
 -14344968.51249 -11177892.20046         0.00041  22199094.61846  22199091.67249
  -3524359.42748  -2746251.77044         0.00041  24500967.90644  24500964.38448
 -13031012.73148 -10154025.20546         0.00041  22885309.55646  22885307.65248
 96 10 13 02 56 00.0000000  0  8 19 18 29 10 31 16 02 27
 -17479968.61849 -13620742.35147         0.00041  20819819.56947  20819817.53949
 -12607975.13249  -9824391.67047         0.00041  20160491.66547  20160490.28649
  11525441.99348   8980864.88246         0.00041  22952032.76546  22952032.05848
  -3352920.78648  -2612665.66045         0.00041  24240860.15545  24240857.93148
 -12253662.70848  -9548304.23746         0.00041  22544013.65046  22544012.29848
 -14365751.94449 -11194087.07946         0.00041  22195139.87246  22195137.07649
  -3621507.38348  -2821951.43744         0.00041  24482478.24344  24482477.73048
 -13101924.40748 -10209281.06546         0.00041  22871815.38846  22871813.54448
 96 10 13 02 56 30.0000000  0  8 19 18 29 10 31 16 02 27
 -17508759.79649 -13643177.02447         0.00041  20814340.73547  20814338.81549
 -12595338.15049  -9814544.68348         0.00041  20162896.42948  20162895.06049
  11604800.03448   9042702.29646         0.00041  22967133.91746  22967132.91748
  -3423349.14848  -2667544.90045         0.00041  24227458.10445  24227455.45748
 -12325353.84248  -9604167.43846         0.00041  22530371.71046  22530369.80148
 -14387111.05749 -11210730.53746         0.00041  22191075.56246  22191072.38749
  -3719667.45748  -2898439.77044         0.00041  24463800.24744  24463799.12448
 -13173880.75048 -10265350.92146         0.00041  22858122.43046  22858120.35248
 96 10 13 02 57 00.0000000  0  8 19 18 29 10 31 16 02 27
 -17537083.33849 -13665247.30847         0.00041  20808950.85747  20808948.94449
 -12581979.63149  -9804135.45748         0.00041  20165438.47248  20165437.19049
  11684648.23148   9104921.66446         0.00041  22982328.36646  22982327.76948
  -3493103.68548  -2721899.07445         0.00041  24214182.83245  24214181.53148
 -12396447.52748  -9659565.09946         0.00041  22516842.92646  22516841.49248
 -14407681.07549 -11226759.11646         0.00041  22187160.57746  22187158.40649
  -3817453.47348  -2974636.63445         0.00041  24445192.23145  24445190.69548
 -13245518.53748 -10321172.53746         0.00041  22844489.42446  22844488.11748
 96 10 13 02 57 30.0000000  0  8 19 18 29 10 31 16 02 27
 -17564244.22849 -13686411.63247         0.00041  20803782.51247  20803780.58949
 -12567178.43949  -9792602.06448         0.00041  20168255.17548  20168253.86149
  11765701.90848   9168080.36946         0.00041  22997753.10046  22997751.77248
  -3561473.84748  -2775174.52145         0.00041  24201174.33645  24201171.04948
 -12466255.56048  -9713960.95246         0.00041  22503558.40346  22503557.23148
 -14426763.66149 -11241628.67946         0.00041  22183529.07146  22183526.88049
  -3914152.95448  -3049986.84845         0.00041  24426791.53845  24426788.87648
 -13316141.34448 -10376203.28146         0.00041  22831050.63346  22831049.37048
 96 10 13 02 58 00.0000000  0  8 19 18 29 10 31 16 02 27
 -17590361.18149 -13706762.49947         0.00041  20798812.58247  20798810.70749
 -12551033.62149  -9780021.69248         0.00041  20171327.36348  20171326.07949
  11847876.50048   9232112.50546         0.00041  23013389.86846  23013388.72448
  -3628554.55048  -2827445.21045         0.00041  24188408.12045  24188406.15748
 -12534879.00048  -9767433.73446         0.00041  22490499.78946  22490498.54048
 -14444440.33549 -11255402.71546         0.00041  22180166.01946  22180162.92349
  -4009847.24448  -3124553.79845         0.00041  24408582.18545  24408579.15348
 -13385852.21148 -10430523.42246         0.00041  22817785.71846  22817783.95748
 96 10 13 02 58 30.0000000  0  8 19 18 29 10 31 16 02 27
 -17615623.25749 -13726447.24647         0.00041  20794005.52047  20794003.44249
 -12533725.27049  -9766534.67448         0.00041  20174621.01048  20174619.79649
  11930993.67248   9296879.12346         0.00041  23029207.02246  23029205.53848
  -3694523.54248  -2878849.60644         0.00041  24175853.71544  24175852.35648
 -12602478.65648  -9820108.77546         0.00041  22477636.50846  22477634.97648
 -14460885.17949 -11268216.88146         0.00041  22177036.62646  22177033.74249
  -4104704.05148  -3198468.19445         0.00041  24390530.14345  24390527.99448
 -13454839.89548 -10484280.02546         0.00041  22804657.88546  22804655.83748
 96 10 13 02 59 00.0000000  0  8 19 18 29 10 31 16 02 27
 -17639899.45449 -13745363.76347         0.00041  20789385.95747  20789383.83049
 -12515118.41449  -9752035.83248         0.00041  20178161.69948  20178160.46449
  12015192.35948   9362488.48046         0.00041  23045228.68146  23045228.25648
  -3759263.86348  -2929296.60444         0.00041  24163534.60144  24163533.12248
 -12668894.66348  -9871861.49546         0.00041  22464996.35546  22464996.18848
 -14475958.55949 -11279962.38046         0.00041  22174167.59846  22174165.49649
  -4198593.61348  -3271628.84845         0.00041  24372663.54545  24372661.64448
 -13522946.36448 -10537349.97046         0.00041  22791697.58246  22791695.47848
 96 10 13 02 59 30.0000000  0  8 19 18 29 10 31 16 02 27
 -17663325.13949 -13763617.55147         0.00041  20784928.10247  20784926.11349
 -12495343.01849  -9736626.43348         0.00041  20181924.80848  20181923.53649
  12100351.99548   9428846.63346         0.00041  23061434.86246  23061433.69648
  -3822906.39448  -2978888.19544         0.00041  24151423.19644  24151421.29548
 -12734235.15248  -9922776.13846         0.00041  22452563.37546  22452562.20348
 -14489765.47549 -11290721.03146         0.00041  22171539.84246  22171538.15649
  -4291638.87448  -3344131.63345         0.00041  24354959.56945  24354955.30548
 -13590275.09648 -10589813.89746         0.00041  22778885.43146  22778882.93548
 96 10 13 03 00 00.0000000  0  8 19 18 29 10 31 16 02 27
 -17685855.72549 -13781173.84447         0.00041  20780640.53147  20780638.70449
 -12474381.69249  -9720292.94248         0.00041  20185913.62648  20185912.36349
  12186505.53648   9495979.24046         0.00041  23077829.03346  23077827.62448
  -3885418.23048  -3027598.68844         0.00041  24139528.82744  24139525.86848
 -12798452.41648  -9972815.54646         0.00041  22440343.35246  22440342.32548
 -14502280.24149 -11300472.80946         0.00041  22169159.37646  22169156.66649
  -4383799.54348  -3415945.11145         0.00041  24337422.15745  24337418.10148
 -13656792.98648 -10641646.00746         0.00041  22766227.74546  22766225.23248
 96 10 13 03 00 30.0000000  0  8 19 18 29 10 31 16 02 27
 -17707227.31549 -13797827.01547         0.00041  20776573.60747  20776571.70949
 -12451971.87649  -9702830.76248         0.00041  20190178.06848  20190176.98849
  12273909.08948   9564085.89046         0.00041  23094462.27446  23094460.36948
  -3946534.03848  -3075221.37745         0.00041  24127898.05145  24127895.63948
 -12861284.52848 -10021775.61346         0.00041  22428386.40346  22428385.71548
 -14513253.07849 -11309023.07446         0.00041  22167071.68746  22167068.51649
  -4474815.32348  -3486866.47745         0.00041  24320102.16745  24320098.72448
 -13722230.48548 -10692636.25846         0.00041  22753775.43146  22753772.60448
 96 10 13 03 01 00.0000000  0  8 19 18 29 10 31 16 02 27
 -17727363.44149 -13813517.48547         0.00041  20772741.85647  20772740.06249
 -12428025.52149  -9684171.27148         0.00041  20194735.01048  20194733.77249
  12362647.14548   9633232.41346         0.00041  23111348.03246  23111346.55648
  -4006163.27848  -3121685.70945         0.00041  24116550.95445  24116548.76848
 -12922661.60248 -10069601.89746         0.00041  22416707.99246  22416706.17948
 -14522603.92049 -11316309.44546         0.00041  22165291.66746  22165289.04549
  -4564612.33148  -3556838.13545         0.00041  24303014.40445  24303011.04148
 -13786499.00748 -10742715.60846         0.00041  22741545.72446  22741542.61848
 96 10 13 03 01 30.0000000  0  8 19 18 29 10 31 16 02 27
 -17745659.59349 -13827774.24247         0.00041  20769260.21647  20769258.36549
 -12401930.78749  -9663837.71448         0.00041  20199700.75248  20199699.39349
  12453329.47748   9703893.93946         0.00041  23128603.95946  23128602.65448
  -4063668.14448  -3166494.67745         0.00041  24105609.89545  24105607.06448
 -12981995.96648 -10115836.45646         0.00041  22405416.09346  22405414.65948
 -14529724.33849 -11321857.83046         0.00041  22163936.67446  22163933.64849
  -4652575.12048  -3625380.53745         0.00041  24286274.65245  24286272.22848
 -13849007.51348 -10791423.52546         0.00041  22729650.54346  22729647.40348
 96 10 13 03 02 00.0000000  0  8 19 18 29 10 31 16 02 27
 -17762202.89249 -13840665.14347         0.00041  20766112.18247  20766110.37049
 -12373787.47249  -9641907.85748         0.00041  20205056.07548  20205054.87649
  12545852.00848   9775989.39946         0.00041  23146209.68346  23146209.72648
  -4119125.63148  -3209708.29445         0.00041  24095055.31345  24095052.25348
 -13039376.30748 -10160548.40346         0.00041  22394497.55346  22394495.86848
 -14534725.79249 -11325755.07146         0.00041  22162985.15946  22162982.11149
  -4738793.48848  -3692563.64045         0.00041  24269868.71845  24269864.30248
 -13909861.25048 -10838841.97646         0.00041  22718070.24646  22718067.81648
 96 10 13 03 02 30.0000000  0  8 19 18 29 10 31 16 02 27
 -17776691.29049 -13851954.80047         0.00041  20763355.38947  20763353.25549
 -12343279.47349  -9618135.40448         0.00041  20210861.64648  20210860.46849
  12640492.54148   9849735.25546         0.00041  23164220.02546  23164219.37148
  -4172225.54448  -3251084.85145         0.00041  24084951.86745  24084948.27848
 -13094490.59948 -10203494.59746         0.00041  22384009.60446  22384007.91048
 -14537296.54649 -11327758.25946         0.00041  22162496.29446  22162493.16749
  -4822958.60248  -3758146.81445         0.00041  24253851.48345  24253848.18348
 -13968760.32148 -10884737.34146         0.00041  22706861.95546  22706859.90848
 96 10 13 03 03 00.0000000  0  8 19 18 29 10 31 16 02 27
 -17790787.99449 -13862939.25347         0.00041  20760672.65647  20760670.55849
 -12312091.90949  -9593833.41648         0.00041  20216796.46448  20216795.13749
  12735558.03848   9923812.27346         0.00041  23182310.11846  23182309.63948
  -4224657.33748  -3291940.79945         0.00041  24074974.17045  24074969.87448
 -13149004.35848 -10245972.81746         0.00041  22373635.60846  22373634.43648
 -14539103.60748 -11329166.34646         0.00041  22162152.48946  22162148.75248
  -4906750.37348  -3823439.06845         0.00041  24237907.91445  24237904.33248
 -14027401.28948 -10930431.58846         0.00041  22695702.76646  22695701.14448
 96 10 13 03 03 30.0000000  0  8 19 18 29 10 31 16 02 27
 -17805105.31449 -13874095.60947         0.00041  20757948.31547  20757946.34849
 -12280854.35249  -9569492.47248         0.00041  20222740.68548  20222739.45149
  12830414.42248   9997726.33846         0.00041  23200360.96646  23200360.36148
  -4277054.11348  -3332769.41145         0.00041  24065001.90545  24064999.71448
 -13203525.23348 -10288456.60546         0.00041  22363259.60146  22363259.67848
 -14540771.98549 -11330466.38746         0.00041  22161834.25346  22161831.76549
  -4990791.26548  -3888925.44145         0.00041  24221914.56845  24221911.53848
 -14086422.01348 -10976421.74846         0.00041  22684470.85246  22684468.98648
 96 10 13 03 04 00.0000000  0  8 19 18 29 10 31 16 02 27
 -17820809.42049 -13886332.56947         0.00041  20754959.85847  20754957.97049
 -12250751.88949  -9546036.02748         0.00041  20228468.92248  20228467.75149
  12923878.82448  10070555.72346         0.00041  23218146.65946  23218146.06948
  -4330614.50448  -3374504.79545         0.00041  24054811.53845  24054808.40048
 -13259212.32848 -10331849.12846         0.00041  22352663.56546  22352662.24748
 -14543478.59849 -11332575.45546         0.00041  22161319.81046  22161316.67049
  -5076261.38148  -3955525.50145         0.00041  24205650.33245  24205647.37148
 -14146989.61748 -11023617.27146         0.00041  22672946.00246  22672943.60048
 96 10 13 03 04 30.0000000  0  8 19 18 29 10 31 16 02 27
 -17838577.39849 -13900177.73547         0.00041  20751578.69347  20751576.56349
 -12222447.10949  -9523980.37048         0.00041  20233855.31448  20233854.06449
  13015286.71548  10141782.63346         0.00041  23235541.20946  23235539.80848
  -4386020.70848  -3417678.44645         0.00041  24044267.24445  24044264.19548
 -13316731.65248 -10376669.36546         0.00041  22341717.27346  22341716.94848
 -14547875.19549 -11336001.37346         0.00041  22160484.18746  22160479.67849
  -5163842.56948  -4023770.53245         0.00041  24188984.97645  24188980.60648
 -14209767.23548 -11072534.87446         0.00041  22661000.12646  22660997.68948
 96 10 13 03 05 00.0000000  0  8 19 18 29 10 31 16 02 27
 -17857476.01249 -13914903.92347         0.00041  20747982.31947  20747980.33649
 -12194994.75749  -9502588.92448         0.00041  20239079.37548  20239078.00549
  13105615.95648  10212169.04046         0.00041  23252729.98746  23252728.86848
  -4442328.77348  -3461554.86345         0.00041  24033552.57145  24033549.31648
 -13375130.07348 -10422174.61846         0.00041  22330604.71346  22330603.89048
 -14553010.73349 -11340003.08646         0.00041  22159505.37646  22159502.42949
  -5252594.71748  -4092928.03445         0.00041  24172095.21345  24172091.57448
 -14273804.36348 -11122433.91446         0.00041  22648814.61046  22648812.32348
 96 10 13 03 05 30.0000000  0  8 19 18 29 10 31 16 02 27
 -17876896.91849 -13930037.09847         0.00041  20744286.45947  20744284.65849
 -12167772.84449  -9481377.04547         0.00041  20244259.36847  20244258.18249
  13195492.82948  10282202.96346         0.00041  23269833.37346  23269832.47848
  -4498893.91248  -3505631.57845         0.00041  24022788.18845  24022784.83748
 -13433787.50448 -10467881.69346         0.00041  22319442.48746  22319441.55348
 -14558271.86849 -11344102.69546         0.00041  22158503.47246  22158501.78749
  -5341888.27648  -4162507.40445         0.00041  24155103.33945  24155100.01548
 -14338458.49748 -11172813.74146         0.00041  22636510.66946  22636508.44148
 96 10 13 03 06 00.0000000  0  8 19 18 29 10 31 16 02 27
 -17896444.12549 -13945268.67447         0.00041  20740566.79847  20740565.00149
 -12140369.46349  -9460023.77347         0.00041  20249474.04747  20249472.93749
  13285323.16748  10352200.60746         0.00041  23286927.39746  23286926.14748
  -4555293.32948  -3549579.19045         0.00041  24012056.28045  24012053.06448
 -13492295.49048 -10513472.32746         0.00041  22308309.34146  22308307.74948
 -14563252.00449 -11347983.34546         0.00041  22157556.50746  22157553.72849
  -5431308.61848  -4232185.56345         0.00041  24138085.98645  24138083.62748
 -14403307.98348 -11223345.79446         0.00041  22624171.01546  22624167.92448
 96 10 13 03 06 30.0000000  0  8 19 18 29 10 31 16 02 27
 -17916340.52649 -13960772.36647         0.00041  20736780.87447  20736778.94249
 -12112986.14249  -9438686.12447         0.00041  20254684.89447  20254683.70549
  13374890.51448  10421993.34046         0.00041  23303971.09146  23303970.47848
  -4611722.20948  -3593549.71845         0.00041  24001318.25945  24001315.10348
 -13550866.54248 -10559112.09746         0.00041  22297163.45946  22297162.17548
 -14568169.14649 -11351814.88946         0.00041  22156621.23246  22156618.04949
  -5521078.69548  -4302136.23945         0.00041  24121003.91645  24121000.71448
 -14468566.38948 -11274196.48146         0.00041  22611752.54946  22611750.38448
 96 10 13 03 07 00.0000000  0  8 19 18 29 10 31 16 02 27
 -17936043.74649 -13976125.53247         0.00041  20733031.39547  20733029.32349
 -12085087.44849  -9416946.89947         0.00041  20259993.95147  20259992.76449
  13464727.87248  10491996.47246         0.00041  23321066.44946  23321066.11348
  -4667620.30648  -3637106.67745         0.00041  23990680.18845  23990678.06248
 -13608971.28248 -10604388.50046         0.00041  22286107.18146  22286105.59648
 -14572494.41749 -11355185.23446         0.00041  22155798.23246  22155795.02149
  -5610653.42348  -4371934.70745         0.00041  24103956.41945  24103955.46748
 -14533691.54848 -11324943.35146         0.00041  22599359.33046  22599357.52548
 96 10 13 03 07 30.0000000  0  8 19 18 29 10 31 16 02 27
 -17955853.70849 -13991561.85947         0.00041  20729261.39047  20729259.79149
 -12056988.60449  -9395051.69547         0.00041  20265341.13747  20265339.86449
  13554505.24648  10561952.85546         0.00041  23338150.53246  23338149.72748
  -4723296.66048  -3680490.84945         0.00041  23980085.76745  23980083.10248
 -13666936.08448 -10649555.86846         0.00041  22275076.44246  22275075.34948
 -14576557.13649 -11358350.99946         0.00041  22155024.28246  22155022.31649
  -5700355.26748  -4441832.20645         0.00041  24086888.06945  24086885.24748
 -14598991.07848 -11375826.08646         0.00041  22586932.97746  22586930.79748
 96 10 13 03 08 00.0000000  0  8 19 18 29 10 31 16 02 27
 -17975698.70449 -14007025.48447         0.00041  20725485.49047  20725483.44349
 -12028615.05149  -9372942.43947         0.00041  20270740.32847  20270739.12249
  13644299.28148  10631922.22746         0.00041  23355237.94246  23355237.29848
  -4778696.24448  -3723659.39745         0.00041  23969543.44045  23969541.11848
 -13724688.64448 -10694557.84946         0.00041  22264086.37046  22264085.40548
 -14580284.39349 -11361255.36546         0.00041  22154315.38446  22154312.65449
  -5790128.14948  -4511785.06945         0.00041  24069805.06245  24069802.30248
 -14664414.84748 -11426805.62746         0.00041  22574483.15546  22574481.26448
 96 10 13 03 08 30.0000000  0  8 19 18 29 10 31 16 02 27
 -17995176.72849 -14022203.14947         0.00041  20721778.75347  20721776.70249
 -11999578.14749  -9350316.29448         0.00041  20276265.98848  20276264.65249
  13734504.04048  10702211.62345         0.00041  23372402.98045  23372402.25348
  -4833427.88748  -3766307.43645         0.00041  23959129.26945  23959125.64448
 -13781843.58348 -10739094.14646         0.00041  22253210.02246  22253208.64348
 -14583280.50149 -11363590.00146         0.00041  22153745.43846  22153742.54549
  -5879586.65948  -4581492.97345         0.00041  24052781.55345  24052779.57548
 -14729589.39648 -11477590.97346         0.00041  22562080.39446  22562078.30948
 96 10 13 03 09 00.0000000  0  8 19 18 29 10 31 16 02 27
 -18014048.69449 -14036908.56547         0.00041  20718187.26247  20718185.37249
 -11969645.85549  -9326992.43248         0.00041  20281961.78448  20281960.49649
  13825374.40148  10773019.68346         0.00041  23389695.12546  23389694.20348
  -4887262.11148  -3808256.17445         0.00041  23948884.64045  23948880.81348
 -13838158.52248 -10782975.91446         0.00041  22242493.52646  22242492.10748
 -14585298.07149 -11365162.13346         0.00041  22153362.09346  22153359.15649
  -5968473.11848  -4650755.11245         0.00041  24035867.64745  24035864.80848
 -14794286.61348 -11528004.38046         0.00041  22549769.91946  22549766.83748
 96 10 13 03 09 30.0000000  0  8 19 18 29 10 31 16 02 27
 -18032486.79149 -14051275.91847         0.00041  20714678.70247  20714676.85249
 -11938987.84049  -9303103.07048         0.00041  20287795.97048  20287794.74249
  13916739.36348  10844213.13546         0.00041  23407082.03446  23407080.73948
  -4940401.84448  -3849663.69845         0.00041  23938772.64445  23938769.03848
 -13893790.23348 -10826325.28046         0.00041  22231906.54946  22231906.12448
 -14586508.67049 -11366105.45446         0.00041  22153131.19746  22153128.13449
  -6056953.92348  -4719701.16845         0.00041  24019029.46245  24019026.76948
 -14858702.27348 -11578198.37846         0.00041  22537511.53146  22537509.36548
 96 10 13 03 10 00.0000000  0  8 19 18 29 10 31 16 02 27
 -18050749.90049 -14065506.90547         0.00041  20711203.19047  20711201.53649
 -11907864.40249  -9278851.04348         0.00041  20293718.44748  20293717.26849
  14008339.15848  10915589.59245         0.00041  23424512.67145  23424511.05948
  -4993111.21348  -3890735.91345         0.00041  23928742.50745  23928738.97148
 -13948983.85648 -10869333.29146         0.00041  22221404.05046  22221403.27148
 -14587156.31549 -11366610.11546         0.00041  22153007.59046  22153004.84249
  -6145275.12448  -4788522.84945         0.00041  24002222.88045  24002220.54448
 -14923097.47648 -11628376.44346         0.00041  22525257.29946  22525255.33248
 96 10 13 03 10 30.0000000  0  8 19 18 29 10 31 16 02 27
 -18068593.24049 -14079410.79847         0.00041  20707808.02747  20707806.07449
 -11876020.84549  -9254037.89048         0.00041  20299778.06248  20299776.89849
  14100418.50448  10987339.72845         0.00041  23442034.95145  23442033.27048
  -5045149.25748  -3931285.04645         0.00041  23918839.02545  23918835.96148
 -14003493.15348 -10911808.04846         0.00041  22211031.10846  22211030.59448
 -14586996.09749 -11366485.27946         0.00041  22153037.47246  22153035.95249
  -6233170.38548  -4857012.64645         0.00041  23985496.42445  23985494.36548
 -14987210.99348 -11678335.01446         0.00041  22513056.83946  22513054.22748
 96 10 13 03 11 00.0000000  0  8 19 18 29 10 31 16 02 27
 -18085196.64849 -14092348.49747         0.00041  20704648.47647  20704646.70449
 -11842626.95049  -9228016.67347         0.00041  20306132.67547  20306131.64949
  14193793.27048  11060099.27345         0.00041  23459803.78145  23459802.71848
  -5095707.61048  -3970681.16945         0.00041  23909219.75745  23909215.67748
 -14056479.60648 -10953096.17446         0.00041  22200948.36246  22200947.90248
 -14585220.23849 -11365101.49746         0.00041  22153376.24146  22153373.66749
  -6319804.46248  -4924519.69045         0.00041  23969011.20145  23969008.07748
 -15050201.84248 -11727418.77546         0.00041  22501070.35946  22501067.61148
 96 10 13 03 11 30.0000000  0  8 19 18 29 10 31 16 02 27
 -18100589.93949 -14104343.25847         0.00041  20701719.23947  20701717.50249
 -11807718.15849  -9200815.02647         0.00041  20312775.52047  20312774.66249
  14288405.09448  11133822.75045         0.00041  23477807.36745  23477806.94948
  -5144813.45048  -4008945.46045         0.00041  23899874.50145  23899870.34048
 -14107989.43548 -10993233.68746         0.00041  22191146.63246  22191145.37748
 -14581880.25049 -11362498.90846         0.00041  22154012.58046  22154009.57149
  -6405217.87348  -4991075.55745         0.00041  23952757.84745  23952755.10548
 -15112089.27148 -11775642.71946         0.00041  22489293.03846  22489290.96448
 96 10 13 03 12 00.0000000  0  8 19 18 29 10 31 16 02 27
 -18116035.40749 -14116378.69347         0.00041  20698780.26047  20698778.19349
 -11772563.88949  -9173422.09947         0.00041  20319465.21347  20319464.18449
  14382990.01648  11207525.27746         0.00041  23495806.73746  23495805.39448
  -5193703.75948  -4047041.78145         0.00041  23890569.41245  23890566.63848
 -14159291.84048 -11033209.56546         0.00041  22181384.10946  22181382.86648
 -14578251.82349 -11359671.57446         0.00041  22154702.69946  22154700.15649
  -6490669.45448  -5057661.19545         0.00041  23936496.09245  23936494.47748
 -15174109.22948 -11823969.95646         0.00041  22477490.66846  22477489.48248
 96 10 13 03 12 30.0000000  0  8 19 18 29 10 31 16 02 27
 -18131783.54749 -14128649.96047         0.00041  20695783.23447  20695781.23049
 -11737419.78249  -9146037.09047         0.00041  20326152.88847  20326151.81549
  14477294.30248  11281009.11946         0.00041  23513752.73846  23513751.26048
  -5242611.83748  -4085151.95845         0.00041  23881264.16245  23881261.00548
 -14210639.86448 -11073220.99846         0.00041  22171612.86646  22171611.58348
 -14574589.34249 -11356817.70346         0.00041  22155399.01746  22155396.71549
  -6576399.58448  -5124463.87545         0.00041  23920180.86845  23920179.77048
 -15236503.23048 -11872588.65546         0.00041  22465617.85246  22465616.14048
 96 10 13 03 13 00.0000000  0  8 19 18 29 10 31 16 02 27
 -18147804.62249 -14141133.89647         0.00041  20692734.35747  20692732.47349
 -11702272.01849  -9118649.24147         0.00041  20332841.44447  20332840.31049
  14571335.52148  11354287.98545         0.00041  23531647.33745  23531646.47448
  -5291495.51448  -4123243.15945         0.00041  23871961.08945  23871958.38648
 -14262004.51448 -11113245.38646         0.00041  22161838.01446  22161837.10948
 -14570859.46349 -11353911.30546         0.00041  22156108.50046  22156106.44049
  -6662391.81248  -5191470.78345         0.00041  23903818.82145  23903815.96848
 -15299246.59148 -11921479.57346         0.00041  22453678.67446  22453676.74948
 96 10 13 03 13 30.0000000  0  8 19 18 29 10 31 16 02 27
 -18163991.47449 -14153747.03847         0.00041  20689654.12847  20689652.44049
 -11667022.59149  -9091182.16347         0.00041  20339549.22247  20339548.11749
  14665227.25048  11427450.35245         0.00041  23549515.20445  23549513.74848
  -5340229.72648  -4161217.87645         0.00041  23862687.90045  23862684.85848
 -14313289.14748 -11153207.42946         0.00041  22152079.05446  22152077.70448
 -14566926.65049 -11350846.78346         0.00041  22156856.96946  22156854.73249
  -6748541.15348  -5258600.12145         0.00041  23887424.46145  23887422.41048
 -15362238.20648 -11970563.93346         0.00041  22441691.85246  22441689.55648
 96 10 13 03 14 00.0000000  0  8 19 18 29 10 31 16 02 27
 -18180228.55749 -14166399.30147         0.00041  20686564.28647  20686562.80149
 -11631559.68449  -9063548.73848         0.00041  20346297.58248  20346296.46349
  14759088.35948  11500588.86245         0.00041  23567375.22745  23567374.05148
  -5388709.29248  -4198994.12745         0.00041  23853461.83945  23853459.42048
 -14364358.83348 -11193001.97346         0.00041  22142360.55546  22142359.85548
 -14562657.16849 -11347519.91846         0.00041  22157669.91546  22157666.92149
  -6834738.23248  -5325766.65045         0.00041  23871022.14745  23871019.79648
 -15425378.88448 -12019764.45046         0.00041  22429676.56546  22429674.59348
 96 10 13 03 14 30.0000000  0  8 19 18 29 10 31 16 02 27
 -18196722.38649 -14179251.62647         0.00041  20683425.50247  20683423.85949
 -11596066.86949  -9035892.00447         0.00041  20353051.76747  20353050.62649
  14852718.62348  11573547.49945         0.00041  23585193.13945  23585192.04548
  -5437137.56348  -4236730.43745         0.00041  23844246.23145  23844243.99648
 -14415404.84648 -11232778.06046         0.00041  22132646.87346  22132646.40948
 -14558234.40549 -11344073.61246         0.00041  22158511.55246  22158508.65049
  -6921196.94448  -5393137.05045         0.00041  23854569.54945  23854567.16548
 -15488887.32448 -12069251.53946         0.00041  22417591.62046  22417589.40548
 96 10 13 03 15 00.0000000  0  8 19 18 29 10 31 16 02 27
 -18213194.09149 -14192086.72347         0.00041  20680291.22247  20680289.56049
 -11560251.51349  -9007983.94047         0.00041  20359866.86347  20359865.79649
  14946406.25448  11646550.83345         0.00041  23603021.46245  23603020.07948
  -5485230.34148  -4274205.33745         0.00041  23835095.88045  23835092.42648
 -14466129.72548 -11272303.92746         0.00041  22122994.15646  22122993.85548
 -14553373.98549 -11340286.27946         0.00041  22159436.78246  22159433.57149
  -7007649.43548  -5460502.60345         0.00041  23838117.86045  23838115.66448
 -15552504.70048 -12118823.50446         0.00041  22405484.91146  22405483.22248
 96 10 13 03 15 30.0000000  0  8 19 18 29 10 31 16 02 27
 -18229290.73449 -14204629.54147         0.00041  20677228.18847  20677226.28649
 -11523747.41749  -8979539.20047         0.00041  20366813.35147  20366812.42649
  15040513.36548  11719881.05245         0.00041  23620929.18545  23620927.49848
  -5532622.33348  -4311134.18645         0.00041  23826076.34445  23826073.60148
 -14516164.62948 -11311292.13446         0.00041  22113473.31646  22113472.44648
 -14547725.82949 -11335885.13546         0.00041  22160511.09246  22160508.78749
  -7093726.63048  -5527575.72045         0.00041  23821738.12345  23821735.37848
 -15615868.78548 -12168198.11946         0.00041  22393426.93746  22393424.97948
 96 10 13 03 16 00.0000000  0  8 19 18 29 10 31 16 02 27
 -18244968.45849 -14216845.93947         0.00041  20674244.91847  20674243.07149
 -11486488.85749  -8950506.56547         0.00041  20373903.47247  20373902.50349
  15135094.82148  11793580.87345         0.00041  23638926.22345  23638926.13748
  -5579260.24848  -4347475.42545         0.00041  23817200.19445  23817198.64848
 -14565444.38448 -11349691.92746         0.00041  22104094.83746  22104094.28248
 -14541260.55649 -11330847.28646         0.00041  22161741.29946  22161739.35449
  -7179372.21948  -5594312.53745         0.00041  23805440.95445  23805438.26048
 -15678922.90648 -12217331.20246         0.00041  22381428.10046  22381425.20248
 96 10 13 03 16 30.0000000  0  8 19 18 29 10 31 16 02 27
 -18260540.92949 -14228980.33147         0.00041  20671281.42847  20671279.49549
 -11448779.47449  -8921122.63647         0.00041  20381079.30947  20381078.32349
  15229847.95948  11867414.47145         0.00041  23656958.15545  23656957.34748
  -5625440.49348  -4383460.03845         0.00041  23808413.41145  23808410.49348
 -14614278.50048 -11387744.47146         0.00041  22094802.97546  22094801.64248
 -14534295.71449 -11325420.15146         0.00041  22163067.03046  22163064.19149
  -7264876.93848  -5660939.58445         0.00041  23789169.08745  23789166.44448
 -15741969.14948 -12266458.12846         0.00041  22369431.57246  22369428.53448
 96 10 13 03 17 00.0000000  0  8 19 18 29 10 31 16 02 27
 -18275862.94049 -14240919.55947         0.00041  20668365.79547  20668364.01449
 -11410498.43549  -8891293.26347         0.00041  20388363.96347  20388363.09049
  15324906.39548  11941485.97445         0.00041  23675046.12645  23675046.29948
  -5671035.23748  -4418988.39845         0.00041  23799737.09645  23799735.03848
 -14662522.67448 -11425337.32846         0.00041  22085622.48846  22085621.26148
 -14526703.97549 -11319504.51346         0.00041  22164511.77346  22164508.76149
  -7350077.00348  -5727329.22245         0.00041  23772957.03345  23772954.01548
 -15804850.98348 -12315456.95346         0.00041  22357465.27146  22357462.98148
 96 10 13 03 17 30.0000000  0  8 19 18 29 10 31 16 02 27
 -18291197.63649 -14252868.67547         0.00041  20665447.50647  20665445.99649
 -11371928.89149  -8861239.08147         0.00041  20395703.51547  20395702.41449
  15419992.53348  12015579.05645         0.00041  23693141.32445  23693140.73448
  -5716328.90548  -4454282.19045         0.00041  23791117.65345  23791115.35548
 -14710454.54848 -11462686.83546         0.00041  22076500.81146  22076499.84048
 -14518763.49149 -11313317.12946         0.00041  22166022.71546  22166019.76449
  -7435234.46548  -5793685.66946         0.00041  23756751.56046  23756749.03348
 -15867823.59449 -12364526.50346         0.00041  22345481.22646  22345479.67549
 96 10 13 03 18 00.0000000  0  8 19 18 29 10 31 16 02 27
 -18307073.12649 -14265239.18447         0.00041  20662426.41347  20662424.82449
 -11333632.41849  -8831397.67847         0.00041  20402991.18547  20402989.97349
  15514552.36348  12089262.03045         0.00041  23711134.07145  23711134.35448
  -5761875.34648  -4489772.89945         0.00041  23782450.95945  23782448.36848
 -14758615.95048 -11500215.19546         0.00041  22067335.71346  22067335.07148
 -14511014.39249 -11307278.87646         0.00041  22167497.29446  22167494.66449
  -7520901.28948  -5860439.01646         0.00041  23740449.58246  23740447.26648
 -15931435.83949 -12414094.47046         0.00041  22333376.00746  22333374.67849
 96 10 13 03 18 30.0000000  0  8 19 18 29 10 31 16 02 27
 -18323348.99649 -14277921.69747         0.00041  20659329.30047  20659327.70849
 -11295496.74649  -8801681.58547         0.00041  20410248.24247  20410247.06749
  15608704.63748  12162627.40945         0.00041  23729051.99945  23729051.11248
  -5807547.69448  -4525361.71245         0.00041  23773759.37245  23773756.85148
 -14806882.91548 -11537825.79946         0.00041  22058150.54246  22058150.23648
 -14503326.50149 -11301288.33246         0.00041  22168960.36146  22168957.71749
  -7606956.43348  -5927494.95246         0.00041  23724074.08346  23724071.05548
 -15995567.99649 -12464067.57046         0.00041  22321172.34646  22321170.91849
 96 10 13 03 19 00.0000000  0  8 19 18 29 10 31 16 02 27
 -18339121.39449 -14290211.86647         0.00041  20656327.91947  20656326.08749
 -11256625.19149  -8771392.06247         0.00041  20417645.44847  20417644.09149
  15703332.33648  12236363.24345         0.00041  23747059.18845  23747058.49548
  -5852443.14948  -4560345.18745         0.00041  23765217.09245  23765214.17748
 -14854370.07149 -11574828.77146         0.00041  22049114.52846  22049113.66849
 -14494807.18748 -11294649.90946         0.00041  22170581.14046  22170577.75548
  -7692521.94148  -5994169.36146         0.00041  23707791.22746  23707788.89148
 -16059321.66949 -12513745.73746         0.00041  22309040.23146  22309038.57449
 96 10 13 03 19 30.0000000  0  8 19 18 29 10 31 16 02 27
 -18354158.20749 -14301928.84847         0.00041  20653466.54147  20653464.67549
 -11216779.84149  -8740343.74347         0.00041  20425227.60647  20425226.39949
  15798667.23848  12310650.15645         0.00041  23765200.56045  23765200.16148
  -5896314.35748  -4594530.56745         0.00041  23756867.53045  23756865.17848
 -14900856.86449 -11611052.23346         0.00041  22040268.13046  22040267.69449
 -14485219.62448 -11287179.07946         0.00041  22172405.91146  22172402.48348
  -7777385.17448  -6060296.53946         0.00041  23691641.62246  23691639.82848
 -16122475.24949 -12562956.30546         0.00041  22297023.27046  22297021.23349
 96 10 13 03 20 00.0000000  0  8 19 18 29 10 31 16 02 27
 -18369111.56949 -14313580.82047         0.00041  20650621.00547  20650619.25749
 -11176582.96649  -8709021.50847         0.00041  20432876.75847  20432875.56449
  15894077.07848  12384995.46345         0.00041  23783356.72645  23783355.86548
  -5939796.16248  -4628412.51945         0.00041  23748593.84245  23748591.24048
 -14946988.72349 -11646999.11646         0.00041  22031489.94546  22031489.25149
 -14475203.92449 -11279374.64646         0.00041  22174312.06446  22174308.83449
  -7862190.30948  -6126378.44846         0.00041  23675504.87646  23675502.33248
 -16185666.57348 -12612196.28046         0.00041  22284998.05846  22284995.71448
 96 10 13 03 20 30.0000000  0  8 19 18 29 10 31 16 02 27
 -18384063.65849 -14325231.79847         0.00041  20647775.70747  20647774.10049
 -11136096.34149  -8677473.49347         0.00041  20440581.23747  20440579.97149
  15989497.89448  12459349.32145         0.00041  23801514.61945  23801514.11248
  -5982956.33048  -4662043.80445         0.00041  23740380.31545  23740377.76348
 -14992849.03149 -11682734.41846         0.00041  22022762.76646  22022762.04749
 -14464843.45549 -11271301.56846         0.00041  22176283.52346  22176280.69749
  -7947013.24648  -6192474.23846         0.00041  23659362.99746  23659360.30548
 -16248962.77448 -12661517.97946         0.00041  22272953.24346  22272950.93348
 96 10 13 03 21 00.0000000  0  8 19 18 29 10 31 16 02 27
 -18398377.41049 -14336385.37447         0.00041  20645051.86447  20645050.17349
 -11094669.71349  -8645193.01147         0.00041  20448464.29547  20448463.09849
  16085570.06848  12534210.75545         0.00041  23819797.81445  23819795.61648
  -6025149.42248  -4694921.52545         0.00041  23732351.46945  23732349.18348
 -15037791.03349 -11717754.15246         0.00041  22014211.30046  22014209.96549
 -14453491.86649 -11262456.18746         0.00041  22178443.37946  22178440.67549
  -8031208.52448  -6258080.92446         0.00041  23643342.13546  23643338.63048
 -16311711.67248 -12710413.20746         0.00041  22261012.74246  22261010.28348
 96 10 13 03 21 30.0000000  0  8 19 18 29 10 31 16 02 27
 -18411159.35549 -14346345.32447         0.00041  20642619.56647  20642617.75849
 -11051401.58849  -8611477.59147         0.00041  20456697.97547  20456696.83249
  16183206.77448  12610291.31045         0.00041  23838376.19745  23838375.30548
  -6065482.99248  -4726350.26745         0.00041  23724676.82645  23724673.80448
 -15080898.04249 -11751344.02746         0.00041  22006007.65946  22006006.89849
 -14440250.78649 -11252138.48746         0.00041  22180963.28146  22180960.15049
  -8113858.30948  -6322483.33746         0.00041  23627613.74846  23627611.09548
 -16373011.27948 -12758179.13546         0.00041  22249348.12546  22249345.09248
 96 10 13 03 22 00.0000000  0  8 19 18 29 10 31 16 02 27
 -18421240.42949 -14354200.69847         0.00041  20640701.38347  20640699.54349
 -11005119.46649  -8575413.61047         0.00041  20465505.06647  20465503.99349
  16283572.94848  12688498.69645         0.00041  23857476.23445  23857474.60748
  -6102797.16648  -4755426.24945         0.00041  23717575.13745  23717573.38048
 -15120989.78649 -11782584.33846         0.00041  21998378.17546  21998377.42749
 -14423958.14748 -11239442.92646         0.00041  22184063.70446  22184060.50148
  -8193784.43348  -6384763.42546         0.00041  23612404.55546  23612401.08348
 -16431690.68448 -12803903.34346         0.00041  22238181.60346  22238178.56948
 96 10 13 03 22 30.0000000  0  8 19 18 29 10 31 16 02 27
 -18429214.05949 -14360413.90247         0.00041  20639183.83247  20639182.03249
 -10956434.51949  -8537477.30547         0.00041  20474769.66047  20474768.64249
  16386047.82148  12768349.24845         0.00041  23876977.76945  23876974.67248
  -6137705.58948  -4782627.65545         0.00041  23710932.13945  23710929.82148
 -15158658.37849 -11811936.48146         0.00041  21991210.22046  21991209.33249
 -14405221.41548 -11224842.88046         0.00041  22187629.37746  22187625.88048
  -8271586.87348  -6445388.69546         0.00041  23597599.03346  23597595.90348
 -16488367.69148 -12848067.23146         0.00041  22227396.29746  22227394.17648
 96 10 13 03 23 00.0000000  0  8 19 18 29 10 31 16 02 27
 -18436451.26449 -14366053.28447         0.00041  20637806.93847  20637805.23149
 -10906715.74549  -8498735.41947         0.00041  20484230.91647  20484229.75449
  16489255.03048  12848770.44945         0.00041  23896615.36345  23896614.27348
  -6171590.42548  -4809031.41445         0.00041  23704484.91145  23704482.50448
 -15195260.06049 -11840457.26146         0.00041  21984245.03446  21984244.43449
 -14385401.60248 -11209398.87846         0.00041  22191401.21446  22191397.72048
  -8348615.84748  -6505411.26646         0.00041  23582941.33946  23582938.10448
 -16544423.41848 -12891747.02646         0.00041  22216729.36846  22216726.82448
 96 10 13 03 23 30.0000000  0  8 19 18 29 10 31 16 02 27
 -18443373.73949 -14371447.42347         0.00041  20636489.48047  20636487.70949
 -10856380.18649  -8459512.91547         0.00041  20493809.61547  20493808.31249
  16592770.23948  12929431.63045         0.00041  23916312.64645  23916312.65748
  -6204880.28348  -4834971.56545         0.00041  23698150.29345  23698147.08648
 -15231206.58749 -11868467.53446         0.00041  21977404.80346  21977404.20349
 -14364915.82049 -11193435.92346         0.00041  22195299.32146  22195296.20449
  -8425282.66948  -6565151.63346         0.00041  23568351.49546  23568348.85548
 -16600283.42448 -12935274.28946         0.00041  22206099.01746  22206096.57648
 96 10 13 03 24 00.0000000  0  8 19 18 29 10 31 16 02 27
 -18450361.58749 -14376892.51047         0.00041  20635159.72347  20635158.01849
 -10805818.48249  -8420114.19547         0.00041  20503431.21047  20503429.75749
  16696203.91648  13010029.30245         0.00041  23935996.81545  23935995.74848
  -6237953.56948  -4860742.95945         0.00041  23691856.65545  23691853.45248
 -15266886.94749 -11896270.39446         0.00041  21970614.94546  21970614.58749
 -14344144.05949 -11177250.15646         0.00041  22199251.78046  22199248.99249
  -8501980.69748  -6624916.32546         0.00041  23553755.98046  23553753.32648
 -16656341.96549 -12978956.26046         0.00041  22195431.82246  22195429.78949
 96 10 13 03 24 30.0000000  0  8 19 18 29 10 31 16 02 27
 -18457210.51349 -14382229.33747         0.00041  20633856.57747  20633854.61149
 -10754828.87949  -8380382.04147         0.00041  20513134.28147  20513132.72649
  16799768.66548  13090729.10045         0.00041  23955703.80245  23955702.86648
  -6270581.03948  -4886166.97245         0.00041  23685647.40745  23685644.78548
 -15302093.14249 -11923703.77246         0.00041  21963915.37646  21963914.87849
 -14322869.94649 -11160672.93746         0.00041  22203299.90046  22203297.37649
  -8578500.13048  -6684541.83546         0.00041  23539195.12546  23539192.68748
 -16712390.30749 -13022630.29646         0.00041  22184766.06146  22184764.13849
 96 10 13 03 25 00.0000000  0  8 19 18 29 10 31 16 02 27
 -18465597.74349 -14388764.83247         0.00041  20632260.42847  20632258.67649
 -10705089.59449  -8341624.16347         0.00041  20522599.26847  20522597.84349
  16901800.49048  13170234.39645         0.00041  23975121.25745  23975119.55148
  -6304399.98748  -4912519.41345         0.00041  23679212.21845  23679209.07748
 -15338491.81849 -11952066.36846         0.00041  21956989.05646  21956988.23149
 -14302755.23949 -11144999.15646         0.00041  22207127.47946  22207125.09749
  -8656509.32448  -6745328.20646         0.00041  23524350.96546  23524348.35748
 -16770076.82649 -13067580.82546         0.00041  22173788.24546  22173786.32349
 96 10 13 03 25 30.0000000  0  8 19 18 29 10 31 16 02 27
 -18476938.31849 -14397601.63747         0.00041  20630102.16147  20630100.46449
 -10658022.11449  -8304948.21647         0.00041  20531556.00747  20531554.55249
  17000883.60048  13247442.00345         0.00041  23993974.55845  23993974.25248
  -6340810.70348  -4940891.39745         0.00041  23672282.55145  23672279.81948
 -15377506.27249 -11982467.22146         0.00041  21949564.51246  21949564.02449
 -14285221.65649 -11131336.64546         0.00041  22210464.18846  22210461.81049
  -8737446.69748  -6808396.26546         0.00041  23508948.59246  23508946.10848
 -16830804.37649 -13114900.99046         0.00041  22162232.52446  22162230.22049
 96 10 13 03 26 00.0000000  0  8 19 18 29 10 31 16 02 27
 -18489120.23649 -14407094.03847         0.00041  20627784.17247  20627782.46649
 -10611530.05149  -8268720.64347         0.00041  20540402.80547  20540401.62049
  17099133.21448  13324000.13945         0.00041  24012671.05845  24012670.40048
  -6377694.71348  -4969632.15745         0.00041  23665263.23745  23665261.00748
 -15417043.10849 -12013275.13346         0.00041  21942041.45446  21942040.30749
 -14268171.69449 -11118050.97546         0.00041  22213708.35246  22213706.27849
  -8819222.70648  -6872117.81146         0.00041  23493386.78346  23493384.09748
 -16892461.84649 -13162945.75746         0.00041  22150499.60446  22150497.60049
 96 10 13 03 26 30.0000000  0  8 19 18 29 10 31 16 02 27
 -18501268.42849 -14416560.15747         0.00041  20625472.37747  20625470.68749
 -10564726.09749  -8232250.03747         0.00041  20549309.60847  20549308.14249
  17197421.48648  13400588.36745         0.00041  24031375.21845  24031374.13248
  -6414180.83948  -4998062.88545         0.00041  23658320.79945  23658318.72548
 -15456214.14149 -12043798.00446         0.00041  21934587.17346  21934586.29149
 -14250727.42849 -11104458.05646         0.00041  22217028.42846  22217025.50249
  -8900952.38648  -6935803.25946         0.00041  23477835.00846  23477831.88948
 -16954153.14349 -13211016.88646         0.00041  22138759.94246  22138758.33249
 96 10 13 03 27 00.0000000  0  8 19 18 29 10 31 16 02 27
 -18512622.90449 -14425407.79647         0.00041  20623311.75847  20623310.12049
 -10516851.60349  -8194945.24447         0.00041  20558419.58747  20558418.47349
  17296501.85848  13477793.84045         0.00041  24050228.92645  24050228.87048
  -6449532.86148  -5025609.90945         0.00041  23651593.68645  23651591.40848
 -15494254.73149 -12073440.00846         0.00041  21927348.15146  21927347.58949
 -14232146.51249 -11089979.43146         0.00041  22220564.27246  22220561.35349
  -8981883.53648  -6998866.48446         0.00041  23462432.99846  23462430.58548
 -17015123.37049 -13258526.14446         0.00041  22127157.83246  22127155.89949
 96 10 13 03 27 30.0000000  0  8 19 18 29 10 31 16 02 27
 -18523775.38349 -14434098.03747         0.00041  20621189.39647  20621187.71649
 -10468485.16649  -8157257.12247         0.00041  20567623.57647  20567622.46149
  17395790.17748  13555161.36445         0.00041  24069123.98345  24069122.58348
  -6484356.13748  -5052744.92945         0.00041  23644967.83545  23644964.62848
 -15531751.91949 -12102658.57846         0.00041  21920212.64346  21920211.93549
 -14213027.04449 -11075081.15346         0.00041  22224202.34746  22224199.93649
  -9062598.10448  -7061760.93846         0.00041  23447073.94746  23447071.33348
 -17075984.62749 -13305950.49246         0.00041  22115575.90546  22115574.41149
 96 10 13 03 28 00.0000000  0  8 19 18 29 10 31 16 02 27
 -18535149.04849 -14442960.63747         0.00041  20619025.18547  20619023.57149
 -10420041.15349  -8119508.54247         0.00041  20576842.25747  20576841.01349
  17494871.41148  13632367.48345         0.00041  24087978.42745  24087977.34248
  -6519078.05148  -5079800.98045         0.00041  23638358.28445  23638357.23348
 -15569100.84749 -12131761.62446         0.00041  21913105.75346  21913105.32349
 -14193791.85249 -11060092.69646         0.00041  22227863.36346  22227860.16949
  -9143500.11248  -7124801.44546         0.00041  23431679.35246  23431676.68848
 -17137168.64249 -13353626.34946         0.00041  22103933.18946  22103931.22249
 96 10 13 03 28 30.0000000  0  8 19 18 29 10 31 16 02 27
 -18546470.41049 -14451782.47647         0.00041  20616870.77347  20616868.99149
 -10371245.45149  -8081485.92547         0.00041  20586127.36047  20586126.45449
  17594004.51648  13709614.04445         0.00041  24106843.27145  24106841.54848
  -6553432.90448  -5106571.01345         0.00041  23631822.06545  23631819.79648
 -15606003.57849 -12160516.98246         0.00041  21906083.11346  21906082.62049
 -14174157.00048 -11044792.82746         0.00041  22231599.16846  22231596.09948
  -9224295.91948  -7187759.19246         0.00041  23416304.55046  23416301.48648
 -17198395.47249 -13401335.55846         0.00041  22092282.02146  22092280.20749
 96 10 13 03 29 00.0000000  0  8 19 18 29 10 31 16 02 27
 -18558549.44549 -14461194.70847         0.00041  20614572.16547  20614570.38749
 -10322918.75149  -8043828.77247         0.00041  20595323.99747  20595322.80049
  17692383.87048  13786273.25645         0.00041  24125564.63445  24125562.43748
  -6588221.91548  -5133679.35645         0.00041  23625201.76745  23625199.76248
 -15643275.18449 -12189559.77746         0.00041  21898990.53246  21898989.91649
 -14154936.97149 -11029816.19046         0.00041  22235256.81646  22235253.65849
  -9305798.21648  -7251267.46446         0.00041  23400794.54746  23400791.89148
 -17260485.64449 -13449717.49246         0.00041  22080466.82646  22080465.05749
 96 10 13 03 29 30.0000000  0  8 19 18 29 10 31 16 02 27
 -18571108.16649 -14470980.72147         0.00041  20612182.36547  20612180.74049
 -10274775.50349  -8006314.56047         0.00041  20604485.17847  20604483.98349
  17790290.99348  13862564.51145         0.00041  24144194.84745  24144193.20848
  -6623163.60748  -5160906.62645         0.00041  23618553.16645  23618549.98748
 -15680636.55349 -12218672.51946         0.00041  21891881.13946  21891880.03649
 -14135840.14449 -11014935.55546         0.00041  22238890.17946  22238887.81149
  -9387720.16848  -7315102.72246         0.00041  23385205.03646  23385203.32848
 -17323143.52249 -13498541.80246         0.00041  22068543.25446  22068541.41749
 96 10 13 03 30 00.0000000  0  8 19 18 29 10 31 16 02 27
 -18583843.62249 -14480904.45647         0.00041  20609758.76047  20609757.17649
 -10226537.41349  -7968726.45347         0.00041  20613664.48247  20613663.32349
  17887998.20848  13938700.00144         0.00041  24162788.75844  24162786.30148
  -6657972.05248  -5188030.10445         0.00041  23611929.38445  23611926.69948
 -15717805.46549 -12247635.30346         0.00041  21884807.40846  21884807.03749
 -14116579.41849 -10999927.20846         0.00041  22242555.17646  22242553.32149
  -9469779.67248  -7379045.16846         0.00041  23369590.03446  23369587.81448
 -17386057.14249 -13547565.38646         0.00041  22056570.63746  22056569.25649
 96 10 13 03 30 30.0000000  0  8 19 18 29 10 31 16 02 27
 -18596230.98949 -14490556.95047         0.00041  20607401.65747  20607399.90549
 -10177701.56649  -7930672.55747         0.00041  20622957.67147  20622956.48949
  17986006.10448  14015069.76744         0.00041  24181438.17544  24181436.72948
  -6692128.21448  -5214645.31045         0.00041  23605429.66845  23605426.92948
 -15754302.78249 -12276074.76046         0.00041  21877862.55246  21877861.82549
 -14096648.12949 -10984396.34646         0.00041  22246348.27646  22246346.60549
  -9551458.82848  -7442691.24346         0.00041  23354047.16046  23354044.00048
 -17448707.74449 -13596384.02346         0.00041  22044648.60146  22044647.43349
 96 10 13 03 31 00.0000000  0  8 19 18 29 10 31 16 02 27
 -18608305.70749 -14499965.81747         0.00041  20605103.90747  20605102.15249
 -10128297.42349  -7892175.82747         0.00041  20632359.02447  20632357.75549
  18084287.15448  14091652.38944         0.00041  24200139.19644  24200139.05148
  -6725663.40548  -5240776.62945         0.00041  23599048.68145  23599045.19448
 -15790175.10649 -12304027.21146         0.00041  21871036.25246  21871035.37749
 -14076098.57449 -10968383.72246         0.00041  22250258.89346  22250256.46049
  -9632789.28748  -7506065.61046         0.00041  23338570.65046  23338567.50448
 -17511141.21949 -13645033.47446         0.00041  22032768.41546  22032767.20349
 96 10 13 03 31 30.0000000  0  8 19 18 29 10 31 16 02 27
 -18619399.37149 -14508610.22747         0.00041  20602992.86147  20602991.08349
 -10077677.41749  -7852731.67347         0.00041  20641991.70147  20641990.55949
  18183472.22048  14168939.45844         0.00041  24219013.92544  24219013.29348
  -6757930.67048  -5265919.95245         0.00041  23592908.06145  23592904.87348
 -15824764.47949 -12330979.96546         0.00041  21864454.06846  21864453.57449
 -14054281.36649 -10951383.31646         0.00041  22254411.33746  22254407.77549
  -9713121.02448  -7568661.74146         0.00041  23323283.93946  23323280.90848
 -17572709.72249 -13693008.91646         0.00041  22021052.67846  22021050.55249
 96 10 13 03 32 00.0000000  0  8 19 18 29 10 31 16 02 27
 -18629011.16049 -14516099.92847         0.00041  20601163.80247  20601162.10249
 -10025354.48449  -7811960.56247         0.00041  20651948.41847  20651947.27349
  18284047.88748  14247310.10144         0.00041  24238152.18544  24238152.69848
  -6788426.69748  -5289683.08545         0.00041  23587104.45945  23587101.64748
 -15857582.07249 -12356552.10446         0.00041  21858209.57246  21858208.53649
 -14030700.69749 -10933008.77746         0.00041  22258897.74646  22258894.88449
  -9791957.32848  -7630092.61446         0.00041  23308282.06046  23308278.89448
 -17632942.22549 -13739943.32546         0.00041  22009590.52546  22009588.48149
 96 10 13 03 32 30.0000000  0  8 19 18 29 10 31 16 02 27
 -18638179.31549 -14523243.94147         0.00041  20599419.12347  20599417.39949
  -9972355.74849  -7770662.86047         0.00041  20662033.95847  20662032.76349
  18384988.44348  14325965.08944         0.00041  24257360.87144  24257361.08348
  -6818182.25148  -5312869.21945         0.00041  23581441.41645  23581439.76448
 -15889641.44449 -12381533.43646         0.00041  21852108.73546  21852108.11149
 -14006373.11849 -10914052.22246         0.00041  22263527.44146  22263524.47349
  -9870323.02048  -7691156.77446         0.00041  23293368.93946  23293365.90248
 -17692887.78449 -13786654.13746         0.00041  21998183.17146  21998181.07449
 96 10 13 03 33 00.0000000  0  8 19 18 29 10 31 16 02 27
 -18648304.03549 -14531133.32547         0.00041  20597492.49047  20597490.66849
  -9920050.24149  -7729905.33647         0.00041  20671987.31347  20671986.11549
  18484911.49648  14403827.17244         0.00041  24276376.96944  24276374.93648
  -6848578.54748  -5336554.69445         0.00041  23575657.12945  23575654.70148
 -15922303.22749 -12406984.17146         0.00041  21845893.12846  21845892.56249
 -13982670.74949 -10895582.85446         0.00041  22268038.20646  22268035.04349
  -9949618.79848  -7752945.66746         0.00041  23278279.38146  23278276.40448
 -17753944.51949 -13834230.80346         0.00041  21986564.54446  21986562.26649
 96 10 13 03 33 30.0000000  0  8 19 18 29 10 31 16 02 27
 -18659563.81649 -14539907.18447         0.00041  20595349.86147  20595348.10749
  -9868621.15549  -7689830.73447         0.00041  20681774.02947  20681772.76649
  18583639.19048  14480757.84844         0.00041  24295162.50744  24295162.48648
  -6879784.49148  -5360871.00245         0.00041  23569720.43945  23569716.63048
 -15955743.21949 -12433041.30446         0.00041  21839529.83346  21839529.05949
 -13959755.92849 -10877727.15546         0.00041  22272399.20546  22272396.00649
 -10030030.79648  -7815604.33546         0.00041  23262977.47146  23262974.96448
 -17816288.20449 -13882810.29746         0.00041  21974701.14346  21974698.52049
 96 10 13 03 34 00.0000000  0  8 19 18 29 10 31 16 02 27
 -18670923.92749 -14548759.22447         0.00041  20593188.12647  20593186.19749
  -9817007.09349  -7649611.99247         0.00041  20691595.91447  20691594.54849
  18682246.47548  14557594.70944         0.00041  24313929.11844  24313926.41548
  -6910737.71948  -5384990.39245         0.00041  23563828.84645  23563826.51348
 -15988901.83449 -12458879.18346         0.00041  21833219.55146  21833219.18849
 -13936564.62549 -10859656.02546         0.00041  22276812.00846  22276808.78949
 -10110490.54048  -7878300.22246         0.00041  23247666.02446  23247663.95948
 -17878858.59849 -13931566.43446         0.00041  21962794.09546  21962791.50649
 96 10 13 03 34 30.0000000  0  8 19 18 29 10 31 16 02 27
 -18682379.91449 -14557685.97047         0.00041  20591008.04247  20591006.18649
  -9765197.23349  -7609240.67647         0.00041  20701454.86647  20701453.39049
  18780747.35148  14634348.60644         0.00041  24332674.35844  24332671.56848
  -6941422.20548  -5408900.41245         0.00041  23557990.54345  23557987.32948
 -16021748.30249 -12484473.81646         0.00041  21826969.47846  21826968.71449
 -13913108.12148 -10841378.23846         0.00041  22281275.31046  22281272.13748
 -10190998.30548  -7941033.51946         0.00041  23232346.06746  23232343.82948
 -17941621.03749 -13980472.20446         0.00041  21950850.77746  21950848.95749
 96 10 13 03 35 00.0000000  0  8 19 18 29 10 31 16 02 27
 -18693403.47949 -14566275.76247         0.00041  20588910.50347  20588908.59949
  -9712667.11749  -7568308.12847         0.00041  20711450.83147  20711449.66349
  18879670.82048  14711431.81144         0.00041  24351496.34244  24351495.62348
  -6971302.24148  -5432183.54545         0.00041  23552304.39145  23552301.87448
 -16053766.82649 -12509423.30746         0.00041  21820876.26046  21820875.76249
 -13888893.86648 -10822509.99346         0.00041  22285883.14146  22285879.79848
 -10271042.11548  -8003405.29246         0.00041  23217115.13746  23217111.96148
 -18004029.12649 -14029101.87446         0.00041  21938974.82746  21938973.04149
 96 10 13 03 35 30.0000000  0  8 19 18 29 10 31 16 02 27
 -18704215.21949 -14574700.49947         0.00041  20586853.04347  20586851.14249
  -9659664.53249  -7527007.41647         0.00041  20721536.59747  20721535.60549
  18978782.27748  14788661.48444         0.00041  24370356.94444  24370356.05448
  -7000609.09048  -5455020.05645         0.00041  23546727.48845  23546724.56048
 -16085180.27849 -12533901.30346         0.00041  21814898.42346  21814898.10349
 -13864162.59748 -10803238.88346         0.00041  22290589.09546  22290585.88048
 -10350846.44248  -8065590.46046         0.00041  23201927.88346  23201925.76148
 -18066284.90149 -14077612.85346         0.00041  21927128.19046  21927125.93449
 96 10 13 03 36 00.0000000  0  8 19 18 29 10 31 16 02 27
 -18714715.61449 -14582882.62847         0.00041  20584854.71647  20584852.85749
  -9606079.19249  -7485252.61747         0.00041  20731733.73147  20731732.69549
  19078183.66348  14866117.07844         0.00041  24389269.15944  24389270.85048
  -7029243.55448  -5477332.64045         0.00041  23541279.02245  23541275.38548
 -16115881.98749 -12557824.70746         0.00041  21809056.54246  21809055.82349
 -13838835.78048 -10783503.71046         0.00041  22295408.92646  22295405.85248
 -10430318.36548  -8127516.60946         0.00041  23186804.90146  23186802.46248
 -18128272.98649 -14125915.23846         0.00041  21915332.19246  21915329.78249
 96 10 13 03 36 30.0000000  0  8 19 18 29 10 31 16 02 27
 -18725064.12149 -14590946.39847         0.00041  20582885.55447  20582883.80449
  -9552084.86549  -7443179.12847         0.00041  20742008.76447  20742007.58949
  19177704.22248  14943665.58744         0.00041  24408208.77344  24408208.95748
  -7057380.20648  -5499257.32745         0.00041  23535924.93345  23535921.78148
 -16146051.83949 -12581333.67846         0.00041  21803315.25346  21803314.51449
 -13813103.29548 -10763452.43846         0.00041  22300305.88946  22300302.78648
 -10509646.14048  -8189330.44446         0.00041  23171709.93846  23171706.96248
 -18190156.74949 -14174136.33146         0.00041  21903556.25246  21903553.94549
 96 10 13 03 37 00.0000000  0  8 19 18 29 10 31 16 02 27
 -18735145.74349 -14598802.20447         0.00041  20580967.21747  20580965.30849
  -9497574.42749  -7400703.47347         0.00041  20752381.76847  20752380.35249
  19277455.14348  15021393.55344         0.00041  24427191.63744  24427190.92748
  -7084921.49248  -5520718.08046         0.00041  23530683.41446  23530681.13348
 -16175600.04949 -12604358.24446         0.00041  21797692.58246  21797691.94249
 -13786838.08349 -10742986.04346         0.00041  22305304.00846  22305300.92349
 -10588706.52048  -8250935.94146         0.00041  23156665.86046  23156662.65248
 -18251841.02849 -14222201.98946         0.00041  21891817.66146  21891815.69649
 96 10 13 03 37 30.0000000  0  8 19 18 29 10 31 16 02 27
 -18744782.48049 -14606311.34347         0.00041  20579133.39247  20579131.48849
  -9442369.92349  -7357686.98047         0.00041  20762886.84247  20762885.33649
  19377610.76448  15099436.86944         0.00041  24446251.81644  24446249.90748
  -7111708.47248  -5541591.06245         0.00041  23525586.80145  23525583.61548
 -16204343.58049 -12626755.80346         0.00041  21792223.20746  21792222.04049
 -13759830.01549 -10721940.81246         0.00041  22310443.14046  22310440.35749
 -10667301.90448  -8312179.08046         0.00041  23141709.00946  23141705.81348
 -18313155.92649 -14269979.82246         0.00041  21880149.91746  21880148.11049
 96 10 13 03 38 00.0000000  0  8 19 18 29 10 31 16 02 27
 -18753633.09649 -14613207.92047         0.00041  20577449.13947  20577447.36549
  -9386133.01049  -7313866.02047         0.00041  20773588.51547  20773587.04649
  19478511.04148  15178060.46044         0.00041  24465451.51544  24465451.08948
  -7137413.17648  -5561620.71345         0.00041  23520694.52345  23520692.12248
 -16231964.06549 -12648278.25446         0.00041  21786967.09846  21786966.05949
 -13731738.31648 -10700051.18246         0.00041  22315788.88846  22315785.65848
 -10745083.99348  -8372788.48346         0.00041  23126907.88146  23126904.68248
 -18373786.48249 -14317224.39246         0.00041  21868612.51446  21868610.37949
 96 10 13 03 38 30.0000000  0  8 19 18 29 10 31 16 02 27
 -18762003.31149 -14619730.16547         0.00041  20575856.16447  20575854.45349
  -9329186.37949  -7269492.02747         0.00041  20784424.81847  20784423.77749
  19579823.20248  15257004.96744         0.00041  24484732.96344  24484729.87048
  -7162355.03848  -5581055.92245         0.00041  23515948.69945  23515945.54148
 -16258774.41749 -12669169.43446         0.00041  21781864.93146  21781864.35449
 -13702849.76448 -10677540.63846         0.00041  22321285.96046  22321283.10648
 -10822339.50048  -8432987.57146         0.00041  23112205.74546  23112203.64648
 -18434061.60249 -14364191.99746         0.00041  21857142.31946  21857140.82049
 96 10 13 03 39 00.0000000  0  8 19 18 29 10 31 16 02 27
 -18770210.58849 -14626125.44547         0.00041  20574294.48447  20574292.94449
  -9271838.73849  -7224805.56147         0.00041  20795337.85347  20795336.88649
  19681219.95748  15336015.44944         0.00041  24504025.43844  24504025.08548
  -7186845.89148  -5600139.67545         0.00041  23511288.62745  23511285.53048
 -16285075.22749 -12689663.56446         0.00041  21776859.93746  21776859.53349
 -13673458.13248 -10654638.07746         0.00041  22326879.32246  22326876.31248
 -10899358.74948  -8493002.55146         0.00041  23097549.68046  23097547.48448
 -18494308.36349 -14411137.50446         0.00041  21845678.06446  21845676.10849
 96 10 13 03 39 30.0000000  0  8 19 18 29 10 31 16 02 27
 -18778093.03849 -14632267.61447         0.00041  20572794.54447  20572792.91749
  -9213924.08049  -7179677.26547         0.00041  20806358.70847  20806357.80449
  19782862.94448  15415217.83444         0.00041  24523367.80444  24523366.85148
  -7210701.16048  -5618728.22045         0.00041  23506748.98345  23506745.81048
 -16310676.49449 -12709612.58846         0.00041  21771987.96446  21771987.66949
 -13643402.00148 -10631217.72346         0.00041  22332598.95746  22332595.84248
 -10975975.58848  -8552703.96246         0.00041  23082969.84746  23082967.91348
 -18554357.70249 -14457929.18146         0.00041  21834250.60446  21834249.00549
 96 10 13 03 40 00.0000000  0  8 19 18 29 10 31 16 02 27
 -18785581.12349 -14638102.48747         0.00041  20571369.62347  20571368.07949
  -9155360.89249  -7134043.62547         0.00041  20817502.90247  20817502.06749
  19884828.77548  15494671.74544         0.00041  24542770.54044  24542770.54048
  -7233813.49248  -5636737.83745         0.00041  23502350.55845  23502347.33348
 -16335495.08649 -12728951.73846         0.00041  21767265.56746  21767265.31649
 -13612622.31348 -10607233.55146         0.00041  22338456.41946  22338453.25848
 -11052111.50648  -8612030.63746         0.00041  23068481.60646  23068479.84448
 -18614142.08249 -14504514.40646         0.00041  21822874.12746  21822872.45649
 96 10 13 03 40 30.0000000  0  8 19 18 29 10 31 16 02 27
 -18792528.95349 -14643516.37947         0.00041  20570047.41147  20570045.96749
  -9095990.25549  -7087780.79947         0.00041  20828800.76247  20828799.56749
  19987265.16348  15574492.30344         0.00041  24562264.19744  24562264.19748
  -7256006.66648  -5654031.21845         0.00041  23498127.39645  23498124.51948
 -16359363.79249 -12747550.71846         0.00041  21762723.03246  21762722.85949
 -13580983.61248 -10582580.02546         0.00041  22344476.84046  22344474.00348
 -11127617.59748  -8670866.54046         0.00041  23054113.59946  23054111.30748
 -18673493.58949 -14550762.32846         0.00041  21811579.73646  21811577.92649
 96 10 13 03 41 00.0000000  0  8 19 18 29 10 31 16 02 27
 -18798688.90449 -14648316.34647         0.00041  20568875.16147  20568873.62749
  -9035560.12549  -7040692.39747         0.00041  20840300.19447  20840299.07149
  20090435.89048  15654885.06644         0.00041  24581897.37344  24581897.37348
  -7277020.99548  -5670406.04245         0.00041  23494127.33745  23494125.03548
 -16382027.41449 -12765210.67446         0.00041  21758410.76046  21758409.89949
 -13548265.29748 -10557085.23746         0.00041  22350702.71646  22350700.20648
 -11202264.81948  -8729033.19346         0.00041  23039908.87046  23039906.18648
 -18732148.69149 -14596467.59846         0.00041  21800418.53246  21800416.35149
 96 10 13 03 41 30.0000000  0  8 19 18 29 10 31 16 02 27
 -18804003.05049 -14652457.24247         0.00041  20567863.89347  20567862.42449
  -8974009.84949  -6992731.15047         0.00041  20852012.93247  20852011.80149
  20194395.14648  15735892.24344         0.00041  24601680.42344  24601680.42348
  -7296802.81648  -5685820.46845         0.00041  23490363.36345  23490361.27148
 -16403438.01149 -12781894.25146         0.00041  21754336.46046  21754335.73449
 -13514423.74248 -10530715.20946         0.00041  22357142.43946  22357139.57348
 -11276016.65048  -8786502.15146         0.00041  23025874.42946  23025871.53748
 -18790035.84549 -14641574.45646         0.00041  21789402.73446  21789401.10049
 96 10 13 03 42 00.0000000  0  8 19 18 29 10 31 16 02 27
 -18808976.26949 -14656332.47947         0.00041  20566917.55247  20566916.04349
  -8911857.79649  -6944300.99047         0.00041  20863840.08547  20863838.92049
  20298618.49748  15817105.29044         0.00041  24621513.31344  24621513.31348
  -7315892.88948  -5700695.84645         0.00041  23486731.23345  23486728.38248
 -16424127.93249 -12798016.25746         0.00041  21750399.22346  21750398.42549
 -13479988.75148 -10503882.76446         0.00041  22363694.94846  22363692.39448
 -11349386.23948  -8843673.25346         0.00041  23011911.95046  23011909.71448
 -18847672.11349 -14686485.81146         0.00041  21778434.88446  21778433.08449
 96 10 13 03 42 30.0000000  0  8 19 18 29 10 31 16 02 27
 -18813323.58149 -14659719.99247         0.00041  20566090.37047  20566088.87049
  -8848840.35249  -6895196.49847         0.00041  20875831.94347  20875830.86749
  20403383.23348  15898740.18244         0.00041  24641449.45444  24641449.45448
  -7334043.45648  -5714839.13945         0.00041  23483277.92345  23483274.74348
 -16443825.20849 -12813364.78446         0.00041  21746650.84646  21746650.25149
 -13444688.69248 -10476376.23746         0.00041  22370412.90946  22370410.27448
 -11422106.31648  -8900338.24246         0.00041  22998074.86946  22998071.71648
 -18904777.24849 -14730983.30446         0.00041  21767568.23546  21767566.31349
 96 10 13 03 43 00.0000000  0  8 19 18 29 10 31 16 02 27
 -18816791.87249 -14662422.55947         0.00041  20565430.12847  20565428.79349
  -8784704.19549  -6845220.28747         0.00041  20888036.84747  20888035.65349
  20508950.80448  15981000.66344         0.00041  24661537.40844  24661537.40848
  -7351026.89448  -5728073.00445         0.00041  23480046.13345  23480042.98248
 -16462275.65649 -12827741.75146         0.00041  21743140.04046  21743139.18149
 -13408249.71048 -10447982.23446         0.00041  22377346.53346  22377344.21748
 -11493932.94148  -8956307.04946         0.00041  22984406.45546  22984403.53948
 -18961103.79649 -14774874.11546         0.00041  21756849.27346  21756847.91149
 96 10 13 03 43 30.0000000  0  8 19 18 29 10 31 16 02 27
 -18819804.76749 -14664770.27447         0.00041  20564857.11347  20564855.53349
  -8719873.08749  -6794702.54747         0.00041  20900373.78847  20900372.56949
  20614896.88148  16063556.01144         0.00041  24681698.45144  24681698.45148
  -7367276.49848  -5740735.05245         0.00041  23476953.48945  23476951.16148
 -16479904.10949 -12841478.19646         0.00041  21739785.11146  21739784.70449
 -13371093.73848 -10419029.54446         0.00041  22384417.87746  22384414.76248
 -11565283.61548  -9011904.96346         0.00041  22970828.65046  22970826.07748
 -19017085.84449 -14818496.47346         0.00041  21746196.39246  21746194.63949
 96 10 13 03 44 00.0000000  0  8 19 18 29 10 31 16 02 27
 -18822487.35149 -14666860.60847         0.00041  20564346.44747  20564345.03749
  -8654497.08949  -6743760.22247         0.00041  20912814.08247  20912812.98649
  20721095.90648  16146308.47144         0.00041  24701908.22844  24701908.22848
  -7382920.20048  -5752924.97545         0.00041  23473976.32045  23473974.02348
 -16496837.25749 -12854672.85246         0.00041  21736562.86946  21736562.26049
 -13333355.36948 -10389623.04346         0.00041  22391599.41746  22391596.52848
 -11636288.98648  -9067233.81546         0.00041  22957316.88646  22957314.25848
 -19072865.35949 -14861961.00946         0.00041  21735582.18646  21735580.03949
 96 10 13 03 44 30.0000000  0  8 19 18 29 10 31 16 02 27
 -18825115.93149 -14668908.85247         0.00041  20563846.26247  20563844.53849
  -8588837.19649  -6692596.67847         0.00041  20925309.20247  20925307.73249
  20827290.17048  16229057.27544         0.00041  24722115.39844  24722115.39848
  -7398206.70848  -5764836.54945         0.00041  23471068.41345  23471065.34048
 -16513339.06349 -12867531.39246         0.00041  21733422.45546  21733422.09149
 -13295288.15648 -10359960.28846         0.00041  22398842.39746  22398840.06648
 -11707229.69948  -9122512.28246         0.00041  22943817.20246  22943814.49848
 -19128701.50249 -14905469.67646         0.00041  21724956.65146  21724954.85249
 96 10 13 03 45 00.0000000  0  8 19 18 29 10 31 16 02 27
 -18827330.39749 -14670634.40647         0.00041  20563424.91347  20563423.28749
  -8522530.86249  -6640929.41747         0.00041  20937926.55647  20937925.40449
  20933825.90447  16312072.13344         0.00041  24742387.12944  24742387.12947
  -7412776.92448  -5776189.96445         0.00041  23468294.21745  23468292.37548
 -16529049.16549 -12879773.02546         0.00041  21730433.12346  21730432.78649
 -13256529.96848 -10329759.10846         0.00041  22406218.64346  22406215.60648
 -11777748.91548  -9177462.30946         0.00041  22930397.40646  22930395.00848
 -19184227.23949 -14948736.46946         0.00041  21714390.58246  21714388.46449
 96 10 13 03 45 30.0000000  0  8 19 18 29 10 31 16 02 27
 -18829242.49449 -14672124.35847         0.00041  20563061.05747  20563059.39249
  -8455720.05649  -6588869.06047         0.00041  20950640.18447  20950638.99449
  21040562.36647  16395243.40244         0.00041  24762701.62844  24762701.62847
  -7426741.97848  -5787071.85745         0.00041  23465638.50545  23465635.33948
 -16544096.99549 -12891498.60446         0.00041  21727569.77346  21727569.23149
 -13217220.55148 -10299128.39546         0.00041  22413698.29846  22413696.16848
 -11847952.46548  -9232166.36446         0.00041  22917038.32746  22917035.15748
 -19239577.14649 -14991866.25046         0.00041  21703857.48446  21703855.68449
 96 10 13 03 46 00.0000000  0  8 19 18 29 10 31 16 02 27
 -18831120.05149 -14673587.38847         0.00041  20562703.72447  20562702.01849
  -8388670.39649  -6536622.58147         0.00041  20963399.46047  20963398.28249
  21147228.92147  16478360.19844         0.00041  24782999.22644  24782999.22647
  -7440354.55148  -5797679.05445         0.00041  23463047.22845  23463044.77048
 -16558739.63749 -12902908.44746         0.00041  21724782.99246  21724782.61349
 -13177605.71248 -10268259.69946         0.00041  22421237.28146  22421234.55148
 -11918090.84448  -9286819.63546         0.00041  22903691.50646  22903688.29148
 -19295001.61349 -15035054.14046         0.00041  21693310.85046  21693309.07149
 96 10 13 03 46 30.0000000  0  8 19 18 29 10 31 16 02 27
 -18832456.85149 -14674629.04647         0.00041  20562449.37947  20562447.66049
  -8320855.08049  -6483779.48847         0.00041  20976304.03247  20976303.02749
  21254329.27547  16561815.01944         0.00041  24803378.76344  24803378.76347
  -7453093.73248  -5807605.69845         0.00041  23460622.68945  23460620.10148
 -16572451.05549 -12913592.66346         0.00041  21722174.16046  21722173.59249
 -13137167.37648 -10236749.31446         0.00041  22428932.45446  22428929.65848
 -11987622.79148  -9341000.36946         0.00041  22890460.17646  22890456.92148
 -19349970.60549 -15077887.10146         0.00041  21682850.52146  21682848.63649
 96 10 13 03 47 00.0000000  0  8 19 18 29 10 31 16 02 27
 -18833139.77249 -14675161.19247         0.00041  20562319.42747  20562317.61549
  -8252170.37549  -6430258.95147         0.00041  20989374.43747  20989373.03149
  21361956.12648  16645680.09844         0.00041  24823859.87044  24823859.87048
  -7464847.08548  -5816764.16445         0.00041  23458386.93545  23458383.58848
 -16585115.63749 -12923461.16946         0.00041  21719764.26946  21719763.41449
 -13095802.95848 -10204517.30846         0.00041  22436803.19246  22436801.15748
 -12056417.14948  -9394606.35546         0.00041  22877369.65646  22877366.17448
 -19404377.03449 -15120281.70246         0.00041  21672497.12746  21672495.48949
 96 10 13 03 47 30.0000000  0  8 19 18 29 10 31 16 02 27
 -18833069.58649 -14675106.50247         0.00041  20562332.70947  20562330.92949
  -8182509.46449  -6375977.73047         0.00041  21002630.47447  21002629.07349
  21470221.97848  16730043.13144         0.00041  24844462.85944  24844462.85948
  -7475487.78348  -5825055.62345         0.00041  23456360.88145  23456358.62548
 -16596622.90949 -12932427.86746         0.00041  21717573.93046  21717573.49249
 -13053401.43748 -10171477.17446         0.00041  22444872.23446  22444869.55448
 -12124355.47148  -9447545.30846         0.00041  22864440.84046  22864437.62448
 -19458110.70849 -15162152.08946         0.00041  21662271.54346  21662269.98949
 96 10 13 03 48 00.0000000  0  8 19 18 29 10 31 16 02 27
 -18832295.98949 -14674503.70647         0.00041  20562480.09947  20562478.19949
  -8111900.15449  -6320957.50347         0.00041  21016067.02147  21016065.66349
  21579087.84548  16814873.64644         0.00041  24865178.79844  24865178.79848
  -7485064.03448  -5832517.63745         0.00041  23454539.45345  23454536.37248
 -16607013.97749 -12940524.80146         0.00041  21715596.97746  21715596.37049
 -13010003.73548 -10137660.77846         0.00041  22453130.58646  22453128.09748
 -12191489.05648  -9499857.18146         0.00041  22851666.22246  22851663.21748
 -19511184.55549 -15203508.31546         0.00041  21652172.09646  21652170.41649
 96 10 13 03 48 30.0000000  0  8 19 18 29 10 31 16 02 27
 -18831000.95149 -14673494.59347         0.00041  20562726.55447  20562724.80649
  -8040540.06449  -6265352.24847         0.00041  21029646.50347  21029645.27749
  21688361.01248  16900021.56844         0.00041  24885971.22844  24885971.22848
  -7493779.83748  -5839309.19345         0.00041  23452880.82645  23452878.06748
 -16616494.61149 -12947912.30846         0.00041  21713793.33146  21713792.26049
 -12965816.81348 -10103229.42646         0.00041  22461538.65146  22461536.20348
 -12258028.58548  -9551706.14546         0.00041  22839003.65546  22839000.80648
 -19563797.48849 -15244505.37846         0.00041  21642160.41646  21642158.47749
 96 10 13 03 49 00.0000000  0  8 19 18 29 10 31 16 02 27
 -18829303.47849 -14672171.88947         0.00041  20563049.42647  20563047.75049
  -7968562.27049  -6209265.67047         0.00041  21043343.33647  21043342.17249
  21797933.55848  16985402.77244         0.00041  24906822.94744  24906822.94748
  -7501776.97648  -5845540.73145         0.00041  23451358.11445  23451355.97648
 -16625204.53049 -12954699.25946         0.00041  21712135.39546  21712134.56249
 -12920974.29648 -10068287.21146         0.00041  22470073.22046  22470070.01848
 -12324135.94148  -9603218.35846         0.00041  22826423.18646  22826421.01548
 -19616096.89549 -15285258.15346         0.00041  21632208.24046  21632206.40549
 96 10 13 03 49 30.0000000  0  8 19 18 29 10 31 16 02 27
 -18827348.57649 -14670648.59047         0.00041  20563421.39147  20563419.72049
  -7896109.84149  -6152809.24447         0.00041  21057130.66547  21057129.27749
  21907680.65147  17070919.98744         0.00041  24927705.44344  24927705.44347
  -7509212.01448  -5851334.27545         0.00041  23449945.23545  23449941.18148
 -16633278.63949 -12960990.77146         0.00041  21710599.42446  21710598.54149
 -12875627.60448 -10032952.13346         0.00041  22478702.11846  22478699.00348
 -12389979.89648  -9654525.31646         0.00041  22813894.03446  22813891.52348
 -19668231.79049 -15325882.72346         0.00041  21622287.47346  21622285.26349
 96 10 13 03 50 00.0000000  0  8 19 18 29 10 31 16 02 27
 -18825628.05549 -14669307.92447         0.00041  20563748.77447  20563747.15349
  -7823669.85849  -6096362.51747         0.00041  21070915.69347  21070914.17449
  22017115.41748  17156193.83244         0.00041  24948531.24044  24948531.24048
  -7516581.06848  -5857076.39145         0.00041  23448541.27745  23448538.82248
 -16641202.06349 -12967164.86346         0.00041  21709091.14146  21709090.28449
 -12830278.39848  -9997615.10246         0.00041  22487331.90746  22487328.71848
 -12456060.62048  -9706016.76546         0.00041  22801318.81546  22801316.66148
 -19720707.99849 -15366773.26746         0.00041  21612301.67146  21612299.49749
 96 10 13 03 50 30.0000000  0  7 19 18 10 31 16 02 27
 -18823845.43549 -14667918.87147         0.00041  20564088.02847  20564086.22849
  -7750940.05349  -6039689.95247         0.00041  21084755.55147  21084754.07449
  -7523569.86448  -5862522.22645         0.00041  23447212.39745  23447209.22948
 -16648650.30549 -12972968.68646         0.00041  21707673.60246  21707672.91949
 -12784619.34448  -9962036.63546         0.00041  22496020.41046  22496017.27348
 -12522063.02149  -9757447.19746         0.00041  22788758.87446  22788756.85649
 -19773248.86249 -15407714.20646         0.00041  21602303.23746  21602301.22349
 96 10 13 03 51 00.0000000  0  7 19 18 10 31 16 02 27
 -18822241.23949 -14666668.84647         0.00041  20564393.37847  20564391.63149
  -7678140.17649  -5982962.78547         0.00041  21098608.84147  21098607.25949
  -7530391.07048  -5867837.43545         0.00041  23445913.46445  23445910.58648
 -16655838.86249 -12978570.15546         0.00041  21706305.63446  21706305.09549
 -12738881.64348  -9926396.87846         0.00041  22504723.71046  22504720.68648
 -12588202.78649  -9808984.66446         0.00041  22776172.75446  22776170.89749
 -19826087.67949 -15448887.30746         0.00041  21592248.41746  21592246.30049
 96 10 13 03 51 30.0000000  0  8 19 18 03 10 31 16 02 27
 -18820918.71849 -14665638.31547         0.00041  20564644.99847  20564643.14949
  -7605365.08049  -5926254.92747         0.00041  21112457.51047  21112456.14549
        -0.08058         0.33955         0.00051  23897570.21755  23897568.97758
  -7537123.31348  -5873083.35345         0.00041  23444632.62845  23444629.83148
 -16662851.77849 -12984034.75946         0.00041  21704971.28146  21704970.66249
 -12693154.81948  -9890765.59346         0.00041  22513425.47746  22513422.36848
 -12654549.34849  -9860683.26246         0.00041  22763547.96246  22763545.72949
 -19879300.37149 -15490351.72246         0.00041  21582122.21546  21582120.42449
 96 10 13 03 52 00.0000000  0  8 19 18 03 10 31 16 02 27
 -18819590.43049 -14664603.29147         0.00041  20564897.84247  20564896.05049
  -7532339.57749  -5869351.94747         0.00041  21126353.92847  21126352.38549
     60461.84148     47113.52545         0.00041  23909075.75345  23909074.65148
  -7543474.66148  -5878032.43845         0.00041  23443424.56645  23443421.39848
 -16669428.25249 -12989159.27446         0.00041  21703719.74446  21703719.18549
 -12647155.26948  -9854921.79546         0.00041  22522178.67446  22522175.66948
 -12720800.74149  -9912307.71846         0.00041  22750940.28746  22750938.21849
 -19932598.60749 -15531882.80946         0.00041  21571979.55746  21571977.77949
 96 10 13 03 52 30.0000000  0  8 19 18 03 10 31 16 02 27
 -18818447.32849 -14663712.56147         0.00041  20565115.32947  20565113.66649
  -7459278.18449  -5812421.00447         0.00041  21140256.92447  21140255.60849
    121025.79148     94306.20445         0.00041  23920600.55345  23920599.07248
  -7549653.02548  -5882846.76945         0.00041  23442248.76545  23442245.74348
 -16675788.47949 -12994115.28746         0.00041  21702509.46846  21702508.82349
 -12601087.98448  -9819025.22546         0.00041  22530944.57646  22530941.69448
 -12787162.21349  -9964017.96146         0.00041  22738312.38746  22738310.22749
 -19986180.27049 -15573634.74946         0.00041  21561783.45146  21561781.61549
 96 10 13 03 53 00.0000000  0  8 19 18 03 10 31 16 02 27
 -18817398.55949 -14662895.33347         0.00041  20565314.84547  20565313.09549
  -7386115.30849  -5755410.98147         0.00041  21154179.39647  21154178.18149
    181755.66648    141628.19144         0.00041  23932156.63844  23932155.60348
  -7555598.85848  -5887479.80645         0.00041  23441115.89645  23441113.54048
 -16681876.98649 -12998859.56846         0.00041  21701350.80346  21701350.39349
 -12554897.32748  -9783032.52046         0.00041  22539734.55046  22539731.40948
 -12853577.00849 -10015769.74246         0.00041  22725674.24346  22725671.56049
 -20039954.75249 -15615536.93346         0.00041  21551550.89546  21551549.05049
 96 10 13 03 53 30.0000000  0  8 19 18 03 10 31 16 02 27
 -18816448.71849 -14662155.20147         0.00041  20565495.58847  20565493.86949
  -7312884.71449  -5698348.19447         0.00041  21168114.96947  21168113.47449
    242608.55848    189046.03944         0.00041  23943736.03544  23943735.90448
  -7561346.00948  -5891957.05145         0.00041  23440020.84045  23440020.98648
 -16687710.35849 -13003405.04746         0.00041  21700240.99046  21700240.11249
 -12508608.59248  -9746963.39246         0.00041  22548543.25046  22548539.81848
 -12920057.38249 -10067572.63746         0.00041  22713023.52946  22713020.84249
 -20093922.59949 -15657589.81146         0.00041  21541280.88846  21541279.06449
 96 10 13 03 54 00.0000000  0  8 19 18 03 10 31 16 02 27
 -18815581.02149 -14661479.07847         0.00041  20565660.74347  20565658.90849
  -7239580.68949  -5641228.18547         0.00041  21182064.11047  21182062.92549
    303569.24748    236547.85144         0.00041  23955335.95544  23955335.94648
  -7566898.42248  -5896282.77446         0.00041  23438964.67246  23438964.21448
 -16693273.23549 -13007739.74046         0.00041  21699182.13846  21699181.26349
 -12462224.17648  -9710819.70246         0.00041  22557370.02346  22557366.49948
 -12986602.45849 -10119425.95246         0.00041  22700360.12946  22700357.60149
 -20148075.71549 -15699787.04346         0.00041  21530975.93746  21530974.23449
 96 10 13 03 54 30.0000000  0  8 19 18 03 10 31 16 02 27
 -18814670.67949 -14660769.72347         0.00041  20565834.10347  20565832.27749
  -7166072.64849  -5583949.20047         0.00041  21196052.47547  21196050.99049
    364762.44148    284230.90544         0.00041  23966981.58744  23966980.42548
  -7572142.78548  -5900369.43945         0.00041  23437969.67845  23437965.76748
 -16698413.85049 -13011745.41146         0.00041  21698204.09146  21698203.39749
 -12415612.67748  -9674499.05546         0.00041  22566239.70046  22566236.46848
 -13053082.94549 -10171228.91346         0.00041  22687709.00946  22687707.03349
 -20202276.68849 -15742021.57446         0.00041  21520661.85946  21520660.02049
 96 10 13 03 55 00.0000000  0  8 19 18 03 10 31 16 02 27
 -18813613.11249 -14659945.65247         0.00041  20566035.21747  20566033.58249
  -7092246.56749  -5526422.39247         0.00041  21210100.84147  21210099.52549
    426299.31348    332181.72044         0.00041  23978692.44844  23978690.66648
  -7576969.59448  -5904130.57045         0.00041  23437050.93145  23437047.72048
 -16703001.54949 -13015320.23746         0.00041  21697331.18546  21697330.49049
 -12368664.94048  -9637916.41346         0.00041  22575173.49846  22575170.81148
 -13119372.30549 -10222882.94946         0.00041  22675094.83746  22675092.57149
 -20256399.42949 -15784195.13846         0.00041  21510362.64746  21510360.83849
 96 10 13 03 55 30.0000000  0  8 19 18 03 10 31 16 02 27
 -18812770.18549 -14659288.83047         0.00041  20566195.71547  20566193.94349
  -7018450.43449  -5468918.92347         0.00041  21224143.99447  21224142.40649
    487834.54648    380131.22644         0.00041  23990401.17744  23990400.63848
  -7581719.65548  -5907831.91945         0.00041  23436146.06945  23436143.52848
 -16707381.01949 -13018732.80946         0.00041  21696497.54946  21696496.99449
 -12321714.04948  -9601331.30646         0.00041  22584108.07346  22584105.31148
 -13185815.31949 -10274656.71046         0.00041  22662451.32546  22662448.71949
 -20310796.64849 -15826582.58246         0.00041  21500011.56346  21500009.37649
 96 10 13 03 56 00.0000000  0  8 19 18 03 10 31 16 02 27
 -18812167.67349 -14658819.34047         0.00041  20566310.43147  20566308.75949
  -6944695.77249  -5411447.77147         0.00041  21238178.82147  21238177.44049
    549363.28448    428075.72244         0.00041  24002112.31944  24002109.13748
  -7586412.76448  -5911488.88845         0.00041  23435254.13145  23435251.07448
 -16711586.42449 -13022009.74446         0.00041  21695697.36346  21695696.83549
 -12274772.20648  -9564753.25646         0.00041  22593041.17746  22593038.05848
 -13252448.75949 -10326578.83346         0.00041  22649771.32146  22649768.66249
 -20365502.76349 -15869210.72046         0.00041  21489600.99746  21489598.73549
 96 10 13 03 56 30.0000000  0  8 19 18 03 10 31 16 02 27
 -18811484.86549 -14658287.28047         0.00041  20566440.22747  20566438.31949
  -6870669.72449  -5353765.14547         0.00041  21252265.52547  21252264.07349
    611210.03548    476267.98544         0.00041  24013877.41544  24013877.44248
  -7590717.95148  -5914843.58445         0.00041  23434433.38045  23434430.25748
 -16715320.47049 -13024919.39446         0.00041  21694986.83446  21694986.20349
 -12227525.87348  -9527937.93646         0.00041  22602031.45346  22602028.28948
 -13318948.30849 -10378396.65646         0.00041  22637116.76746  22637114.33749
 -20420212.17849 -15911841.42246         0.00041  21479189.79746  21479188.00149
 96 10 13 03 57 00.0000000  0  8 19 18 03 10 31 16 02 27
 -18811225.33249 -14658085.04847         0.00041  20566489.61547  20566487.79649
  -6796879.86549  -5296266.57247         0.00041  21266307.23947  21266305.75049
    672856.03348    524303.82744         0.00041  24025610.48544  24025609.41548
  -7595120.92648  -5918274.50745         0.00041  23433596.88845  23433593.44448
 -16719100.92249 -13027865.19946         0.00041  21694267.09646  21694266.43749
 -12180492.38848  -9491288.47646         0.00041  22610981.62046  22610978.54348
 -13385836.53549 -10430517.33046         0.00041  22624388.10446  22624385.76949
 -20475447.53149 -15954881.95146         0.00041  21468679.02646  21468677.52249
 96 10 13 03 57 30.0000000  0  8 19 18 03 10 31 16 02 27
 -18810785.18749 -14657742.08547         0.00041  20566573.36547  20566571.71349
  -6722727.58549  -5238485.58247         0.00041  21280418.00447  21280416.52349
    734906.08848    572654.53944         0.00041  24037418.17644  24037416.73448
  -7599015.62348  -5921309.34345         0.00041  23432855.31645  23432852.15848
 -16722346.24549 -13030394.01546         0.00041  21693649.61146  21693648.75349
 -12133076.59748  -9454341.11546         0.00041  22620003.63346  22620001.12848
 -13452521.18849 -10482479.37846         0.00041  22611699.03146  22611696.19849
 -20530629.49849 -15997880.88246         0.00041  21458178.34046  21458176.67049
 96 10 13 03 58 00.0000000  0  8 19 18 03 10 31 16 02 27
 -18809972.30449 -14657108.67747         0.00041  20566728.08947  20566726.42749
  -6648017.47149  -5180269.91947         0.00041  21294634.99047  21294633.48049
    797550.12648    621468.04844         0.00041  24049337.77944  24049337.72748
  -7602208.26348  -5923797.10445         0.00041  23432248.01645  23432244.95348
 -16724860.12649 -13032352.88546         0.00041  21693171.58046  21693170.79149
 -12085099.96948  -9416956.75046         0.00041  22629134.24146  22629131.24348
 -13518800.71649 -10534125.75046         0.00041  22599086.61246  22599083.81749
 -20585571.25049 -16040692.65647         0.00041  21447723.27147  21447721.77349
 96 10 13 03 58 30.0000000  0  8 19 18 03 10 31 16 02 27
 -18808531.23349 -14655985.76747         0.00041  20567002.27247  20567000.60249
  -6572481.74549  -5121410.92247         0.00041  21309008.86147  21309007.34449
    861043.79248    670943.61344         0.00041  24061420.73444  24061420.04748
  -7604425.27748  -5925524.64946         0.00041  23431826.34746  23431823.18748
 -16726364.58149 -13033525.18746         0.00041  21692884.97046  21692884.25849
 -12036309.13948  -9378937.93846         0.00041  22638418.61646  22638415.81648
 -13584394.42849 -10585237.72446         0.00041  22586604.72546  22586601.78449
 -20639998.93849 -16083103.85347         0.00041  21437366.28347  21437364.39549
 96 10 13 03 59 00.0000000  0  8 19 18 03 10 31 16 02 27
 -18806608.19949 -14654487.30147         0.00041  20567368.27147  20567366.56349
  -6496252.27649  -5062011.35047         0.00041  21323514.88647  21323513.45949
    925257.57448    720980.32944         0.00041  24073639.99544  24073639.72948
  -7605809.27648  -5926603.12845         0.00041  23431562.53845  23431559.65548
 -16726978.90149 -13034003.87046         0.00041  21692768.24546  21692767.59649
 -11986835.26248  -9340386.88046         0.00041  22647833.57746  22647830.48948
 -13649444.25248 -10635925.88046         0.00041  22574225.62746  22574222.76148
 -20694035.87649 -16125210.53847         0.00041  21427083.26347  21427081.15949
 96 10 13 03 59 30.0000000  0  8 19 18 03 10 31 16 02 27
 -18804328.22449 -14652710.70047         0.00041  20567802.01647  20567800.37949
  -6419455.92549  -5002170.04947         0.00041  21338128.78247  21338127.36249
    990084.60448    771494.87144         0.00041  24085977.86744  24085975.76048
  -7606487.21348  -5927131.40445         0.00041  23431433.23245  23431430.80648
 -16726812.26649 -13033874.02346         0.00041  21692800.23146  21692799.59549
 -11936783.49148  -9301385.50646         0.00041  22657358.22946  22657355.25148
 -13714042.32348 -10686262.03146         0.00041  22561932.83446  22561930.23248
 -20747787.45649 -16167094.88047         0.00041  21416854.70247  21416852.76649
 96 10 13 04 00 00.0000000  0  8 19 18 03 10 31 16 02 27
 -18801754.43749 -14650705.15147         0.00041  20568291.79347  20568290.26049
  -6342161.86049  -4941940.92247         0.00041  21352837.54347  21352836.18349
   1055440.82948    822421.81544         0.00041  24098414.80344  24098412.90848
  -7606532.84648  -5927166.97346         0.00041  23431424.51946  23431422.06948
 -16725907.98649 -13033169.38746         0.00041  21692972.12946  21692971.71549
 -11886214.92048  -9261981.42946         0.00041  22666980.89746  22666977.58148
 -13778260.19948 -10736301.93546         0.00041  22549712.55746  22549709.98148
 -20801306.35749 -16208797.97047         0.00041  21406670.29647  21406668.39849
 96 10 13 04 00 30.0000000  0  8 19 18 03 10 31 16 02 27
 -18798902.61249 -14648482.94947         0.00041  20568834.32847  20568832.80849
  -6264410.35749  -4881355.34947         0.00041  21367633.01147  21367631.77749
   1121292.13448    873734.51744         0.00041  24110944.72744  24110943.47848
  -7605985.34648  -5926740.34445         0.00041  23431530.00345  23431526.29048
 -16724293.60749 -13031911.41446         0.00041  21693279.20046  21693278.58149
 -11835155.20748  -9222194.64146         0.00041  22676697.27646  22676694.51648
 -13842133.22348 -10786073.12646         0.00041  22537558.01946  22537555.17548
 -20854618.87249 -16250340.19247         0.00041  21396525.01247  21396523.54549
 96 10 13 04 01 00.0000000  0  8 19 18 03 10 31 16 02 27
 -18795775.34149 -14646046.11247         0.00041  20569429.69247  20569428.04749
  -6186234.13849  -4820438.82446         0.00041  21382509.38846  21382508.06749
   1187623.71748    925421.45945         0.00041  24123569.15445  24123566.02448
  -7604886.88348  -5925884.40545         0.00041  23431738.69045  23431735.58748
 -16721985.06749 -13030112.55946         0.00041  21693718.19446  21693717.42149
 -11783616.37048  -9182034.50846         0.00041  22686504.90746  22686501.69748
 -13905694.49749 -10835601.38746         0.00041  22525462.64046  22525460.21349
 -20907757.98949 -16291747.30047         0.00041  21386413.10847  21386411.41349
 96 10 13 04 01 30.0000000  0  8 19 18 03 10 31 16 02 27
 -18792386.50449 -14643405.45747         0.00041  20570074.45247  20570072.85249
  -6107664.49549  -4759215.73846         0.00041  21397460.60146  21397459.16549
   1254393.63448    977449.98845         0.00041  24136273.30945  24136271.95348
  -7603283.40748  -5924634.94745         0.00041  23432045.16345  23432039.90848
 -16719020.95649 -13027802.88146         0.00041  21694282.76946  21694281.80149
 -11731631.15648  -9141526.55946         0.00041  22696397.29246  22696394.10648
 -13968977.77749 -10884913.01646         0.00041  22513420.39846  22513418.05949
 -20960749.98549 -16333039.76447         0.00041  21376329.17747  21376327.57549
 96 10 13 04 02 00.0000000  0  8 19 18 03 10 31 16 02 27
 -18788732.41249 -14640558.12347         0.00041  20570769.81347  20570768.17749
  -6028702.85149  -4697687.19147         0.00041  21412486.76947  21412485.29149
   1321588.45448   1029809.58245         0.00041  24149060.74545  24149058.82248
  -7601191.73948  -5923005.07844         0.00041  23432443.41544  23432438.81148
 -16715411.94849 -13024990.57846         0.00041  21694969.48346  21694968.58349
 -11679235.12948  -9100698.48946         0.00041  22706368.01246  22706365.13748
 -14032009.48049 -10934028.61946         0.00041  22501425.97246  22501423.28949
 -21013603.37049 -16374224.20747         0.00041  21366271.37147  21366269.70849
 96 10 13 04 02 30.0000000  0  8 19 18 03 10 31 16 02 27
 -18784834.41649 -14637520.72047         0.00041  20571511.61247  20571509.99049
  -5949356.72049  -4635859.04646         0.00041  21427585.55246  21427584.04649
   1389214.00148   1082504.81745         0.00041  24161929.45045  24161928.02648
  -7598617.03348  -5920998.84444         0.00041  23432933.78444  23432928.22648
 -16711186.32049 -13021697.91946         0.00041  21695773.22546  21695772.63349
 -11626452.38648  -9059569.10246         0.00041  22716412.24246  22716409.18848
 -14094796.02849 -10982953.17346         0.00041  22489478.18346  22489475.74749
 -21066321.08949 -16415302.95147         0.00041  21356239.67447  21356237.88849
